[[{"header":{"parameterUnit":"m.s-1","parameterCategory":1,"la1":30.6,"la2":28.766,"lo1":-90.7593,"lo2":-88.6598,"dx":0.0162,"dy":0.0183,"nx":116,"ny":114,"refTime":"2022-11-22T18:00:00:Z","depth":0,"parameterNumber":2,"parameterNumberName":"U-component_of_WINDS"},"data":[0.0,0.0,0.0,0.0,0.0,0.0,0.0,0.0,0.0,0.0,0.0,0.0,0.0,0.0,0.0,0.0,0.0,0.0,0.0,0.0,0.0,0.0,0.0,0.0,0.0,0.0,0.0,0.0,0.0,0.0,0.0,0.0,0.0,0.0,0.0,0.0,0.0,0.0,0.0,0.0,0.0,0.0,0.0,0.0,0.0,0.0,0.0,0.0,0.0,0.0,0.0,0.0,0.0,0.0,0.0,0.0,0.0,0.0,0.0,0.0,0.0,0.0,0.0,0.0,0.0,0.0,0.0,0.0,0.0,0.0,0.0,0.0,0.0,0.0,0.0,0.0,0.0,0.0,0.0,0.0,0.0,0.0,0.0,0.0,0.0,0.0,0.0,0.0,0.0,0.0,0.0,0.0,0.0,0.0,0.0,0.0,0.0,0.0,0.0,0.0,0.0,0.0,0.0,0.0,0.0,0.0,0.0,0.0,0.0,0.0,0.0,0.0,0.0,0.0,0.0,0.0,0.0,0.0,0.0,0.0,0.0,0.0,0.0,0.0,0.0,0.0,0.0,0.0,0.0,0.0,0.0,0.0,0.0,0.0,0.0,0.0,0.0,0.0,0.0,0.0,0.0,0.0,0.0,0.0,0.0,0.0,0.0,0.0,0.0,0.0,0.0,0.0,0.0,0.0,0.0,0.0,0.0,0.0,0.0,0.0,0.0,0.0,0.0,0.0,0.0,0.0,0.0,0.0,0.0,0.0,0.0,0.0,0.0,0.0,0.0,0.0,0.0,0.0,0.0,0.0,0.0,0.0,0.0,0.0,0.0,0.0,0.0,0.0,0.0,0.0,0.0,0.0,0.0,0.0,0.0,0.0,0.0,0.0,0.0,0.0,0.0,0.0,0.0,0.0,0.0,0.0,0.0,0.0,0.0,0.0,0.0,0.0,0.0,0.0,0.0,0.0,0.0,0.0,0.0,0.0,0.0,0.0,0.0,0.0,0.0,0.0,0.0,0.0,0.0,0.0,0.0,0.0,0.0,0.0,0.0,0.0,0.0,0.0,0.0,0.0,0.0,0.0,0.0,0.0,0.0,0.0,0.0,0.0,0.0,0.0,0.0,0.0,0.0,0.0,0.0,0.0,0.0,0.0,0.0,0.0,0.0,0.0,0.0,0.0,0.0,0.0,0.0,0.0,0.0,0.0,0.0,0.0,0.0,0.0,0.0,0.0,0.0,0.0,0.0,0.0,0.0,0.0,0.0,0.0,0.0,0.0,0.0,0.0,0.0,0.0,0.0,0.0,0.0,0.0,0.0,0.0,0.0,0.0,0.0,0.0,0.0,0.0,0.0,0.0,0.0,0.0,0.0,0.0,0.0,0.0,0.0,0.0,0.0,0.0,0.0,0.0,0.0,0.0,0.0,0.0,0.0,0.0,0.0,0.0,0.0,0.0,0.0,0.0,0.0,0.0,0.0,0.0,0.0,0.0,0.0,0.0,0.0,0.0,0.0,0.0,0.0,0.0,0.0,0.0,0.0,0.0,0.0,0.0,0.0,0.0,0.0,0.0,0.0,0.0,0.0,0.0,0.0,0.0,0.0,0.0,0.0,0.0,0.0,0.0,0.0,0.0,0.0,0.0,0.0,0.0,0.0,0.0,0.0,0.0,0.0,0.0,0.0,0.0,0.0,0.0,0.0,0.0,0.0,0.0,0.0,0.0,0.0,0.0,0.0,0.0,0.0,0.0,0.0,0.0,0.0,0.0,0.0,0.0,0.0,0.0,0.0,0.0,0.0,0.0,0.0,0.0,0.0,0.0,0.0,0.0,0.0,0.0,0.0,0.0,0.0,0.0,0.0,0.0,0.0,0.0,0.0,0.0,0.0,0.0,0.0,0.0,0.0,0.0,0.0,0.0,0.0,0.0,0.0,0.0,0.0,0.0,0.0,0.0,0.0,0.0,0.0,0.0,0.0,0.0,0.0,0.0,0.0,0.0,0.0,0.0,0.0,0.0,0.0,0.0,0.0,0.0,0.0,0.0,0.0,0.0,0.0,0.0,0.0,0.0,0.0,0.0,0.0,0.0,0.0,0.0,0.0,0.0,0.0,0.0,0.0,0.0,0.0,0.0,0.0,0.0,0.0,0.0,0.0,0.0,0.0,0.0,0.0,0.0,0.0,0.0,0.0,0.0,0.0,0.0,0.0,0.0,0.0,0.0,0.0,0.0,0.0,0.0,0.0,0.0,0.0,0.0,0.0,0.0,0.0,0.0,0.0,0.0,0.0,0.0,0.0,0.0,0.0,0.0,0.0,0.0,0.0,0.0,0.0,0.0,0.0,0.0,0.0,0.0,0.0,0.0,0.0,0.0,0.0,0.0,0.0,0.0,0.0,0.0,0.0,0.0,0.0,0.0,0.0,0.0,0.0,0.0,0.0,0.0,0.0,0.0,0.0,0.0,0.0,0.0,0.0,0.0,0.0,0.0,0.0,0.0,0.0,0.0,0.0,0.0,0.0,0.0,0.0,0.0,0.0,0.0,0.0,0.0,0.0,0.0,0.0,0.0,0.0,0.0,0.0,0.0,0.0,0.0,0.0,0.0,0.0,0.0,0.0,0.0,0.0,0.0,0.0,0.0,0.0,0.0,0.0,0.0,0.0,0.0,0.0,0.0,0.0,0.0,0.0,0.0,0.0,0.0,0.0,0.0,0.0,0.0,0.0,0.0,0.0,0.0,0.0,0.0,0.0,0.0,0.0,0.0,0.0,0.0,0.0,0.0,0.0,0.0,0.0,0.0,0.0,0.0,0.0,0.0,0.0,0.0,0.0,0.0,0.0,0.0,0.0,0.0,0.0,0.0,0.0,0.0,0.0,0.0,0.0,0.0,0.0,0.0,0.0,0.0,0.0,0.0,0.0,0.0,0.0,0.0,0.0,0.0,0.0,0.0,0.0,0.0,0.0,0.0,0.0,0.0,0.0,0.0,0.0,0.0,0.0,0.0,0.0,0.0,0.0,0.0,0.0,0.0,0.0,0.0,0.0,0.0,0.0,0.0,0.0,0.0,0.0,0.0,0.0,0.0,0.0,0.0,0.0,0.0,0.0,0.0,0.0,0.0,0.0,0.0,0.0,0.0,0.0,0.0,0.0,0.0,0.0,0.0,0.0,0.0,0.0,0.0,0.0,0.0,0.0,0.0,0.0,0.0,0.0,0.0,0.0,0.0,0.0,0.0,0.0,0.0,0.0,0.0,0.0,0.0,0.0,0.0,0.0,0.0,0.0,0.0,0.0,0.0,0.0,0.0,0.0,0.0,0.0,0.0,0.0,0.0,0.0,0.0,0.0,0.0,0.0,0.0,0.0,0.0,0.0,0.0,0.0,0.0,0.0,0.0,0.0,0.0,0.0,0.0,0.0,0.0,0.0,0.0,0.0,0.0,0.0,0.0,0.0,0.0,0.0,0.0,0.0,0.0,0.0,0.0,0.0,0.0,0.0,0.0,0.0,0.0,0.0,0.0,0.0,0.0,0.0,0.0,0.0,0.0,0.0,0.0,0.0,0.0,0.0,0.0,0.0,0.0,0.0,0.0,0.0,0.0,0.0,0.0,0.0,0.0,0.0,0.0,0.0,0.0,0.0,0.0,0.0,0.0,0.0,0.0,0.0,0.0,0.0,0.0,0.0,0.0,0.0,0.0,0.0,0.0,0.0,0.0,0.0,0.0,0.0,0.0,0.0,0.0,0.0,0.0,0.0,0.0,0.0,0.0,0.0,0.0,0.0,0.0,0.0,0.0,0.0,0.0,0.0,0.0,0.0,0.0,0.0,0.0,0.0,0.0,0.0,0.0,0.0,0.0,0.0,0.0,0.0,0.0,0.0,0.0,0.0,0.0,0.0,0.0,0.0,0.0,0.0,0.0,0.0,0.0,0.0,0.0,0.0,0.0,0.0,0.0,0.0,0.0,0.0,0.0,0.0,0.0,0.0,0.0,0.0,0.0,0.0,0.0,0.0,0.0,0.0,0.0,0.0,0.0,0.0,0.0,0.0,0.0,0.0,0.0,0.0,0.0,0.0,0.0,0.0,0.0,0.0,0.0,0.0,0.0,0.0,0.0,0.0,0.0,0.0,0.0,0.0,0.0,0.0,0.0,0.0,0.0,0.0,0.0,0.0,0.0,0.0,0.0,0.0,0.0,0.0,0.0,0.0,0.0,0.0,0.0,0.0,0.0,0.0,0.0,0.0,0.0,0.0,0.0,0.0,0.0,0.0,0.0,0.0,0.0,0.0,0.0,0.0,0.0,0.0,0.0,0.0,0.0,0.0,0.0,0.0,0.0,0.0,0.0,0.0,0.0,0.0,0.0,0.0,0.0,0.0,0.0,0.0,0.0,0.0,0.0,0.0,0.0,0.0,0.0,0.0,0.0,0.0,0.0,0.0,0.0,0.0,0.0,0.0,0.0,0.0,0.0,0.0,0.0,0.0,0.0,0.0,0.0,0.0,0.0,0.0,0.0,0.0,0.0,0.0,0.0,0.0,0.0,0.0,0.0,0.0,0.0,0.0,0.0,0.0,0.0,0.0,0.0,0.0,0.0,0.0,0.0,0.0,0.0,0.0,0.0,0.0,0.0,0.0,0.0,0.0,0.0,0.0,0.0,0.0,0.0,0.0,0.0,0.0,0.0,0.0,0.0,0.0,0.0,0.0,0.0,0.0,0.0,0.0,0.0,0.0,0.0,0.0,0.0,0.0,0.0,0.0,0.0,0.0,0.0,0.0,0.0,0.0,0.0,0.0,0.0,0.0,0.0,0.0,0.0,0.0,0.0,0.0,0.0,0.0,0.0,0.0,0.0,0.0,0.0,0.0,0.0,0.0,0.0,0.0,0.0,0.0,0.0,0.0,0.0,0.0,0.0,0.0,0.0,0.0,0.0,0.0,0.0,0.0,0.0,0.0,0.0,0.0,0.0,0.0,0.0,0.0,0.0,0.0,0.0,0.0,0.0,0.0,0.0,0.0,0.0,0.0,0.0,0.0,0.0,0.0,0.0,0.0,0.0,0.0,0.0,0.0,0.0,0.0,0.0,0.0,0.0,0.0,0.0,0.0,0.0,0.0,0.0,0.0,0.0,0.0,0.0,0.0,0.0,0.0,0.0,0.0,0.0,0.0,0.0,0.0,0.0,0.0,0.0,0.0,0.0,0.0,0.0,0.0,0.0,0.0,0.0,0.0,0.0,0.0,0.0,0.0,0.0,0.0,0.0,0.0,0.0,0.0,0.0,0.0,0.0,0.0,0.0,0.0,0.0,0.0,0.0,0.0,0.0,0.0,0.0,0.0,0.0,0.0,0.0,0.0,0.0,0.0,0.0,0.0,0.0,0.0,0.0,0.0,0.0,0.0,0.0,0.0,0.0,0.0,0.0,0.0,0.0,0.0,0.0,0.0,0.0,0.0,0.0,0.0,0.0,0.0,0.0,0.0,0.0,0.0,0.0,0.0,0.0,0.0,0.0,0.0,0.0,0.0,0.0,0.0,0.0,0.0,0.0,0.0,0.0,0.0,0.0,0.0,0.0,0.0,0.0,0.0,0.0,0.0,0.0,0.0,0.0,0.0,0.0,0.0,0.0,0.0,0.0,0.0,0.0,0.0,0.0,0.0,0.0,0.0,0.0,0.0,0.0,0.0,0.0,0.0,0.0,0.0,0.0,0.0,0.0,0.0,0.0,0.0,0.0,0.0,0.0,0.0,0.0,0.0,0.0,0.0,0.0,0.0,0.0,0.0,0.0,0.0,0.0,0.0,0.0,0.0,0.0,0.0,0.0,0.0,0.0,0.0,0.0,0.0,0.0,0.0,0.0,0.0,0.0,0.0,0.0,0.0,0.0,0.0,0.0,0.0,0.0,0.0,0.0,0.0,0.0,0.0,0.0,0.0,0.0,0.0,0.0,0.0,0.0,0.0,0.0,0.0,0.0,0.0,0.0,0.0,0.0,0.0,0.0,0.0,0.0,0.0,0.0,0.0,0.0,0.0,0.0,0.0,0.0,0.0,0.0,0.0,0.0,0.0,0.0,0.0,0.0,0.0,0.0,0.0,0.0,0.0,0.0,0.0,0.0,0.0,0.0,0.0,0.0,0.0,0.0,-0.2047,0.0,0.0,0.0,0.0,0.0,0.0,0.0,0.0,0.0,0.0,0.0,0.0,0.0,0.0,0.0,0.0,0.0,0.0,0.0,0.0,0.0,0.0,0.0,0.0,-0.7712,-0.7712,-0.7712,-0.7712,0.0,0.0,0.0,0.0,0.0,0.0,0.0,0.0,0.0,-0.7889,-0.7753,-0.7824,-0.7802,-0.7812,-0.7851,-0.7633,-0.7265,0.0,0.0,0.0,0.0,0.0,0.0,0.0,0.0,0.0,0.0,0.0,0.0,0.0,0.0,0.0,0.0,0.0,0.0,0.0,0.0,0.0,0.0,0.0,0.0,0.0,0.0,0.0,0.0,0.0,0.0,0.0,0.0,0.0,0.0,0.0,0.0,0.0,0.0,0.0,0.0,0.0,0.0,0.0,0.0,0.0,0.0,0.0,0.0,0.0,0.0,0.0,0.0,0.0,0.0,0.0,0.0,0.0,0.0,0.0,0.0,0.0,0.0,0.0,0.0,0.0,0.0,0.0,0.0,0.0,0.0,0.0,-0.1953,0.0,0.0,0.0,0.0,0.0,0.0,0.0,0.0,0.0,0.0,0.0,0.0,0.0,0.0,0.0,0.0,0.0,0.0,0.0,0.0,0.0,-0.7741,-0.7785,-0.7799,-0.7829,-0.7887,-0.7887,-0.7887,-0.7887,-0.7887,0.0,0.0,0.0,0.0,0.0,0.0,-0.8031,-0.785,-0.8063,-0.821,-0.8307,-0.7663,-0.721,-0.6791,-0.6586,0.0,0.0,0.0,0.0,0.0,0.0,0.0,0.0,0.0,0.0,0.0,0.0,0.0,0.0,0.0,0.0,0.0,0.0,0.0,0.0,0.0,0.0,0.0,0.0,0.0,0.0,0.0,0.0,0.0,0.0,0.0,0.0,0.0,0.0,0.0,0.0,0.0,0.0,0.0,0.0,0.0,0.0,0.0,0.0,0.0,0.0,0.0,0.0,0.0,0.0,0.0,0.0,0.0,0.0,0.0,0.0,0.0,0.0,0.0,0.0,0.0,0.0,0.0,0.0,0.0,-0.3095,-0.3117,-0.293,-0.2631,-0.2136,-0.1834,-0.1795,0.0,0.0,0.0,0.0,0.0,0.0,0.0,0.0,0.0,0.0,0.0,0.0,0.0,0.0,0.0,0.0,0.0,0.0,0.0,0.0,-0.7829,-0.8107,-0.8136,-0.8253,-0.8531,-0.856,-0.856,-0.856,-0.856,0.0,0.0,0.0,0.0,0.0,-0.8124,-0.7902,-0.8072,-0.7453,-0.7147,-0.7109,-0.7025,-0.7057,-0.7157,-0.7093,-0.6775,-0.6321,0.0,0.0,0.0,0.0,0.0,0.0,0.0,0.0,0.0,0.0,0.0,0.0,0.0,0.0,0.0,0.0,0.0,0.0,0.0,0.0,0.0,0.0,0.0,0.0,0.0,0.0,0.0,0.0,0.0,0.0,0.0,0.0,0.0,0.0,0.0,0.0,0.0,0.0,0.0,0.0,0.0,-0.5424,-0.489,0.0,0.0,0.0,0.0,0.0,0.0,0.0,0.0,0.0,0.0,0.0,0.0,0.0,0.0,-0.4093,-0.3999,-0.3953,-0.3873,-0.4377,-0.4289,-0.3696,-0.3495,-0.3117,-0.258,-0.2028,0.0,-0.1766,-0.1798,0.0,0.0,0.0,0.0,0.0,0.0,0.0,0.0,0.0,0.0,0.0,0.0,0.0,0.0,0.0,0.0,0.0,0.0,0.0,0.0,0.0,-0.8503,-0.8968,-0.957,-0.9818,-0.9835,-0.968,-0.9636,0.0,0.0,0.0,0.0,0.0,0.0,-0.8229,-0.8195,-0.7634,-0.7513,-0.7693,-0.7729,-0.7886,-0.8132,-0.8171,-0.7771,-0.6984,-0.6611,0.0,0.0,0.0,0.0,0.0,0.0,0.0,0.0,0.0,0.0,0.0,0.0,0.0,0.0,0.0,0.0,0.0,0.0,0.0,0.0,0.0,0.0,0.0,0.0,0.0,0.0,0.0,0.0,0.0,0.0,0.0,0.0,0.0,0.0,0.0,0.0,0.0,0.0,0.0,-0.5009,-0.4699,-0.4555,-0.5097,-0.5526,0.0,0.0,0.0,0.0,0.0,0.0,0.0,0.0,0.0,-0.4547,-0.5138,-0.5062,-0.4279,-0.4452,-0.4453,-0.4292,-0.4824,-0.4818,-0.4352,-0.4302,-0.399,-0.3535,-0.2965,-0.2571,-0.2363,-0.2009,-0.2011,-0.2039,0.0,0.0,0.0,0.0,0.0,0.0,0.0,0.0,0.0,0.0,0.0,0.0,0.0,0.0,0.0,0.0,0.0,0.0,-0.8889,-0.9272,-0.9937,-1.088,-1.0995,-1.0887,-1.0579,-1.0504,-1.0045,0.0,0.0,0.0,0.0,0.0,0.0,-0.8235,-0.7974,-0.8121,-0.8509,-0.8524,-0.8693,-0.8991,-0.9086,-0.8581,-0.7606,-0.7242,-0.6911,-0.6515,0.0,0.0,0.0,0.0,0.0,0.0,0.0,0.0,0.0,0.0,0.0,0.0,0.0,0.0,0.0,0.0,0.0,0.0,0.0,0.0,0.0,0.0,0.0,0.0,0.0,0.0,0.0,0.0,0.0,0.0,0.0,0.0,0.0,0.0,0.0,0.0,0.0,-0.4768,-0.4351,-0.4206,-0.4725,-0.5123,0.0,0.0,0.0,0.0,0.0,0.0,-0.5074,-0.5828,-0.5782,-0.4847,-0.5467,-0.5465,-0.4806,-0.5102,-0.5135,-0.4765,-0.5197,-0.5268,-0.494,-0.4822,-0.4588,-0.4236,-0.3531,-0.3178,-0.2811,-0.2401,-0.2172,-0.2191,-0.2367,-0.2457,0.0,-0.2296,-0.2215,-0.2127,0.0,0.0,0.0,0.0,0.0,0.0,0.0,0.0,0.0,0.0,0.0,-0.9693,-1.0654,-1.0763,-1.1199,-1.2488,-1.1761,-1.1136,-1.0868,-1.085,-1.0494,-0.9599,-0.957,0.0,0.0,0.0,0.0,-0.8116,-0.8249,-0.8542,-0.9,-0.8991,-0.9073,-0.9236,-0.9308,-0.8871,-0.8116,-0.8335,-0.7948,-0.7194,-0.6485,0.0,0.0,0.0,0.0,0.0,0.0,0.0,0.0,0.0,0.0,0.0,0.0,0.0,0.0,0.0,0.0,0.0,0.0,0.0,0.0,0.0,0.0,0.0,0.0,0.0,0.0,0.0,0.0,0.0,0.0,0.0,0.0,0.0,0.0,0.0,0.0,0.0,0.0,-0.3984,-0.4412,0.0,0.0,0.0,0.0,-0.6241,-0.6211,-0.5984,-0.5317,-0.5741,-0.5561,-0.4743,-0.5186,-0.5484,-0.5475,-0.5488,-0.5541,-0.551,-0.5541,-0.5553,-0.5526,-0.4705,-0.4353,-0.4236,-0.3296,-0.2943,-0.2934,-0.2836,-0.2901,-0.2994,-0.3007,-0.2969,-0.2863,-0.2653,-0.2574,-0.2504,0.0,0.0,0.0,-0.7712,-0.7712,-0.7712,-0.7712,-0.7887,-0.8077,-0.818,-0.9442,-1.0324,-1.0093,-1.1381,-1.2472,-1.295,-1.3244,-1.3297,-1.3056,-1.2508,-1.1734,-1.0675,-1.0092,0.0,0.0,0.0,-0.8729,-0.8453,-0.8667,-0.8846,-0.9,-0.9164,-0.9327,-0.95,-0.95,-0.9375,-0.9056,-0.8646,-0.8291,-0.7851,-0.7377,-0.681,0.0,0.0,0.0,0.0,0.0,0.0,0.0,0.0,0.0,0.0,0.0,0.0,0.0,0.0,0.0,0.0,0.0,0.0,0.0,0.0,0.0,0.0,0.0,0.0,0.0,0.0,0.0,0.0,0.0,0.0,0.0,0.0,0.0,0.0,0.0,0.0,0.0,-0.4498,-0.5045,0.0,0.0,-0.5103,-0.5432,-0.5796,-0.551,-0.5296,-0.4961,-0.555,-0.5698,-0.5214,-0.5557,-0.5655,-0.5594,-0.5594,-0.5639,-0.5733,-0.57,-0.5491,-0.509,-0.4848,-0.4364,-0.3762,-0.3398,-0.3156,-0.2911,-0.2998,-0.2949,-0.3005,-0.2744,-0.262,-0.2621,-0.2532,-0.2435,-0.2568,0.0,0.0,0.0,-0.7712,-0.7712,-0.7712,-0.7712,-0.799,-0.8401,-0.8889,-1.0053,-1.0898,-1.0954,-1.2263,-1.3337,-1.371,-1.4153,-1.4231,-1.3945,-1.3197,-1.2166,-1.0925,-1.0179,0.0,0.0,-0.9228,-0.9029,-0.9027,-0.9119,-0.9238,-0.9368,-0.946,-0.9552,-0.9711,-0.9711,-0.9711,-0.9692,-0.9252,-0.8848,-0.8635,-0.8143,-0.7503,-0.678,0.0,0.0,0.0,0.0,0.0,0.0,0.0,0.0,0.0,0.0,0.0,0.0,0.0,0.0,0.0,0.0,0.0,0.0,0.0,0.0,0.0,0.0,0.0,0.0,0.0,0.0,0.0,0.0,0.0,0.0,0.0,0.0,0.0,0.0,0.0,-0.5022,-0.4931,-0.5196,-0.5399,-0.5101,-0.5148,-0.5265,-0.5563,-0.532,-0.5174,-0.5115,-0.5502,-0.5712,-0.5557,-0.57,-0.5765,-0.5737,-0.5586,-0.563,-0.575,-0.5445,-0.51,-0.4681,-0.4558,-0.4069,-0.3455,-0.3332,-0.3209,-0.296,-0.296,-0.2925,-0.287,-0.2633,-0.2514,-0.2397,-0.2542,-0.256,-0.2699,0.0,0.0,-0.7712,-0.7712,-0.7712,-0.7712,-0.7726,-0.8004,-0.8771,-1.0219,-1.0664,-1.1586,-1.3417,-1.3439,-1.3867,-1.4957,-1.4273,-1.3755,-1.3545,-1.276,-1.1681,-1.0379,0.0,0.0,-0.9625,-0.9494,-0.9508,-0.9658,-0.9625,-0.9731,-1.0038,-0.9913,-0.9933,-1.0038,-1.0038,-1.0038,-1.0038,-1.0047,-0.9838,-0.9517,-0.8839,-0.8307,-0.7832,0.0,0.0,0.0,0.0,0.0,0.0,0.0,0.0,0.0,0.0,0.0,0.0,0.0,0.0,0.0,0.0,0.0,0.0,0.0,0.0,0.0,0.0,0.0,0.0,0.0,0.0,0.0,0.0,0.0,0.0,0.0,0.0,0.0,-0.5149,-0.5378,-0.5471,-0.5197,-0.4908,-0.4832,-0.492,-0.4928,-0.5178,-0.5757,-0.5786,-0.5786,-0.5786,-0.5786,-0.5745,-0.5655,-0.5737,-0.5827,-0.5916,-0.5464,-0.5384,-0.5545,-0.4651,-0.4258,-0.4321,-0.3704,-0.3458,-0.3458,-0.3086,-0.296,-0.296,-0.2962,-0.2962,-0.2962,-0.2962,-0.2837,-0.259,-0.2837,-0.3113,-0.316,-0.7785,-0.7712,-0.7712,-0.7712,-0.7712,-0.7799,-0.8034,-0.8341,-0.9111,-1.0579,-1.1811,-1.2779,-1.3489,-1.4485,-1.4894,-1.4443,-1.4381,-1.4196,-1.3807,-1.2882,-1.1718,-1.0302,0.0,0.0,-0.9946,-0.9715,-0.9711,-1.0125,-1.0152,-1.0181,-1.0202,-1.023,-1.0154,-1.0038,-1.0038,-1.0038,-1.0047,-1.0121,-1.0064,-0.9856,-0.9677,-0.9052,-0.8326,0.0,0.0,0.0,0.0,0.0,0.0,0.0,0.0,0.0,0.0,0.0,0.0,0.0,0.0,0.0,0.0,0.0,0.0,0.0,0.0,0.0,0.0,0.0,0.0,0.0,0.0,0.0,0.0,0.0,0.0,0.0,0.0,-0.5451,-0.5644,-0.5222,-0.5035,-0.5427,-0.5377,-0.5346,-0.5502,-0.5458,-0.5514,-0.5863,-0.588,-0.588,-0.588,-0.588,-0.5867,-0.5843,-0.5867,-0.577,-0.5544,-0.5208,-0.5001,-0.4791,-0.4299,-0.3807,-0.344,-0.3152,-0.3009,-0.2757,-0.2727,-0.2714,-0.2964,-0.2997,-0.3011,-0.3007,-0.2727,-0.2714,-0.2837,-0.296,-0.3341,-0.3735,-0.799,-0.7814,-0.7712,-0.7712,-0.7829,-0.799,-0.818,-0.859,-0.9504,-1.1167,-1.1966,-1.2775,-1.3791,-1.4653,-1.4912,-1.4392,-1.4387,-1.419,-1.3708,-1.2444,-1.1451,0.0,0.0,-1.0036,-1.0575,-1.0045,-0.9962,-1.026,-1.026,-1.0348,-1.0436,-1.0425,-1.0299,-1.0125,-1.0212,-1.0212,-1.0135,-1.026,-1.024,-1.0125,-1.0038,-0.947,-0.8751,-0.8861,-0.8453,-0.778,-0.778,-0.7727,-0.7619,-0.7327,0.0,0.0,0.0,0.0,0.0,0.0,0.0,0.0,0.0,0.0,0.0,0.0,0.0,0.0,0.0,0.0,0.0,0.0,0.0,0.0,0.0,0.0,0.0,0.0,-0.5335,-0.5457,-0.566,-0.5327,-0.5198,-0.5606,-0.5598,-0.5606,-0.5712,-0.5708,-0.5729,-0.5798,-0.5839,-0.5859,-0.5859,-0.5896,-0.5916,-0.5916,-0.5667,-0.544,-0.5222,-0.4614,-0.4261,-0.4161,-0.3665,-0.3175,-0.2811,-0.266,-0.2532,0.0,-0.2414,-0.2539,-0.2794,-0.2819,-0.2828,0.0,0.0,0.0,0.0,0.0,-0.352,-0.3907,-0.8268,-0.7975,-0.777,-0.777,-0.8004,-0.8224,-0.8297,-0.8809,-0.9877,-1.1838,-1.168,-1.2206,-1.4296,-1.45,-1.4501,-1.4605,-1.4364,-1.3917,-1.3204,-1.1703,0.0,-1.1467,-1.067,-1.0481,-1.1144,-1.0386,-1.0143,-1.0362,-1.0328,-1.0426,-1.0622,-1.0582,-1.0482,-1.0386,-1.0559,-1.0549,-1.0386,-1.0405,-1.0318,-1.0299,-1.0154,-0.9752,-0.9238,-0.9238,-0.8736,-0.812,-0.812,-0.8004,-0.7852,-0.7898,0.0,0.0,0.0,0.0,0.0,0.0,0.0,0.0,0.0,0.0,0.0,0.0,0.0,0.0,0.0,0.0,0.0,0.0,0.0,0.0,0.0,0.0,0.0,0.0,-0.4947,-0.497,-0.5602,-0.5569,-0.5545,-0.5647,-0.5651,-0.5647,-0.5659,-0.5725,-0.5737,-0.5663,-0.5745,-0.5798,-0.5798,0.0,0.0,0.0,0.0,-0.4957,-0.5028,-0.3981,-0.3489,-0.3539,-0.2874,-0.2506,-0.2415,-0.2161,-0.2177,-0.2595,-0.2233,-0.2379,-0.2775,-0.278,-0.2785,-0.2784,-0.3126,-0.3105,-0.3235,-0.3495,-0.3883,0.0,-0.8326,-0.8151,-0.8107,-0.8107,-0.8165,-0.8385,-0.8912,-0.9087,-0.995,-1.2145,-1.2289,-1.3108,-1.5293,-1.5327,-1.5079,-1.4891,-1.4308,-1.3344,-1.185,0.0,-1.1213,-1.0455,-1.0815,-1.0802,-1.0289,-1.0125,-1.0143,-1.0542,-1.0406,-1.0494,-1.089,-1.0757,-1.0646,-1.0646,-1.0646,-1.0646,-1.0656,-1.0838,-1.0632,-1.0309,-1.0406,-1.0231,-0.9838,-0.9838,-0.9752,-0.9564,-0.9564,-0.9377,-0.8977,-0.9064,-0.8738,-0.833,-0.8181,-0.768,0.0,0.0,0.0,0.0,0.0,0.0,0.0,0.0,0.0,0.0,0.0,0.0,0.0,0.0,0.0,0.0,0.0,0.0,0.0,-0.5317,-0.5346,-0.5488,-0.572,-0.561,-0.5569,-0.5733,-0.5688,-0.5671,-0.5749,-0.5704,-0.5692,-0.5749,-0.5839,-0.5892,-0.5892,-0.5908,0.0,-0.5916,-0.5298,-0.481,-0.458,-0.3873,-0.3289,-0.2826,0.0,0.0,-0.2261,-0.2128,-0.2265,-0.2538,-0.2546,-0.2816,-0.3488,-0.3528,-0.3842,-0.4139,-0.3727,-0.3544,-0.368,-0.3988,-0.4108,-0.4215,-0.878,-0.856,-0.8443,-0.8443,-0.8575,-0.8794,-0.9131,-0.9292,-0.9926,-1.1401,-1.1663,-1.2238,-1.3777,-1.3909,-1.3762,-1.3693,-1.305,-1.2189,0.0,-1.0985,-1.0806,-1.071,-1.1113,-1.1068,-1.0636,-1.0636,-1.0582,-1.0452,-1.0336,-1.0483,-1.096,-1.0919,-1.0818,-1.0818,-1.0994,-1.0906,-1.0818,-1.085,-1.0652,-1.0455,-1.0377,-1.0221,-1.0038,-1.0038,-0.9864,-0.9689,-0.9689,-0.934,-0.8973,-0.8966,-0.8931,-0.8708,-0.8438,-0.8159,-0.7691,0.0,0.0,0.0,0.0,0.0,0.0,0.0,0.0,0.0,0.0,0.0,0.0,0.0,0.0,-0.491,0.0,0.0,-0.5484,-0.5137,-0.549,-0.5771,-0.5631,-0.5643,-0.5659,-0.5708,-0.5671,-0.5643,-0.5643,-0.5684,-0.5712,-0.5712,-0.5798,-0.5847,-0.5847,-0.5892,-0.5794,-0.5421,-0.4803,-0.4312,-0.3948,-0.3128,-0.2658,-0.2552,-0.2349,-0.2258,-0.2155,-0.2155,-0.2441,-0.2748,-0.2475,-0.276,-0.3332,-0.3494,-0.394,-0.4518,-0.429,-0.4103,-0.408,-0.4384,-0.4376,-0.4362,-0.9307,-0.9043,-0.8853,-0.8794,-0.8999,-0.919,-0.9248,-0.9468,-0.9857,-1.0604,-1.0799,-1.1212,-1.2069,-1.2302,-1.2351,-1.2296,-1.1708,-1.1144,0.0,-1.0523,-1.0512,-1.1047,-1.1241,-1.1327,-1.1327,-1.1154,-1.0835,-1.0532,-1.0314,-1.051,-1.0935,-1.091,-1.101,-1.105,-1.123,-1.1199,-1.099,-1.0811,-1.0602,-1.0543,-1.0192,-0.9951,-0.9864,-0.9864,-0.9611,-0.9262,-0.9165,-0.8852,-0.8376,-0.8568,-0.8738,-0.8771,-0.8544,-0.8519,-0.8303,-0.761,-0.7524,0.0,0.0,0.0,0.0,0.0,0.0,0.0,0.0,0.0,-0.563,-0.5109,-0.5082,-0.5108,-0.4864,-0.5382,-0.5634,-0.4888,-0.5443,-0.5842,-0.5529,-0.5647,-0.5708,-0.5651,-0.5643,-0.5622,-0.5565,-0.5696,-0.5749,-0.5676,-0.5757,-0.5806,-0.5806,-0.5754,-0.5544,-0.5049,-0.4312,-0.3828,-0.347,-0.2633,-0.2277,-0.2546,-0.2354,-0.2267,-0.2299,-0.2176,-0.2345,-0.2674,-0.24,-0.256,-0.3014,-0.3301,-0.4018,-0.4591,-0.4591,-0.4419,-0.4377,-0.4377,-0.451,-0.451,-0.957,-0.9541,-0.9424,-0.916,-0.9146,-0.9263,-0.9526,-0.9599,-0.9857,-1.0604,-1.0703,-1.1099,-1.2163,-1.2337,-1.2202,-1.1962,-1.1423,0.0,-1.053,-1.0909,-1.0844,-1.0212,-1.0895,-1.1327,-1.1327,-1.0549,-1.0572,-1.1494,-1.0514,-1.0365,-1.0935,-1.0729,-1.091,-1.1273,-1.1273,-1.1162,-1.099,-1.099,-1.0691,-1.0328,-1.0309,-0.9951,-0.9349,-0.9349,-0.9349,-0.9262,-0.8815,-0.817,-0.7644,-0.8537,-0.8416,-0.8012,-0.8955,-0.8826,-0.8202,-0.7966,-0.7469,-0.6877,-0.6511,-0.6925,0.0,-0.7279,-0.7628,-0.7371,0.0,0.0,-0.4882,-0.3289,-0.3269,-0.354,-0.3768,-0.4376,-0.4918,-0.4874,-0.521,-0.5451,-0.5606,-0.5578,-0.5565,-0.5635,-0.5643,-0.5671,-0.5745,-0.5769,-0.5778,-0.5765,-0.5851,-0.59,-0.59,-0.5663,-0.5421,-0.5298,-0.4435,-0.3722,-0.352,-0.3152,-0.2813,-0.2624,-0.2533,-0.2572,-0.2609,-0.2391,-0.2279,-0.2429,-0.2745,-0.3052,-0.3494,-0.3928,-0.4216,-0.4654,-0.4361,-0.4211,-0.4206,-0.4206,-0.432,-0.4572,-0.9614,-0.9614,-0.957,-0.9453,-0.9424,-0.9468,-0.9599,-0.9614,-0.9655,-0.9909,-1.0007,-1.0163,-1.0437,-1.0741,-1.0931,-1.0989,-1.0754,0.0,-1.1254,-1.0799,-1.0636,-1.0722,-1.1068,-1.1327,-1.1327,-1.1488,-1.1532,-1.1467,-1.0937,-1.072,-1.0577,-1.0622,-1.082,-1.1121,-1.1121,-1.1071,-1.099,-1.0721,-1.0573,-1.0386,-0.9911,-0.9602,-0.9428,-0.8727,-0.8464,-0.8368,-0.8084,-0.755,0.0,-0.7541,-0.7519,-0.746,-0.8276,-0.8162,-0.7731,-0.7651,-0.7609,-0.7612,-0.8277,0.0,0.0,0.0,-0.8528,-0.8426,-0.6788,-0.6513,-0.6311,-0.4847,-0.4621,-0.4564,-0.4113,-0.4327,-0.4522,0.0,-0.4535,-0.4735,-0.4984,-0.5114,-0.5253,-0.5522,-0.5643,-0.5659,-0.5696,-0.5798,-0.5814,-0.5708,-0.5835,-0.5774,-0.5236,-0.5151,-0.4803,-0.4069,-0.3576,-0.3216,-0.2862,-0.266,-0.2454,-0.2638,-0.2448,-0.2362,-0.2394,-0.2422,-0.229,-0.2292,-0.2465,-0.2917,-0.35,-0.35,-0.3789,-0.4371,-0.3935,-0.3791,-0.3791,-0.3791,-0.3921,-0.4341,-0.9614,-0.9614,-0.9614,-0.9614,-0.9614,-0.9614,-0.9614,-0.9614,-0.9562,-0.9458,-0.9635,-0.964,-0.9443,-0.9641,-0.9923,-1.0094,0.0,0.0,0.0,-1.08,-1.06,-1.0885,-1.1402,-1.166,-1.166,-1.2334,-1.2504,-1.2089,-1.1585,-1.1107,-1.0622,-1.0632,-1.077,-1.098,-1.098,-1.095,-1.09,-1.0452,-1.0234,-1.0168,-0.9578,-0.9253,-0.899,-0.8113,-0.7709,-0.744,-0.741,-0.6986,-0.66,-0.6709,-0.6756,-0.681,-0.7309,-0.7326,-0.7197,-0.7199,-0.7326,-0.7793,-0.8899,0.0,0.0,-0.8766,-0.9244,-0.9252,-0.8052,-0.8012,-0.7782,-0.6557,-0.6074,-0.5537,-0.479,-0.4535,-0.4468,-0.4098,-0.4187,-0.4239,-0.4518,-0.4474,-0.4753,-0.5299,-0.5215,-0.5223,-0.5295,-0.5666,-0.5706,-0.5456,-0.5706,-0.5521,-0.4609,-0.4655,-0.4321,-0.3227,-0.3092,-0.2861,-0.2529,-0.2316,-0.2363,-0.2684,-0.2361,-0.227,-0.2433,-0.229,-0.229,-0.2292,-0.2312,-0.2762,-0.3354,-0.3063,-0.3352,-0.3935,-0.35,-0.3354,-0.3354,-0.3209,-0.35,-0.3935,-0.9614,-0.9614,-0.9614,-0.9614,-0.9614,-0.9614,-0.9614,-0.9614,-0.9614,-0.9614,-0.9892,-1.0028,-0.9878,-0.9783,-0.9742,0.0,0.0,0.0,0.0,-1.095,-1.1018,-1.0106,-1.1746,-1.2674,-1.2674,-1.2674,-1.3112,-1.3971,-1.2174,-1.1358,-1.1583,-1.088,-1.0729,-1.0925,-1.0925,-1.0817,-1.0631,-1.0362,-0.9892,-0.9358,-0.9349,-0.8736,-0.7848,-0.7848,-0.7397,-0.6715,-0.6709,-0.6519,-0.6274,-0.6281,-0.6084,-0.5922,-0.6363,-0.66,-0.6661,-0.6592,-0.6432,-0.6478,-0.7215,0.0,-0.8005,-0.8556,-0.9381,-0.9747,-0.8568,-0.8783,-0.8765,-0.7647,-0.663,-0.5979,-0.549,-0.4984,-0.4501,-0.4217,-0.4169,-0.419,-0.4242,-0.4105,-0.414,-0.4608,-0.4231,-0.4137,0.0,-0.5372,-0.5542,-0.4817,-0.5498,-0.5298,-0.394,-0.4189,-0.4097,-0.3525,-0.3231,-0.2919,-0.2551,-0.2653,-0.269,-0.2799,-0.2415,-0.2432,-0.2718,-0.2433,-0.229,-0.229,-0.2292,-0.2596,-0.2917,-0.2917,-0.3209,-0.35,-0.3063,-0.2917,-0.2917,-0.2478,-0.2771,-0.35,-0.9614,-0.9614,-0.9614,-0.9614,-0.9614,-0.9562,-0.9458,-0.9562,-0.9562,-0.9458,-0.9746,0.0,0.0,0.0,0.0,0.0,0.0,0.0,0.0,-1.1019,-1.1158,-1.1018,-1.2073,-1.2674,-1.2674,-1.3281,-1.3789,-1.4139,-1.3451,-1.2906,-1.229,-1.1619,-1.1412,-1.1388,-1.077,-1.0475,-1.0406,-1.0143,-0.9842,-0.9428,-0.9174,-0.864,-0.8002,-0.7525,-0.7035,-0.6647,0.0,-0.6037,-0.5969,-0.6071,-0.6037,-0.5996,-0.6254,-0.6369,-0.6448,-0.6388,-0.662,-0.6962,-0.7469,-0.8058,-0.8667,-0.8902,-0.9419,-0.9866,-0.9758,-0.978,-0.9579,-0.8778,-0.8091,-0.732,-0.6584,-0.533,-0.4354,-0.4211,-0.3556,-0.3176,-0.3403,-0.3309,-0.3561,-0.4131,-0.4004,0.0,0.0,0.0,0.0,-0.4041,-0.4373,-0.4171,-0.3282,-0.3344,-0.3124,-0.2488,-0.242,-0.2333,-0.2225,-0.2278,-0.2332,-0.2386,-0.2275,-0.2433,-0.2859,-0.2433,-0.2433,-0.2576,-0.2455,-0.247,-0.2917,-0.2624,-0.2771,-0.3063,-0.2624,-0.2478,-0.2478,-0.2624,-0.277,-0.2771,0.0,-0.9614,-0.9614,-0.9614,-0.9614,0.0,0.0,0.0,0.0,0.0,0.0,0.0,0.0,0.0,0.0,0.0,0.0,0.0,0.0,0.0,-1.1067,-1.1065,-1.2191,-1.2687,-1.227,-1.3266,-1.3682,-1.3682,-1.3641,-1.3156,-1.2242,-1.1838,-1.1499,-1.1154,-1.0549,-1.0289,-1.0299,-0.9864,-0.956,-0.9252,-0.8611,-0.8139,-0.7635,-0.7087,-0.6631,0.0,-0.5942,-0.5732,-0.5657,-0.5759,-0.5793,-0.5806,-0.5908,-0.601,-0.6208,-0.645,-0.6784,-0.7222,-0.7799,-0.8443,-0.8855,-0.9173,-0.951,-0.9993,-1.0333,-1.0433,-1.0288,-0.9752,-0.895,-0.809,-0.7315,-0.5592,-0.4501,-0.4808,-0.3844,-0.3259,-0.3417,-0.3422,-0.3429,-0.3574,-0.33,0.0,0.0,0.0,0.0,-0.3334,-0.3767,-0.3569,-0.2574,-0.2857,-0.2762,-0.2023,-0.2059,-0.2089,-0.2113,-0.217,-0.2221,-0.2262,-0.2292,-0.2438,-0.2556,-0.2428,-0.2433,-0.2576,-0.2454,-0.2468,-0.2624,-0.2478,-0.2478,-0.2624,-0.2333,-0.2333,-0.2333,-0.2041,-0.2187,-0.2478,0.0,0.0,-0.9614,0.0,0.0,0.0,0.0,0.0,0.0,0.0,0.0,0.0,0.0,0.0,0.0,0.0,0.0,0.0,0.0,0.0,0.0,-1.0289,-1.207,-1.2526,-1.1626,-1.2526,-1.298,-1.298,-1.2852,-1.2409,-1.1558,-1.1634,-1.1166,-1.0317,-1.023,-1.023,-1.0144,-0.9548,-0.9042,-0.8617,-0.7766,-0.7174,-0.6844,-0.6482,-0.6132,-0.58,-0.5786,-0.5665,-0.5425,-0.5425,-0.5446,-0.548,-0.5514,-0.572,-0.6023,-0.6749,-0.698,-0.7217,-0.8214,-0.8499,-0.8655,-0.9245,-0.9738,-1.008,-1.008,-1.0434,-1.0726,-1.0539,-0.932,-0.8201,0.0,0.0,-0.4724,-0.5691,-0.49,-0.4202,-0.4331,-0.3984,-0.3643,0.0,0.0,0.0,0.0,0.0,0.0,-0.2663,0.0,-0.3603,-0.2142,-0.2616,-0.2648,-0.2102,-0.2054,-0.2083,-0.2199,-0.2204,-0.2234,-0.229,-0.2318,-0.2301,-0.2247,-0.2277,-0.229,-0.229,-0.2292,-0.2308,-0.2333,-0.2333,-0.2333,-0.2333,-0.2333,-0.2187,-0.2041,-0.0583,-0.1166,-0.2478,0.0,0.0,0.0,0.0,0.0,0.0,0.0,0.0,0.0,0.0,0.0,0.0,0.0,0.0,0.0,0.0,0.0,0.0,0.0,0.0,0.0,0.0,0.0,0.0,0.0,0.0,0.0,-1.298,-1.2987,-1.2832,-1.2607,-1.1443,-1.0729,-1.0495,-0.9262,-0.8718,-0.8718,-0.8559,-0.8268,-0.7813,-0.7745,-0.7328,-0.6785,-0.6656,-0.6455,-0.6129,-0.596,-0.5755,-0.555,-0.5425,-0.5797,-0.6482,-0.7119,-0.7323,-0.7375,-0.7605,-0.7855,-0.8011,-0.8384,-0.873,-0.9076,-0.9456,-0.9578,-0.9724,-0.9961,-1.0108,-1.0112,-0.9928,-0.9211,-0.868,0.0,0.0,0.0,-0.5447,-0.4373,0.0,-0.2703,-0.2807,0.0,-0.233,0.0,-0.2105,-0.2244,-0.2362,0.0,0.0,-0.2503,-0.2388,-0.2018,-0.216,-0.2296,-0.2041,-0.2114,-0.2169,-0.22,-0.2266,-0.2439,-0.2718,-0.2441,-0.2566,-0.2947,-0.2561,-0.2433,-0.2719,-0.2457,-0.2326,-0.2333,-0.2333,-0.2333,-0.2333,-0.2333,-0.1604,-0.0583,-0.0437,0.0146,0.1164,0.0,0.0,0.0,0.0,0.0,0.0,0.0,0.0,0.0,0.0,0.0,0.0,0.0,0.0,0.0,0.0,0.0,0.0,0.0,0.0,0.0,0.0,0.0,0.0,0.0,0.0,-1.1957,-1.1957,-1.2305,-1.2287,-1.1846,-1.0985,-1.0346,-0.9906,-0.8713,-0.8187,-0.8187,-0.7949,-0.7769,0.0,0.0,-0.6993,-0.6648,-0.6462,-0.6233,-0.6134,-0.5955,-0.5887,-0.5958,-0.6099,-0.6451,-0.6866,-0.7454,-0.761,-0.771,-0.8076,-0.8172,-0.8357,-0.8764,-0.9062,-0.9327,-0.9625,-0.97,-0.9652,-0.9683,-0.9641,-0.9595,-0.9147,-0.8744,0.0,-0.8464,0.0,0.0,0.0,0.0,0.0,-0.2964,-0.3062,-0.2931,0.0,-0.2034,0.0,-0.2,-0.2259,-0.2273,0.0,-0.2152,-0.2157,-0.2057,-0.2049,-0.2054,-0.2078,-0.2132,-0.2185,-0.224,-0.2289,-0.2443,-0.2553,-0.2441,-0.2429,-0.2806,-0.2432,-0.2454,-0.2596,0.0,-0.2333,-0.2333,-0.2333,-0.2333,-0.2187,-0.1604,-0.0729,0.0146,0.131,0.2036,0.2621,0.0,0.0,0.0,0.0,0.0,0.0,0.0,0.0,0.0,0.0,-0.9505,0.0,0.0,0.0,0.0,0.0,0.0,0.0,0.0,0.0,0.0,0.0,0.0,0.0,0.0,0.0,0.0,-1.051,-1.1152,-1.1129,-1.0319,-1.0385,-0.9889,-0.9015,-0.8384,-0.8027,-0.7952,-0.7493,-0.7431,-0.7459,-0.663,-0.6395,-0.6557,0.0,-0.5954,-0.5954,-0.5954,-0.6132,-0.6392,-0.695,-0.7105,-0.7162,-0.7355,-0.7533,-0.7773,-0.8309,-0.846,-0.8506,-0.9191,-0.9381,-0.9449,-0.9747,-0.9822,-0.97,-0.9252,-0.915,-0.9008,-0.8499,0.0,-0.7997,-0.7957,-0.6261,-0.5185,-0.6313,0.0,-0.3965,-0.3776,-0.3883,-0.3387,-0.2193,-0.2039,-0.2011,-0.199,-0.203,-0.206,-0.2064,-0.2299,-0.231,-0.2106,-0.206,-0.2071,-0.2158,-0.2135,-0.2176,-0.229,-0.2288,-0.2274,-0.2252,-0.2303,-0.23,-0.2252,-0.2308,-0.2333,-0.2333,0.0,0.0,-0.2333,-0.2041,-0.2041,-0.1895,-0.0291,0.0437,0.1019,0.3639,0.3785,0.2912,0.0,0.0,0.0,0.0,0.0,0.0,0.0,0.0,0.0,0.0,-0.9466,-0.9365,0.0,0.0,0.0,0.0,0.0,0.0,0.0,0.0,0.0,0.0,0.0,0.0,0.0,0.0,0.0,-0.9833,-0.9999,-0.998,-0.9813,-0.9519,-0.8954,-0.8195,-0.7797,-0.727,-0.6738,-0.6603,-0.6619,-0.6643,-0.6479,-0.6396,-0.6412,-0.6324,0.0,0.0,-0.6218,-0.634,-0.6625,-0.695,-0.7474,-0.8203,-0.8729,-0.8967,-0.9119,-0.9226,-0.9043,-0.8906,-0.9279,-0.9381,-0.9449,-0.9747,-0.9822,-0.97,-0.9252,-0.915,0.0,0.0,-0.7889,-0.7773,-0.7529,-0.656,-0.5615,-0.5258,-0.4729,-0.3973,-0.2598,-0.3002,-0.3004,0.0,-0.2052,-0.2026,0.0,0.0,0.0,0.0,0.0,0.0,-0.2109,-0.2099,-0.2124,-0.2189,-0.2187,-0.2218,-0.229,-0.2266,-0.2403,-0.2708,-0.2436,-0.2435,-0.271,-0.2461,-0.2333,-0.2333,0.0,0.0,-0.2187,-0.0874,-0.0437,-0.0291,0.1311,0.2765,0.393,0.4511,0.4366,0.408,0.0,0.0,0.0,0.0,0.0,0.0,0.0,-1.0422,-1.0308,-1.002,-0.9771,-0.9591,-0.9672,-0.9756,-0.9868,0.0,0.0,0.0,0.0,0.0,0.0,0.0,0.0,0.0,0.0,0.0,0.0,0.0,0.0,-0.9686,-0.9686,-0.9098,-0.8489,-0.7886,-0.7326,-0.676,-0.614,-0.614,-0.6197,-0.6278,-0.6278,-0.6335,-0.6416,0.0,0.0,0.0,0.0,-0.641,-0.6731,-0.6662,-0.6946,-0.7298,-0.7795,-0.8094,-0.806,-0.7459,-0.7593,-0.7973,-0.8286,-0.7875,-0.7569,-0.8467,-0.8272,-0.788,-0.775,0.0,0.0,-0.7329,-0.7299,-0.7305,-0.717,-0.6484,-0.5611,-0.4797,-0.4303,-0.3477,-0.2288,-0.2356,0.0,-0.211,-0.2069,-0.2041,0.0,0.0,0.0,0.0,0.0,0.0,0.0,-0.2148,-0.2162,-0.2176,-0.2222,-0.2262,-0.229,-0.229,-0.229,-0.2576,-0.2305,-0.2448,-0.2576,-0.2319,-0.2333,-0.2333,0.0,0.0,-0.102,-0.0291,0.0437,0.1311,0.291,0.4075,0.4802,0.5531,0.5262,0.4562,0.0,0.0,0.0,0.0,0.0,0.0,0.0,-1.0741,-1.0566,-1.0331,-1.0214,-1.0096,-0.9932,-0.9924,-0.9969,0.0,0.0,0.0,0.0,0.0,0.0,0.0,0.0,0.0,0.0,0.0,0.0,0.0,0.0,0.0,0.0,0.0,0.0,0.0,-0.722,-0.6593,-0.6061,-0.5949,-0.5986,0.0,0.0,-0.6254,0.0,0.0,0.0,0.0,0.0,-0.6409,-0.6622,-0.6434,-0.6241,-0.5985,-0.6399,-0.6588,-0.6557,-0.5796,-0.6155,-0.6748,-0.693,-0.6412,-0.5979,-0.7011,-0.6803,-0.6403,-0.6395,-0.6537,-0.6719,-0.6714,-0.6797,-0.6793,-0.6623,-0.6179,-0.5489,-0.4392,-0.3763,-0.3118,-0.2083,-0.2187,-0.2254,0.0,-0.2082,0.0,-0.203,0.0,0.0,0.0,0.0,0.0,0.0,-0.2177,-0.2185,-0.2174,-0.2237,-0.2281,-0.23,-0.2309,-0.2309,-0.23,-0.2316,-0.2315,-0.2301,-0.2323,-0.2333,-0.2333,0.0,0.0,0.0,0.0728,0.1748,0.291,0.4511,0.5241,0.5386,0.6574,0.603,0.4749,0.0,0.0,0.0,0.0,0.0,0.0,0.0,-1.1472,-1.1348,-1.1037,-1.0975,-1.085,-1.0537,-1.0234,-1.0241,0.0,0.0,0.0,0.0,0.0,0.0,0.0,0.0,0.0,0.0,0.0,0.0,0.0,0.0,0.0,0.0,0.0,0.0,0.0,0.0,-0.7299,-0.6584,-0.6121,0.0,0.0,0.0,0.0,0.0,0.0,0.0,0.0,0.0,-0.6316,-0.6285,-0.6615,-0.5927,-0.4956,-0.5539,-0.5551,-0.5491,-0.6215,-0.5935,-0.5387,-0.5743,-0.5842,-0.5983,-0.6308,-0.657,-0.6635,-0.6708,-0.6642,-0.6719,-0.6714,-0.6709,-0.6466,-0.5794,-0.5593,-0.5041,-0.3394,-0.3375,-0.3161,-0.2031,-0.2239,-0.2436,-0.2104,0.0,0.0,-0.206,0.0,0.0,0.0,0.0,0.0,0.0,-0.2158,-0.2183,-0.2236,-0.2218,-0.2247,-0.2328,-0.2278,-0.2279,-0.2328,-0.2305,-0.2307,-0.2328,-0.2331,-0.2333,-0.2187,0.0,0.0,0.0,0.3057,0.4366,0.4657,0.6116,0.6845,0.6853,0.7084,0.5927,0.4607,0.0,0.0,0.0,0.0,0.0,0.0,-1.1622,-1.1622,-1.1498,-1.1122,-1.1122,-1.0996,-1.0631,-1.0448,-1.0497,-1.0667,0.0,0.0,0.0,0.0,0.0,0.0,0.0,0.0,0.0,0.0,0.0,-0.9339,-0.9339,0.0,0.0,0.0,0.0,0.0,0.0,-0.6454,-0.584,-0.562,0.0,0.0,0.0,0.0,0.0,0.0,0.0,0.0,0.0,0.0,-0.6176,-0.6249,-0.5578,-0.4838,-0.5396,-0.4961,-0.4262,-0.4321,-0.4755,-0.503,-0.4782,-0.4296,-0.4192,-0.5013,-0.4686,-0.4386,-0.525,-0.4922,-0.4768,-0.5496,-0.5364,-0.5007,-0.468,-0.4648,-0.4289,-0.3083,-0.3142,-0.2945,-0.1868,-0.1984,-0.209,-0.2045,-0.2029,0.0,0.0,0.0,0.0,0.0,0.0,0.0,0.0,0.0,-0.2221,-0.2245,-0.241,-0.2584,-0.2333,-0.2454,-0.2464,-0.236,-0.233,-0.2322,-0.2333,-0.2333,-0.175,0.0,0.0,0.0,0.0,0.4221,0.5241,0.6116,0.6696,0.699,0.7003,0.7092,0.5965,0.4812,0.0,0.0,0.0,0.0,0.0,-1.1622,-1.1622,-1.1622,-1.1498,-1.1122,-1.1122,-1.0996,-1.0631,-1.0618,-1.0618,-1.0618,-1.0618,0.0,0.0,0.0,0.0,0.0,0.0,0.0,0.0,0.0,-0.9382,-0.9382,-0.9149,-0.8759,0.0,0.0,0.0,-0.6612,0.0,0.0,0.0,0.0,0.0,0.0,0.0,0.0,0.0,0.0,0.0,0.0,0.0,0.0,0.0,0.0,0.0,-0.5147,-0.5497,-0.4994,-0.4014,-0.3374,-0.3772,-0.4395,-0.3671,-0.3102,-0.3029,-0.3921,-0.345,-0.2964,-0.4046,-0.3633,-0.3405,-0.4442,-0.4279,-0.385,-0.3611,-0.3643,-0.3405,-0.249,-0.2527,-0.2412,-0.176,-0.176,-0.1869,0.0,0.0,0.0,0.0,0.0,0.0,0.0,0.0,0.0,0.0,0.0,-0.2255,-0.2245,-0.2724,-0.2765,-0.2346,-0.2786,-0.2799,-0.2526,-0.2357,-0.2194,-0.1749,-0.1603,-0.0729,0.0,0.0,0.0,0.0,0.5241,0.5967,0.699,0.699,0.699,0.7003,0.6973,0.6301,0.5455,0.0,0.0,0.0,0.0,0.0,0.0,-1.1622,-1.1622,-1.1498,-1.1122,-1.1122,-1.0996,-1.0631,-1.0618,-1.0618,-1.0618,-1.0618,0.0,0.0,0.0,0.0,0.0,0.0,0.0,0.0,0.0,-0.861,-0.861,-0.7962,-0.7607,-0.7607,-0.7607,-0.7596,-0.7537,0.0,0.0,0.0,0.0,0.0,0.0,0.0,0.0,0.0,0.0,0.0,0.0,0.0,0.0,0.0,0.0,0.0,0.0,0.0,-0.5728,-0.5312,-0.4061,-0.3482,-0.3085,-0.2351,-0.2588,-0.3138,-0.3138,-0.3021,-0.317,-0.3569,-0.3361,-0.3235,-0.373,-0.383,-0.3522,-0.2666,-0.2559,-0.2292,-0.1427,-0.1399,-0.149,-0.1641,-0.1688,-0.175,0.0,0.0,0.0,0.0,0.0,0.0,0.0,0.0,0.0,0.0,0.0,-0.2277,-0.2247,-0.27,-0.2752,-0.2378,-0.2825,-0.2973,-0.2973,-0.2526,-0.177,-0.0582,-0.0146,0.0,0.0,0.0,0.0,0.0,0.6406,0.699,0.699,0.699,0.699,0.7011,0.6742,0.6653,0.6675,0.0,0.0,0.0,0.0,0.0,0.0,0.0,-1.1622,-1.1498,-1.1247,-1.1185,-1.0807,-1.0098,-0.9907,-0.9652,-0.9204,-1.0047,0.0,0.0,0.0,0.0,0.0,0.0,0.0,0.0,0.0,-0.852,-0.852,-0.8332,-0.7934,-0.7348,-0.7348,-0.7026,-0.6422,-0.6242,-0.6181,0.0,0.0,0.0,0.0,0.0,0.0,0.0,0.0,0.0,0.0,0.0,0.0,0.0,0.0,0.0,0.0,0.0,0.0,0.0,-0.3154,-0.3221,-0.3646,-0.3068,-0.2778,-0.2609,-0.2576,-0.2362,-0.2325,-0.3019,-0.2518,-0.1995,-0.2694,-0.2417,-0.1912,-0.1685,-0.1662,-0.1719,-0.1593,-0.1658,-0.1742,-0.1849,0.0,0.0,0.0,0.0,0.0,0.0,0.0,0.0,0.0,0.0,0.0,0.0,0.0,0.0,-0.2736,-0.2917,-0.3097,-0.3122,-0.327,-0.327,-0.327,-0.1913,-0.1023,-0.0582,0.0,0.0,0.0,0.0,0.0,0.0,0.6845,0.699,0.699,0.699,0.699,0.7011,0.7045,0.6808,0.6675,0.0,0.0,0.0,0.0,0.0,0.0,0.0,-1.1622,-1.1435,-1.0856,-1.073,-1.0351,-0.9384,-0.9192,-0.8935,-0.8549,-0.9332,0.0,0.0,0.0,0.0,0.0,0.0,0.0,0.0,-0.8226,-0.8096,-0.8096,-0.7847,-0.7455,-0.6876,-0.6876,-0.6624,-0.6091,-0.6091,-0.6091,0.0,0.0,0.0,0.0,0.0,0.0,-0.6416,0.0,0.0,0.0,0.0,0.0,0.0,0.0,0.0,0.0,0.0,0.0,0.0,0.0,-0.3183,-0.3371,-0.2812,-0.2472,-0.2325,-0.2387,-0.2093,-0.1902,-0.2445,-0.1846,-0.1316,-0.1844,-0.1573,-0.1215,-0.1227,-0.1269,-0.1393,-0.1675,-0.1745,-0.1835,0.0,0.0,0.0,0.0,0.0,0.0,0.0,0.0,0.0,0.0,0.0,0.0,0.0,0.0,0.0,-0.2023,-0.2771,-0.3239,-0.3567,-0.2972,-0.2675,-0.2675,-0.0442,0.0731,0.1164,0.0,0.0,0.0,0.0,0.0,0.0,0.699,0.699,0.699,0.6845,0.6845,0.6869,0.7045,0.6958,0.6831,0.0,0.0,0.0,0.0,0.0,0.0,0.0,-1.156,-1.117,-1.0148,-1.0021,-0.9576,-0.8549,-0.842,-0.842,-0.8355,0.0,0.0,0.0,0.0,0.0,0.0,0.0,0.0,0.0,-0.7717,-0.7391,-0.7391,-0.6745,-0.6416,-0.6416,-0.6416,-0.6416,-0.6416,-0.6416,-0.6416,0.0,0.0,0.0,0.0,0.0,-0.6416,0.0,0.0,0.0,0.0,0.0,0.0,0.0,0.0,0.0,0.0,0.0,0.0,0.0,0.0,0.0,0.0,0.0,-0.1942,-0.2213,-0.221,-0.1942,-0.1692,-0.1769,-0.1452,0.0,-0.12,-0.1209,-0.122,-0.1327,-0.136,-0.1475,-0.1675,-0.1832,-0.1859,0.0,-0.2012,0.0,0.0,0.0,0.0,0.0,0.0,0.0,0.0,0.0,0.0,0.0,0.0,0.0,0.0,-0.2283,-0.318,-0.3113,-0.1779,-0.1038,-0.1037,0.1334,0.2944,0.4073,0.0,0.0,0.0,0.0,0.0,0.0,0.699,0.699,0.699,0.6559,0.6413,0.6432,0.6742,0.6804,0.6982,0.0,0.0,0.0,0.0,0.0,0.0,0.0,0.0,0.0,0.0,-1.0021,-0.932,-0.8032,-0.7782,-0.7521,0.0,0.0,0.0,0.0,0.0,0.0,0.0,0.0,0.0,0.0,-0.6745,-0.6679,-0.6679,-0.6482,-0.6416,-0.6416,-0.6416,-0.6416,-0.6416,-0.6416,-0.6416,0.0,0.0,0.0,0.0,-0.6416,-0.6416,0.0,0.0,0.0,0.0,-0.5617,-0.5411,0.0,0.0,0.0,0.0,0.0,0.0,0.0,0.0,-0.1968,-0.1776,-0.1683,0.0,-0.1454,-0.1426,-0.1327,-0.123,0.0,-0.1201,-0.1133,-0.1141,-0.1253,-0.1442,-0.145,-0.166,-0.1883,-0.2179,-0.2181,-0.2128,-0.221,0.0,0.0,0.0,0.0,0.0,0.0,0.0,0.0,0.0,0.0,0.0,0.0,0.0,0.0,0.0,0.0565,0.0283,-0.0,0.0587,0.0885,0.073,0.2776,0.3794,0.0,0.0,0.0,0.0,0.0,0.0,0.0,0.699,0.6845,0.6559,0.7135,0.7135,0.7011,0.7787,0.7858,0.7738,0.0,0.0,0.0,0.0,0.0,0.0,0.0,0.0,0.0,0.0,0.0,-0.8742,0.0,0.0,0.0,0.0,0.0,0.0,0.0,0.0,0.0,0.0,0.0,0.0,-0.6416,-0.6416,-0.6416,-0.6416,-0.6416,-0.6416,-0.6416,-0.6416,-0.6416,-0.6416,-0.6416,-0.6416,0.0,0.0,0.0,-0.6416,-0.6416,0.0,0.0,0.0,0.0,0.0,-0.4616,-0.4411,0.0,-0.3084,-0.3021,-0.3155,0.0,0.0,0.0,0.0,-0.1817,-0.1749,-0.1749,-0.1581,-0.1401,-0.1311,-0.1306,-0.1301,-0.1349,-0.1373,-0.1406,-0.1353,-0.1547,-0.1601,-0.1561,-0.1694,-0.1912,0.0,-0.2196,0.0,0.0,0.0,0.0,0.0,0.0,0.0,0.0,0.0,0.0,0.0,0.0,0.0,0.0,0.0,0.0,0.0,0.0,0.2279,0.0997,0.2182,0.2781,0.2616,0.4509,0.5383,0.0,0.0,0.0,0.0,0.0,0.0,0.699,0.699,0.699,0.699,0.7276,0.7276,0.7447,0.8234,0.8309,0.8342,0.0,0.0,0.0,0.0,0.0,0.0,0.0,0.0,0.0,0.0,0.0,0.0,0.0,0.0,0.0,0.0,0.0,0.0,0.0,0.0,0.0,0.0,0.0,0.0,-0.6416,-0.6416,-0.6416,-0.6416,-0.6416,-0.6416,-0.6416,-0.6416,-0.6416,-0.6416,-0.6416,-0.6416,0.0,0.0,-0.6218,-0.6218,-0.6152,0.0,0.0,0.0,0.0,0.0,0.0,0.0,0.0,-0.2421,-0.222,-0.222,-0.222,0.0,0.0,0.0,0.0,0.0,-0.1951,-0.184,-0.1716,-0.1621,-0.1615,-0.1615,-0.1623,-0.166,-0.1705,-0.1679,-0.1797,-0.1854,-0.1696,-0.1741,0.0,0.0,0.0,0.0,0.0,0.0,0.0,0.0,0.0,0.0,0.0,0.0,0.0,0.0,0.0,0.0,0.0,0.0,0.0,0.0,0.0,0.0,0.1852,0.3612,0.4509,0.4509,0.6261,0.6998,0.7011,0.0,0.0,0.0,0.0,0.0,0.7135,0.7135,0.7276,0.7566,0.7276,0.7421,0.7733,0.8383,0.861,0.8794,0.0,0.0,0.0,0.0,0.0,0.0,0.0,0.0,0.0,0.0,0.0,0.0,0.0,0.0,0.0,0.0,0.0,0.0,0.0,0.0,0.0,0.0,0.0,0.0,0.0,-0.6416,-0.6416,-0.6416,-0.6416,-0.6416,-0.6416,-0.6416,-0.6416,-0.6416,-0.6416,-0.6416,-0.635,-0.5815,-0.5543,-0.5477,-0.4882,0.0,0.0,0.0,0.0,0.0,0.0,0.0,0.0,-0.2421,-0.222,-0.222,-0.222,0.0,0.0,0.0,0.0,0.0,-0.2153,-0.2228,-0.2256,-0.1721,-0.1615,-0.1623,-0.1662,-0.1707,-0.1679,-0.1799,-0.1995,-0.2046,-0.1859,-0.2235,-0.2557,0.0,0.0,0.0,0.0,0.0,0.0,0.0,0.0,0.0,0.0,0.0,0.0,0.0,0.0,0.0,0.0,0.0,0.0,0.0,0.0,0.0,0.0,0.6361,0.6551,0.6551,0.6841,0.7031,0.7105,0.7027,0.0,0.0,0.0,0.0,0.7566,0.7566,0.7566,0.7711,0.815,0.829,0.8169,0.9133,0.9521,0.9553,0.0,0.0,0.0,0.0,0.0,0.0,0.0,0.0,0.0,0.0,0.0,0.0,0.0,0.0,0.0,0.0,0.0,0.0,0.0,0.0,0.0,0.0,0.0,0.0,0.0,0.0,-0.6367,-0.627,-0.6367,-0.6416,-0.6416,-0.6416,-0.6367,-0.6278,-0.5975,-0.5881,-0.5815,-0.508,-0.4815,-0.4749,0.0,0.0,0.0,0.0,0.0,0.0,0.0,0.0,0.0,0.0,-0.222,-0.222,-0.222,0.0,0.0,0.0,0.0,0.0,-0.222,-0.2234,-0.2322,-0.2122,-0.2193,-0.2196,-0.2088,-0.2198,-0.2287,-0.2093,-0.2311,-0.2272,-0.1326,0.0,-0.1029,-0.0104,0.0,0.0,0.0,0.0,0.0,0.0,0.0,0.0,0.0,0.0,0.0,0.0,0.0,0.0,0.0,0.0,0.0,0.0,0.0,0.0,0.0,0.697,0.699,0.699,0.699,0.7011,0.7052,0.7007,0.7302,0.0,0.0,0.8052,0.844,0.8348,0.8338,0.8579,0.8584,0.8724,0.8894,0.943,0.9709,0.9786,0.0,0.0,0.0,0.0,0.0,0.0,0.0,0.0,0.0,0.0,0.0,0.0,0.0,0.0,0.0,0.0,0.0,0.0,0.0,0.0,0.0,0.0,0.0,0.0,0.0,0.0,-0.6327,-0.6211,-0.6327,-0.64,-0.6359,-0.6195,-0.6059,-0.5895,-0.5408,-0.5147,-0.508,-0.435,-0.4018,-0.4018,0.0,0.0,0.0,0.0,0.0,0.0,0.0,0.0,0.0,0.0,0.0,0.0,0.0,0.0,0.0,-0.222,-0.222,-0.222,-0.222,-0.2262,-0.2283,-0.2482,-0.2594,-0.2613,-0.2588,-0.2693,-0.2573,-0.2014,-0.2071,-0.1918,-0.0703,-0.0372,0.0,0.1386,0.0,0.0,0.0,0.0,0.0,0.0,0.0,0.0,0.0,0.0,0.0,0.0,0.0,0.0,0.0,0.0,0.0,0.0,0.0,0.0,0.0,0.699,0.699,0.699,0.699,0.7144,0.731,0.731,0.776,0.8509,0.8573,0.8993,0.9351,0.9118,0.9092,0.9307,0.9018,0.9034,0.9372,0.959,0.9742,0.9856,0.0,0.0,0.0,0.0,0.0,0.0,0.0,0.0,0.0,0.0,0.0,0.0,0.0,0.0,0.0,0.0,0.0,0.0,0.0,0.0,0.0,0.0,0.0,0.0,0.0,-0.6327,-0.6327,-0.6211,-0.6327,-0.6335,-0.6227,-0.5676,-0.5401,-0.5135,-0.4629,-0.4356,-0.435,-0.3618,-0.3284,-0.3218,-0.2622,0.0,0.0,0.0,0.0,0.0,0.0,0.0,0.0,0.0,0.0,0.0,0.0,0.0,-0.222,-0.222,-0.222,-0.222,-0.222,-0.2316,-0.2501,-0.2575,-0.2439,-0.2401,-0.285,-0.2598,-0.2047,-0.1052,-0.0592,-0.0497,-0.0292,-0.0305,-0.0319,-0.0328,0.0,0.0,0.0,0.0,0.0,0.0,0.0,0.0,0.0,0.0,0.0,0.0,0.0,0.0,0.0,0.0,0.0,0.0,0.0,0.0,0.0,0.0,0.699,0.699,0.699,0.7469,0.8141,0.8288,0.8785,0.9622,0.953,0.9481,0.9465,0.9362,0.9313,0.9302,0.9307,0.9372,0.9492,0.9622,0.9742,0.9856,0.0,0.0,0.0,0.0,0.0,0.0,0.0,0.0,0.0,0.0,0.0,0.0,0.0,0.0,0.0,0.0,0.0,0.0,0.0,0.0,0.0,0.0,0.0,-0.6335,-0.6211,-0.6277,-0.6164,-0.5986,-0.6278,-0.627,-0.5994,-0.5625,-0.5216,-0.4875,-0.4001,-0.3618,-0.3551,-0.2887,-0.2552,-0.2552,-0.2287,-0.222,0.0,0.0,0.0,0.0,0.0,0.0,0.0,0.0,-0.222,-0.222,-0.222,-0.222,-0.222,-0.222,-0.222,-0.222,-0.222,-0.1819,-0.1576,-0.2425,-0.2023,-0.1425,-0.1543,-0.1474,-0.1377,-0.1023,-0.0106,0.0749,0.0736,0.0,0.3072,0.0,0.0,0.0,0.0,0.0,0.0,0.0,0.0,0.0,0.0,0.0,0.0,0.0,0.0,0.0,0.0,0.0,0.0,0.0,0.0,0.0,0.0,0.0,0.699,0.699,0.7628,0.797,0.845,0.8963,0.9617,1.041,1.0059,1.0293,1.051,1.0023,0.9809,0.959,0.9446,0.9334,0.9389,0.9508,0.9633,0.9748,0.0,0.0,0.0,0.0,0.0,0.0,0.0,0.0,0.0,0.0,0.0,0.0,0.0,0.0,0.0,0.0,0.0,0.0,0.0,0.0,0.0,0.0,0.0,-0.6335,-0.6211,-0.6154,-0.6096,-0.5969,-0.6213,-0.6117,-0.5586,-0.5162,-0.4696,-0.418,-0.3266,-0.2883,-0.2887,-0.2421,-0.222,-0.222,-0.222,-0.222,0.0,0.0,0.0,0.0,0.0,0.0,0.0,0.0,-0.222,-0.222,-0.222,-0.222,-0.222,-0.222,-0.2153,-0.2085,-0.1817,-0.1428,-0.1152,-0.1539,-0.126,-0.0714,0.0409,-0.0104,-0.0524,0.011,0.1009,0.1813,0.2138,0.0,0.0,0.0,0.0,0.0,0.0,0.0,0.0,0.0,0.0,0.0,0.0,0.0,0.0,0.0,0.0,0.0,0.0,0.0,0.0,0.0,0.0,0.0,0.0,0.0,0.7148,0.7469,0.8269,0.8745,0.875,0.9606,1.041,1.1014,1.0859,1.0779,1.0951,1.0322,0.996,0.9735,0.9446,0.9302,0.9318,0.9443,0.9563,0.9688,0.0,0.0,0.0,0.0,0.0,0.0,0.0,0.0,0.0,0.0,0.0,0.0,0.0,0.0,0.0,0.0,0.0,0.0,-0.6416,-0.6416,-0.6416,0.0,0.0,-0.6335,-0.6211,-0.5977,-0.5977,-0.6203,-0.6203,-0.5802,-0.4965,-0.4296,-0.36,-0.2899,-0.2425,-0.222,-0.222,-0.222,-0.222,-0.222,-0.222,-0.222,-0.222,0.0,0.0,0.0,0.0,0.0,0.0,0.0,-0.222,-0.222,-0.222,-0.222,-0.222,-0.222,-0.2085,-0.1749,-0.1008,-0.1375,-0.1522,0.0163,-0.0168,-0.0177,0.2529,0.1382,0.032,0.2949,0.3089,0.2833,0.3597,0.3291,0.0,0.0,0.0,0.0,0.0,0.0,0.0,0.0,0.0,0.0,0.0,0.0,0.0,0.0,0.0,0.0,0.0,0.0,0.0,0.0,0.0,0.0,0.0,0.0,0.7469,0.845,0.9192,0.9487,0.9492,1.0506,1.1164,1.1463,1.1463,1.0934,1.0064,0.9931,0.959,0.9302,0.9302,0.9302,0.9318,0.9438,0.9563,0.9682,0.0,0.0,0.0,0.0,0.0,0.0,0.0,0.0,0.0,0.0,0.0,0.0,0.0,0.0,0.0,0.0,0.0,0.0,-0.6416,-0.6416,-0.6416,-0.6416,-0.6416,0.0,-0.6335,-0.5826,-0.5395,-0.5166,-0.5282,-0.4952,-0.4241,-0.3614,-0.3202,-0.2927,-0.2447,-0.222,-0.222,-0.222,-0.222,-0.222,-0.222,-0.222,-0.222,0.0,0.0,0.0,0.0,0.0,0.0,0.0,0.0,0.0,-0.222,-0.222,-0.222,-0.222,-0.2153,-0.2085,-0.1817,-0.0763,0.0,-0.0248,0.0,0.0,0.2702,0.2186,0.214,0.4212,0.374,0.3066,0.3738,0.0,0.0,0.0,0.0,0.0,0.0,0.0,0.0,0.0,0.0,0.0,0.0,0.0,0.0,0.0,0.0,0.0,0.0,0.0,0.0,0.0,0.0,0.0,0.0,0.0,0.0,0.8188,0.9584,1.0464,1.0637,1.1441,1.1769,1.1611,1.1208,1.0643,1.0064,0.9641,0.9446,0.9302,0.9018,0.8874,0.8874,0.891,0.8998,0.926,0.0,0.0,0.0,0.0,0.0,0.0,0.0,0.0,0.0,0.0,-0.6482,-0.6416,0.0,0.0,0.0,0.0,0.0,0.0,-0.6416,-0.6416,-0.6416,-0.6416,-0.6152,-0.5851,-0.5459,-0.5062,-0.4589,-0.3994,-0.443,-0.425,-0.3571,-0.3257,-0.2898,-0.2645,-0.2324,-0.222,-0.222,-0.222,-0.222,-0.222,-0.222,-0.2206,-0.2183,0.0,0.0,0.0,0.0,0.0,0.0,0.0,0.0,0.0,-0.2183,-0.22,-0.2153,-0.1749,-0.1615,-0.1358,-0.0708,0.032,0.0,0.118,0.1794,0.251,0.3047,0.0,0.0,0.0,0.4585,0.4049,0.4749,0.0,0.0,0.0,0.0,0.0,0.0,0.0,0.0,0.0,0.0,0.0,0.0,0.0,0.0,0.0,0.0,0.0,0.0,0.0,0.0,0.0,0.0,0.0,0.0,0.0,0.0,0.0,1.0181,1.0953,1.1517,1.1921,1.1743,1.1283,1.0637,1.0069,0.9703,0.9479,0.9163,0.9013,0.8729,0.8584,0.844,0.8584,0.8654,0.8765,0.0,0.0,0.0,0.0,0.0,0.0,0.0,0.0,0.0,-0.6679,-0.6482,-0.6416,0.0,0.0,0.0,-0.6416,-0.6416,-0.6416,-0.6416,-0.635,-0.6284,-0.6284,-0.5683,-0.4885,-0.4057,-0.3988,-0.3624,-0.2915,-0.3605,-0.3585,-0.3027,-0.2963,-0.2645,-0.2138,-0.2197,-0.222,-0.222,-0.222,-0.222,-0.222,-0.222,-0.2186,-0.2135,-0.2135,0.0,0.0,0.0,0.0,0.0,0.0,0.0,0.0,-0.2127,-0.2172,-0.2018,-0.121,-0.0743,-0.0208,0.1377,0.1474,0.0,0.3597,0.3211,0.0,0.3672,0.469,0.556,0.5823,0.0,0.0,0.0,0.0,0.0,0.0,0.0,0.0,0.0,0.0,0.0,0.0,0.0,0.0,0.0,0.0,0.0,0.0,0.0,0.0,0.0,0.0,0.0,0.0,0.0,0.0,0.0,0.0,0.0,0.0,0.0,1.1237,1.2244,1.1671,1.1307,1.0834,0.9697,0.9302,0.9302,0.9163,0.9013,0.8584,0.8584,0.844,0.815,0.844,0.8499,0.8302,0.0,0.0,0.0,0.0,0.0,0.0,0.0,0.0,-0.6482,-0.6482,-0.6416,-0.6416,-0.6416,-0.6416,0.0,-0.6416,-0.6416,-0.6416,-0.6416,-0.5881,-0.5609,-0.5609,-0.4948,-0.4472,-0.4246,-0.3652,-0.3309,-0.316,-0.3164,-0.2829,-0.232,-0.232,-0.2283,-0.2203,-0.2214,-0.222,-0.222,-0.222,-0.222,-0.222,-0.222,-0.2214,-0.22,-0.22,-0.2192,0.0,0.0,0.0,0.0,0.0,0.0,0.0,-0.2127,-0.2172,-0.2153,-0.1951,-0.1478,-0.0895,0.0,0.1225,0.0,0.0,0.3329,0.3648,0.4136,0.457,0.5023,0.0,0.0,0.0,0.0,0.0,0.0,0.0,0.0,0.0,0.0,0.0,0.0,0.0,0.0,0.0,0.0,0.0,0.0,0.0,0.0,0.0,0.0,0.0,0.0,0.0,0.0,0.0,0.0,0.0,0.0,0.0,1.1192,1.157,1.1488,1.1424,1.1101,1.0252,0.9222,0.8874,0.8874,0.844,0.8295,0.815,0.8,0.7711,0.7711,0.7856,0.7869,0.7756,0.0,0.0,0.0,0.0,0.0,0.0,0.0,0.0,-0.6416,-0.6416,-0.6416,-0.6416,-0.6416,-0.6416,0.0,0.0,-0.6416,-0.6416,-0.6416,-0.6079,-0.555,-0.4882,-0.4483,-0.3956,-0.3288,-0.2887,-0.2753,-0.2753,-0.2608,-0.2397,-0.2172,-0.2172,-0.2189,-0.222,-0.222,-0.222,-0.222,-0.222,-0.222,-0.222,-0.222,-0.2203,-0.2178,-0.2178,-0.2158,-0.2133,-0.2133,0.0,0.0,0.0,0.0,0.0,0.0,0.0,-0.2085,-0.1682,-0.1248,-0.0734,0.0,0.0,0.0,0.2886,0.0,0.4119,0.4257,0.4447,0.0,0.0,0.0,0.0,0.0,0.0,0.0,0.0,0.0,0.0,0.0,0.0,0.0,0.0,0.0,0.0,0.0,0.0,0.0,0.0,0.0,0.0,0.0,0.0,0.0,0.0,0.0,0.0,0.9879,1.0455,1.0599,1.0455,1.0888,1.0657,1.0216,1.0583,1.0252,0.9394,0.8899,0.8584,0.844,0.815,0.8005,0.786,0.7711,0.7421,0.7276,0.7566,0.7421,0.7434,0.0,0.0,0.0,0.0,0.0,0.0,0.0,0.0,0.0,-0.6416,-0.6416,-0.6416,-0.6416,-0.6392,-0.6375,0.0,0.0,0.0,-0.6171,-0.5997,-0.5286,-0.4018,-0.3956,-0.3422,-0.2223,-0.222,-0.222,-0.222,-0.222,-0.222,-0.222,-0.222,-0.222,-0.222,-0.222,-0.222,-0.222,-0.222,-0.222,-0.222,-0.222,-0.2189,-0.2144,-0.2144,-0.211,-0.2065,-0.2065,-0.1997,-0.1981,-0.1929,0.0,0.0,0.0,0.0,-0.2018,-0.1277,-0.0951,0.0,0.0,0.0,0.2451,0.3124,0.3812,0.0,0.4282,0.4324,0.0,0.0,0.0,0.0,0.0,0.0,0.0,0.0,0.0,0.0,0.0,0.0,0.0,0.0,0.0,0.0,0.0,0.0,0.0,0.0,0.0,0.0,0.0,0.0,0.0,0.0,0.0,0.0,1.0455,1.0606,1.0606,1.0311,0.9989,0.9449,0.8861,0.9454,0.94,0.8584,0.8584,0.8295,0.8005,0.8005,0.7715,0.7566,0.7566,0.7276,0.699,0.7421,0.7276,0.7003,0.0,0.0,0.0,0.0,0.0,0.0,0.0,0.0,0.0,0.0,-0.6416,-0.6416,-0.6416,-0.6415,-0.6379,-0.6244,-0.6166,-0.5894,-0.5346,0.0,0.0,-0.2488,-0.2488,-0.2421,-0.222,-0.222,-0.222,-0.222,-0.222,-0.222,0.0,0.0,-0.222,-0.222,-0.222,-0.222,-0.222,-0.222,-0.222,-0.222,-0.222,-0.2217,-0.2209,-0.2209,-0.2203,-0.2197,-0.2197,-0.2161,-0.2113,-0.2105,-0.2113,0.0,0.0,0.0,-0.2153,-0.2018,-0.1626,0.0,0.0,0.0,0.2868,0.0,0.3815,0.3932,0.0,0.0,0.0,0.0,0.0,0.0,0.0,0.0,0.0,0.0,0.0,0.0,0.0,0.0,0.0,0.0,0.0,0.0,0.0,0.0,0.0,0.0,0.0,0.0,0.0,0.0,0.0,0.0,0.0,0.0,1.0023,1.0023,0.9879,0.9446,0.9034,0.8894,0.8749,0.8459,0.8309,0.815,0.7856,0.7711,0.7711,0.728,0.7135,0.7135,0.7135,0.699,0.699,0.699,0.699,0.699,0.0,0.0,0.0,0.0,0.0,0.0,0.0,0.0,0.0,0.0,0.0,-0.6679,-0.6548,-0.6538,-0.6446,-0.6219,-0.6013,-0.5585,-0.4882,-0.4119,-0.3384,-0.2691,-0.2628,-0.252,-0.2169,-0.2169,-0.2186,-0.222,-0.222,-0.222,0.0,-0.2186,-0.2186,0.0,-0.222,-0.222,-0.222,-0.222,-0.222,-0.222,-0.222,-0.2443,-0.2848,-0.2342,-0.2446,-0.2845,-0.2339,-0.2203,-0.2175,-0.2138,-0.215,-0.2175,-0.2138,0.0,0.0,0.0,0.0,0.0,-0.0082,0.1324,0.2662,0.0,0.3672,0.3899,0.0,0.0,0.0,0.0,0.0,0.0,0.0,0.0,0.0,0.0,0.0,0.0,0.0,0.0,0.0,0.0,0.0,0.0,0.0,0.0,0.0,0.0,0.0,0.0,0.0,0.7679,0.8435,0.959,0.9879,0.0,0.9879,0.9735,0.9157,0.829,0.8,0.7715,0.7715,0.757,0.757,0.786,0.7711,0.7421,0.7276,0.7135,0.699,0.699,0.699,0.699,0.699,0.699,0.699,0.699,0.0,0.0,0.0,0.0,0.0,0.0,0.0,0.0,0.0,0.0,0.0,-0.6876,-0.6745,0.0,0.0,0.0,-0.5996,-0.5463,-0.4556,-0.4096,-0.3564,-0.3013,-0.2895,-0.2613,-0.2165,-0.2105,-0.2135,-0.2197,-0.218,0.0,-0.2197,-0.2116,-0.2105,0.0,-0.2183,-0.2197,-0.2197,-0.2214,-0.222,-0.2225,-0.2429,-0.2865,-0.3341,-0.2724,-0.2852,-0.3322,-0.2479,-0.2195,-0.2211,-0.215,-0.2169,-0.2214,-0.2166,-0.2183,0.0,0.0,0.0,0.0,0.0,0.0,0.1907,0.2758,0.3344,0.3798,0.0,0.0,0.0,0.0,0.0,0.0,0.0,0.0,0.0,0.0,0.0,0.0,0.0,0.0,0.0,0.0,0.0,0.0,0.0,0.0,0.0,0.0,0.0,0.0,0.0,0.7773,0.8549,0.9446,0.9879,1.0023,0.9446,0.9013,0.829,0.7421,0.7135,0.699,0.699,0.699,0.7131,0.7421,0.7421,0.7276,0.699,0.699,0.699,0.699,0.699,0.699,0.699,0.699,0.699,0.699,0.0,0.0,0.0,0.0,0.0,0.0,0.0,0.0,0.0,0.0,0.0,-0.6885,-0.6876,-0.6711,-0.6598,-0.6652,-0.6318,-0.5578,-0.4403,-0.3445,-0.2952,-0.2891,-0.2588,0.0,-0.241,-0.2163,-0.2068,-0.2133,0.0,0.0,-0.213,-0.1946,-0.1891,-0.1902,-0.2079,-0.2133,-0.2135,0.0,0.0,-0.2242,-0.2996,-0.3352,-0.3359,-0.3264,-0.3286,-0.3304,-0.2372,-0.2121,-0.2211,-0.215,-0.2169,-0.222,-0.2217,-0.2217,-0.222,0.0,0.0,0.0,0.0,-0.0161,0.0,0.1954,0.0,0.0,0.0,0.0,0.0,0.0,0.0,0.0,0.0,0.0,0.0,0.0,0.0,0.0,0.0,0.0,0.0,0.0,0.0,0.0,0.0,0.0,0.0,0.0,0.0,0.0,0.7407,0.8135,0.8897,0.9873,0.959,0.9018,0.815,0.7425,0.7135,0.699,0.699,0.699,0.699,0.699,0.699,0.699,0.699,0.699,0.699,0.699,0.699,0.699,0.699,0.699,0.699,0.699,0.699,0.699,0.0,0.0,0.0,0.0,0.0,0.0,0.0,0.0,0.0,0.0,0.0,0.0,0.0,-0.701,-0.6912,-0.6724,-0.5696,-0.4754,-0.4038,-0.3223,-0.2669,-0.2434,-0.2322,-0.2225,-0.2092,-0.1975,-0.1943,0.0,0.0,-0.1962,-0.1946,-0.1864,-0.1807,-0.1777,-0.1935,-0.2005,-0.2074,-0.2178,0.0,0.0,0.0,-0.3782,-0.432,-0.3569,-0.3653,0.0,0.0,0.0,-0.1989,-0.2003,-0.2069,-0.2166,-0.2209,-0.222,-0.222,-0.222,-0.222,-0.1998,0.0,0.0,0.0,0.1228,0.0,0.0,0.0,0.0,0.0,0.0,0.0,0.0,0.0,0.0,0.0,0.0,0.0,0.0,0.0,0.0,0.0,0.0,0.0,0.0,0.0,0.0,0.0,0.0,0.0,0.0,0.7743,0.8096,0.8612,0.9446,0.9302,0.8874,0.815,0.7425,0.699,0.699,0.699,0.699,0.699,0.699,0.699,0.699,0.699,0.699,0.699,0.699,0.699,0.699,0.699,0.699,0.699,0.699,0.699,0.699,0.0,0.0,0.0,0.0,0.0,0.0,0.0,0.0,0.0,-0.7521,0.0,0.0,0.0,0.0,-0.7057,-0.6795,-0.5751,-0.4926,-0.4545,-0.3816,-0.3244,-0.2738,-0.2627,-0.2373,-0.2023,-0.1911,-0.1883,0.0,0.0,0.0,0.0,-0.1804,-0.1733,-0.1681,-0.1842,-0.1924,0.0,0.0,0.0,-0.2284,0.0,0.0,-0.4634,0.0,0.0,0.0,0.0,0.0,0.0,0.0,0.0,-0.2107,-0.2123,-0.2136,-0.222,-0.222,-0.222,-0.2052,-0.1392,-0.1045,0.0,0.0,0.0,0.0,0.0,0.0,0.0,0.0,0.0,0.0,0.0,0.0,0.0,0.0,0.0,0.0,0.0,0.0,0.0,0.0,0.0,0.0,0.0,0.0,0.0,0.0,0.0,0.0,0.7774,0.8163,0.8571,0.9013,0.9157,0.8729,0.8005,0.7425,0.7135,0.699,0.699,0.699,0.699,0.699,0.699,0.699,0.699,0.699,0.699,0.699,0.699,0.699,0.699,0.699,0.699,0.699,0.699,0.699,0.0,0.0,0.0,0.0,0.0,0.0,0.0,0.0,-0.7521,-0.7521,0.0,0.0,0.0,0.0,0.0,-0.693,-0.6485,-0.6105,-0.5917,-0.5274,-0.4574,-0.3855,-0.3461,-0.2956,-0.2184,-0.1908,-0.1823,0.0,0.0,0.0,0.0,0.0,-0.1673,-0.1621,-0.1744,-0.1831,-0.1894,0.0,-0.2183,-0.2235,0.0,-0.4643,-0.4232,0.0,0.0,0.0,-0.2515,-0.1975,0.0,0.0,0.0,0.0,0.0,-0.208,-0.222,-0.222,-0.222,-0.222,0.0,0.0,0.0,0.0,0.0,0.0,0.0,0.0,0.0,0.0,0.0,0.0,0.0,0.0,0.0,0.0,0.0,0.0,0.0,0.0,0.0,0.0,0.0,0.0,0.0,0.0,0.0,0.0,0.0,0.0,0.7669,0.8474,0.8781,0.8714,0.8724,0.829,0.7566,0.7566,0.7421,0.699,0.699,0.699,0.699,0.699,0.699,0.699,0.699,0.699,0.699,0.699,0.699,0.699,0.699,0.699,0.699,0.699,0.699,0.699,0.0,0.0,0.0,0.0,0.0,-0.7007,-0.74,-0.7456,-0.7521,0.0,0.0,0.0,-0.7521,-0.7456,-0.7316,-0.7119,-0.6661,-0.6362,-0.6113,-0.5231,-0.4391,-0.376,-0.317,-0.2575,-0.1908,-0.1852,-0.1804,-0.182,0.0,-0.1782,-0.1755,-0.1722,-0.1673,-0.1621,-0.1785,-0.1867,-0.1891,-0.2093,0.0,0.0,-0.3955,-0.4605,0.0,0.0,0.0,0.0,0.0,-0.1616,-0.1275,0.0,-0.193,-0.204,0.0,-0.2194,-0.222,-0.222,-0.222,-0.222,-0.222,0.0,0.0,0.0,0.0,0.0,0.0,0.0,0.0,0.0,0.0,0.0,0.0,0.0,0.0,0.0,0.0,0.0,0.0,0.0,0.0,0.0,0.0,0.0,0.0,0.0,0.0,0.0,0.0,0.837,0.8491,0.8547,0.854,0.8179,0.7963,0.7856,0.7566,0.7276,0.7135,0.699,0.699,0.699,0.699,0.699,0.699,0.699,0.699,0.699,0.699,0.699,0.699,0.699,0.699,0.699,0.699,0.699,0.699,0.699,0.0,0.0,-0.6548,-0.6679,-0.6819,-0.7007,-0.7204,-0.7391,-0.7521,0.0,0.0,0.0,-0.7521,-0.7326,-0.7149,-0.6976,-0.6442,-0.6091,-0.5932,-0.5284,-0.4513,-0.3635,-0.3228,-0.2671,-0.1798,-0.1798,-0.1798,-0.1798,-0.1798,-0.1779,-0.1744,-0.1744,-0.1711,-0.1659,-0.1812,-0.188,-0.1888,0.0,0.0,0.0,-0.3939,0.0,0.0,-0.5097,-0.4933,0.0,0.0,0.0,-0.1965,-0.1641,-0.1684,0.0,0.0,-0.2172,-0.222,-0.222,-0.222,-0.222,-0.222,-0.2153,-0.2018,-0.1682,0.0,0.0,0.0,0.0,0.0,0.0,0.0,0.0,0.0,0.0,0.0,0.0,0.0,0.0,0.0,0.0,0.0,0.0,0.0,0.0,0.0,0.0,0.0,0.0,0.8507,0.8633,0.8702,0.8372,0.8038,0.7709,0.7764,0.767,0.7421,0.7276,0.7131,0.699,0.699,0.699,0.699,0.699,0.699,0.699,0.699,0.699,0.699,0.699,0.699,0.699,0.699,0.699,0.6994,0.7177,0.7169,0.6994,0.0,0.0,-0.6679,-0.6482,-0.6745,-0.6951,-0.6942,-0.7269,-0.7521,0.0,-0.7521,-0.7521,-0.7521,-0.7064,-0.6802,-0.6802,-0.6133,-0.5728,-0.5728,-0.5454,-0.475,-0.3618,-0.347,-0.2896,-0.1807,-0.1801,-0.1798,-0.1798,-0.1798,-0.1798,-0.1798,-0.1798,-0.1768,-0.1722,-0.1839,-0.1891,-0.1899,-0.2076,0.0,-0.2335,-0.4099,-0.4268,0.0,0.0,-0.4339,0.0,-0.2277,-0.2711,-0.321,-0.1533,-0.142,0.0,0.0,0.0,-0.2223,-0.2169,-0.2172,-0.2188,-0.2228,-0.2085,-0.1884,-0.1682,-0.0923,0.0,0.0966,0.1818,0.0,0.0,0.0,0.0,0.0,0.0,0.0,0.0,0.0,0.0,0.0,0.0,0.0,0.0,0.0,0.0,0.0,0.0,0.0,0.897,0.8959,0.867,0.8387,0.7893,0.7664,0.7295,0.7727,0.763,0.7003,0.743,0.7421,0.699,0.699,0.699,0.699,0.699,0.699,0.699,0.699,0.699,0.699,0.699,0.699,0.699,0.699,0.699,0.6998,0.7517,0.7357,0.716,-0.6679,-0.6679,-0.6745,-0.7007,-0.7073,-0.7204,-0.7335,-0.7456,-0.7521,-0.7521,-0.7521,-0.7521,-0.7521,-0.7391,-0.7326,-0.7326,-0.6833,-0.649,-0.649,-0.5552,-0.4628,-0.3846,-0.3311,-0.2634,-0.1922,-0.182,-0.1798,-0.1798,-0.1798,-0.1798,-0.1798,-0.1798,-0.179,-0.1785,-0.1902,-0.1954,-0.1959,-0.2096,0.0,-0.326,-0.418,0.0,-0.4601,-0.3914,-0.3622,-0.3223,-0.2281,-0.2067,-0.2163,0.0,-0.188,-0.207,0.0,0.0,0.0,-0.2196,-0.222,-0.2178,-0.2207,-0.2085,-0.1884,-0.1682,-0.1339,0.0,0.0072,0.0441,0.0,0.0,0.0,0.0,0.0,0.0,0.0,0.0,0.0,0.0,0.0,0.0,0.0,0.0,0.0,0.0,0.0,0.0,0.0,0.9101,0.9008,0.867,0.797,0.7898,0.7704,0.7106,0.7106,0.7152,0.7101,0.7173,0.7135,0.699,0.699,0.699,0.699,0.699,0.699,0.699,0.699,0.699,0.699,0.699,0.699,0.699,0.699,0.699,0.699,0.7156,0.734,0.753,-0.6811,-0.6876,-0.6942,-0.7007,-0.7138,-0.7204,-0.7335,-0.7456,-0.7521,-0.7521,-0.7521,-0.7521,-0.7521,-0.726,-0.6999,-0.6736,-0.621,-0.5815,-0.555,-0.4957,-0.4305,-0.3535,-0.3188,-0.2669,-0.1942,-0.1853,-0.1826,-0.1798,-0.1798,-0.1798,-0.1798,-0.1798,-0.1755,-0.173,-0.1935,-0.1989,-0.1896,0.0,-0.2707,-0.3607,-0.4244,0.0,-0.5307,-0.5552,-0.5043,-0.396,-0.2015,-0.1192,-0.1304,-0.3757,-0.3414,0.0,0.0,-0.2431,-0.1932,0.0,-0.2269,-0.1742,-0.2075,-0.1931,-0.1652,-0.1609,-0.1399,0.0,0.0,0.0,0.0,0.0,0.0,0.0,0.0,0.0,0.0,0.0,0.0,0.0,0.0,0.0,0.0,0.0,0.0,0.0,0.0,0.0,0.916,0.9215,0.8965,0.8614,0.8193,0.7912,0.754,0.7208,0.711,0.7011,0.7056,0.7248,0.7227,0.699,0.7521,0.7517,0.699,0.7181,0.7177,0.699,0.699,0.699,0.699,0.699,0.699,0.699,0.699,0.699,0.6994,0.7331,0.7348,0.7348,-0.7007,-0.7073,-0.7138,-0.7007,-0.7138,-0.7269,-0.7269,-0.7391,-0.7521,-0.7521,-0.7326,-0.726,-0.726,-0.6864,-0.6407,-0.6006,-0.556,-0.516,-0.4648,-0.4436,-0.3944,-0.3124,-0.3035,-0.2645,-0.1978,-0.1894,-0.1858,-0.1812,-0.1804,-0.1798,-0.1798,-0.1809,-0.1782,-0.1655,-0.1943,0.0,0.0,0.0,0.0,-0.3699,0.0,-0.502,-0.6076,-0.7215,-0.6169,-0.3856,-0.1218,-0.0,-0.0244,-0.44,0.0,-0.2193,-0.3278,-0.2676,0.0,0.0,0.0,-0.1159,-0.1874,-0.1787,-0.1503,-0.1538,-0.1258,-0.0877,0.0,0.0,0.0,0.0,0.0,0.0,0.0,0.0,0.0,0.0,0.0,0.0,0.0,0.0,0.0,0.0,0.0,0.0,0.0,0.0,0.0,0.9226,0.8818,0.863,0.8556,0.7912,0.7504,0.7478,0.7106,0.7007,0.7043,0.7634,0.7634,0.719,0.7914,0.7909,0.7336,0.7521,0.7361,0.716,0.6998,0.699,0.7135,0.699,0.699,0.7135,0.699,0.699,0.6998,0.7366,0.7357,0.7314,-0.7204,-0.7204,-0.7269,-0.7391,-0.7456,-0.7456,-0.7456,-0.7456,-0.7521,-0.7521,-0.6802,-0.6276,-0.6276,0.0,0.0,0.0,0.0,0.0,-0.5644,0.0,-0.4068,-0.3226,-0.2875,-0.2442,-0.2107,-0.1937,-0.1877,-0.1872,-0.1823,-0.1798,-0.1798,-0.1847,-0.1875,-0.1896,-0.2223,0.0,0.0,0.0,-0.2951,0.0,-0.3893,-0.5147,0.0,-0.671,-0.4563,-0.1551,0.0898,0.1921,0.1651,0.0,-0.127,-0.1765,0.0,-0.2656,-0.2743,-0.227,0.0,0.0,-0.143,-0.1477,-0.1339,0.0,-0.1207,-0.1076,0.0,0.0,-0.0551,0.0,0.0,0.0,0.0,0.0,0.0,0.0,0.0,0.0,0.0,0.0,0.0,0.0,0.0,0.0,0.0,0.0,0.0,0.0,0.878,0.8512,0.854,0.812,0.7778,0.7677,0.7173,0.7068,0.7231,0.7703,0.7849,0.7827,0.7761,0.7914,0.8267,0.7512,0.7336,0.7543,0.7169,0.7135,0.7566,0.7135,0.7276,0.7566,0.7135,0.699,0.699,0.7003,0.734,0.7685,-0.7391,-0.7391,-0.7391,-0.7456,-0.7521,-0.7521,-0.7521,-0.7626,-0.7645,-0.7645,-0.7401,-0.7267,0.0,0.0,0.0,0.0,0.0,-0.5618,0.0,0.0,-0.4199,-0.2969,-0.2924,-0.269,-0.2127,-0.2076,-0.197,-0.1935,-0.191,-0.1899,-0.1899,-0.1924,-0.189,-0.1873,-0.2217,0.0,-0.223,0.0,0.0,0.0,0.0,0.0,0.0,-0.6789,-0.3273,0.1921,0.2935,0.3295,0.3258,0.0,0.0922,0.0,0.0,0.0,0.0,-0.1866,0.0,0.0,0.0,0.0,0.0,0.0,0.0,0.0,-0.0958,0.0,-0.0134,0.0,0.0,0.0,0.0,0.0,0.0,0.0,0.0,0.0,0.0,0.0,0.0,0.0,0.0,0.0,0.0,0.0,0.0,0.0,0.0,0.8638,0.8637,0.8514,0.8271,0.792,0.7646,0.74,0.7182,0.7738,0.792,0.7862,0.8389,0.8687,0.8459,0.8431,0.8081,0.7712,0.7525,0.7327,0.7276,0.7135,0.7135,0.7276,0.7566,0.7421,0.699,0.7421,0.7738,0.8057,-0.7521,-0.7521,-0.7521,-0.7521,-0.7521,-0.754,-0.7607,-0.7683,0.0,0.0,0.0,0.0,-0.7646,-0.6986,0.0,0.0,0.0,-0.5659,0.0,0.0,-0.4413,-0.3137,-0.2949,0.0,0.0,-0.2246,-0.2105,-0.1997,-0.1981,-0.1973,-0.1973,-0.1989,-0.1956,-0.1879,0.0,-0.2423,-0.2359,0.0,0.0,-0.3947,-0.3987,-0.4657,-0.5559,-0.5962,-0.2431,0.3083,0.347,0.383,0.4164,0.3725,0.2333,0.0,0.0233,0.0,0.0,0.0,0.0,0.0,-0.0634,0.0,0.0,0.0,0.0,0.0,0.0,0.0,0.0,0.0,0.0,0.0,0.0,0.0,0.3226,0.3226,0.0,0.4079,0.0,0.0,0.0,0.0,0.0,0.0,0.0,0.0,0.0,0.0,0.0,0.0,0.8749,0.8668,0.841,0.8295,0.7929,0.7551,0.731,0.7772,0.7986,0.8094,0.8828,0.9131,0.8849,0.8868,0.8507,0.7941,0.759,0.7383,0.7169,0.6998,0.7148,0.7601,0.8005,0.7869,0.7751,0.83,0.843,0.8574,-0.7521,-0.7521,-0.7521,-0.7521,-0.7521,-0.7598,-0.774,0.0,0.0,0.0,0.0,0.0,0.0,0.0,0.0,0.0,0.0,-0.6888,-0.5485,0.0,-0.4599,0.0,0.0,-0.2646,0.0,0.0,-0.2127,-0.2124,-0.2062,-0.1973,-0.1973,-0.2096,-0.2124,-0.2076,-0.2373,-0.2542,-0.2621,-0.291,-0.3207,-0.3496,-0.3613,-0.3659,-0.3613,0.0,-0.2056,0.0268,0.1745,0.0,0.0,0.2894,0.2437,0.0,0.0,0.0,0.0,0.0,0.0,0.0,0.0,0.0,0.0,0.0299,0.0,0.0,0.0,0.0,0.1267,0.0,0.0,0.0,0.2982,0.3169,0.3226,0.3226,0.3242,0.0,0.0,0.0,0.0,0.0,0.0,0.0,0.0,0.0,0.0,0.0,0.0,0.0,0.0,0.8369,0.8188,0.8724,0.8005,0.7663,0.7703,0.796,0.8211,0.8769,0.8669,0.9136,0.9848,0.8559,0.8218,0.8445,0.7497,0.7273,0.7703,0.7169,0.7769,0.8725,0.8324,0.8644,0.9465,0.9345,0.9302,0.9446,-0.7521,-0.7521,-0.7521,-0.7521,-0.7521,-0.7598,0.0,-0.7891,0.0,0.0,0.0,0.0,0.0,0.0,-0.6807,0.0,0.0,-0.6303,-0.5128,-0.5181,0.0,0.0,0.0,-0.2914,0.0,0.0,0.0,-0.2189,-0.2169,-0.2158,-0.2158,-0.218,-0.2189,-0.22,-0.2395,-0.2654,0.0,0.0,0.0,0.0,0.0,-0.3369,-0.3346,0.0,0.0,0.0511,0.1725,0.2924,0.0,0.371,0.3103,0.2654,0.2907,0.2216,0.1554,0.2096,0.1943,0.0,0.0,0.0,0.2023,0.1137,0.0,0.0,0.0,0.0,0.0,0.0,0.0,0.0,0.3119,0.3205,0.3226,0.3226,0.3226,0.3226,0.0,0.0,0.0,0.0,0.0,0.0,0.0,0.0,0.0,0.0,0.0,0.0,0.0,0.8429,0.8366,0.8188,0.8256,0.8071,0.7761,0.7862,0.796,0.8216,0.8557,0.9056,0.9553,0.932,0.9111,0.8612,0.8168,0.7774,0.7269,0.7824,0.808,0.8489,0.94,0.9977,1.0227,1.0041,1.0023,1.0167,-0.7521,-0.7521,-0.7521,-0.7521,0.0,0.0,0.0,0.0,0.0,0.0,-0.8128,0.0,-0.8244,0.0,-0.7428,0.0,-0.7414,-0.6433,-0.5143,-0.5598,0.0,-0.4422,-0.3926,0.0,0.0,0.0,0.0,0.0,0.0,-0.222,-0.222,-0.222,-0.222,-0.2228,-0.2313,-0.2643,-0.3082,0.0,-0.3406,0.0,0.0,-0.3116,0.0,0.0,-0.1246,0.0,0.0,0.2142,0.3426,0.3934,0.3842,0.3378,0.3991,0.3351,0.2472,0.3005,0.2807,0.2353,0.2297,0.2794,0.0,0.0,0.2457,0.0,0.1973,0.0,0.0,0.0,0.0,0.0,0.0,0.325,0.3238,0.3271,0.3246,0.3226,0.0,0.3761,0.0,0.0,0.0,0.0,0.0,0.0,0.0,0.0,0.0,0.0,0.0,0.0,0.8366,0.8193,0.8366,0.8304,0.786,0.7959,0.8062,0.8013,0.8576,0.8934,0.9402,0.9558,0.9361,0.9131,0.8863,0.8478,0.8113,0.8671,0.8907,0.9139,1.0351,1.0754,1.0957,1.0906,1.0887,1.0894,-0.7521,-0.7531,0.0,0.0,-0.7645,0.0,0.0,0.0,-0.7289,0.0,-0.7766,-0.7354,-0.8064,-0.8307,-0.8305,-0.807,-0.8133,0.0,-0.557,-0.6211,0.0,0.0,-0.5452,-0.5785,-0.6872,0.0,0.0,0.0,0.0,0.0,-0.222,-0.222,-0.222,-0.222,-0.222,0.0,-0.3023,-0.3185,-0.3589,-0.4026,-0.3217,-0.29,-0.3067,-0.3127,0.0,-0.1557,-0.0541,0.0961,0.2466,0.3789,0.4273,0.4221,0.4226,0.4221,0.4215,0.4215,0.4174,0.4076,0.4093,0.41,0.3762,0.2978,0.0,0.0,0.0,0.0,0.3549,0.0,0.0,0.0,0.0,0.3328,0.3287,0.3352,0.3287,0.336,0.3756,0.0,0.0,0.0,0.0,0.0,0.0,0.0,0.0,0.0,0.0,0.0,0.0,0.0,0.0,0.8714,0.8188,0.8088,0.8293,0.8398,0.8356,0.8004,0.8566,0.8929,0.9402,0.8934,0.9246,1.0014,0.9587,0.9534,0.9829,0.9866,1.0266,1.0853,1.0878,1.1257,1.1816,1.1674,1.1619,1.1619,-0.7521,-0.7655,-0.7702,0.0,-0.774,-0.7844,0.0,0.0,0.0,0.0,-0.7547,-0.7269,-0.8072,-0.8187,-0.815,-0.8116,-0.8049,0.0,0.0,0.0,0.0,-0.6325,-0.5804,-0.5916,-0.6659,-0.4963,0.0,-0.3748,0.0,0.0,-0.222,-0.222,-0.222,-0.222,-0.222,0.0,-0.2549,-0.2645,-0.2862,-0.3162,-0.3003,-0.3016,0.0,0.0,-0.3528,-0.3072,-0.0964,0.1522,0.3847,0.4242,0.4335,0.4292,0.4338,0.4289,0.4215,0.4215,0.4174,0.4123,0.4106,0.4218,0.4136,0.3841,0.3882,0.391,0.0,0.0,0.0,0.0,0.0,0.0,0.0,0.0,0.0,0.3413,0.3423,0.3565,0.3894,0.0,0.0,0.0,0.0,0.0,0.0,0.0,0.0,0.0,0.0,0.0,0.0,0.0,0.0,0.8164,0.8292,0.8484,0.8624,0.8435,0.8248,0.7898,0.8153,0.8393,0.8934,0.909,0.9558,1.0014,0.9894,0.984,0.9987,1.0562,1.08,1.1021,1.1691,1.1884,1.1816,1.1674,1.1619,1.1619,-0.773,0.0,0.0,-0.7563,0.0,0.0,-0.8251,0.0,0.0,-0.7725,-0.7029,0.0,-0.7593,-0.8114,-0.8367,-0.8367,-0.835,0.0,0.0,0.0,0.0,-0.6797,-0.6715,-0.6914,-0.7423,-0.6039,0.0,-0.4414,0.0,0.0,-0.222,-0.222,-0.222,-0.2223,-0.2183,-0.232,-0.2585,-0.2969,-0.3129,-0.3077,-0.3236,0.0,0.0,-0.3789,-0.3661,-0.293,-0.0844,0.056,0.1661,0.3045,0.3433,0.3539,0.4277,0.4387,0.4327,0.4303,0.4253,0.4207,0.4215,0.4215,0.4177,0.4133,0.4111,0.4163,0.4039,0.3923,0.3972,0.0,0.0,0.0,0.0,0.0,0.0,0.3644,0.3691,0.39,0.0,0.0,0.0,0.0,0.0,0.0,0.0,0.0,0.0,0.0,0.0,0.0,0.0,0.0,0.0,0.7707,0.7854,0.8114,0.8366,0.8331,0.8174,0.8163,0.796,0.8216,0.8778,0.8778,0.9402,1.0325,1.0257,1.0531,1.1146,1.1606,1.1682,1.156,1.2032,1.2088,1.1925,1.1843,1.1728,1.1619,-0.8018,0.0,0.0,0.0,0.0,0.0,0.0,-0.6893,0.0,-0.7357,0.0,-0.6217,-0.7316,-0.8254,-0.8769,0.0,0.0,-0.8504,-0.751,-0.7991,-0.8001,-0.7248,-0.7937,-0.8287,-0.8426,-0.7546,0.0,0.0,0.0,0.0,-0.2234,-0.2225,-0.2225,-0.2169,-0.2221,0.0,0.0,-0.3437,-0.3544,0.0,-0.3682,-0.3682,-0.3564,-0.3643,-0.2939,-0.189,-0.0575,-0.0851,-0.1262,0.1543,0.2504,0.2759,0.4055,0.4488,0.4471,0.4414,0.436,0.4308,0.4256,0.424,0.424,0.424,0.4281,0.4234,0.416,0.4202,0.4236,0.4157,0.4729,0.0,0.0,0.0,0.0,0.4155,0.0,0.0,0.0,0.0,0.0,0.0,0.0,0.0,0.0,0.0,0.0,0.0,0.0,0.0,0.0,0.0,0.0,0.0,0.7441,0.0,0.8067,0.0,0.8223,0.8378,0.8076,0.8202,0.8778,0.8315,0.909,1.0641,1.0641,1.1262,1.2501,1.2501,1.2427,1.2305,1.2169,1.2108,1.2094,1.2094,1.1918,1.1681,0.0,0.0,0.0,0.0,0.0,-0.7951,-0.8007,-0.7334,-0.7154,-0.8046,-0.7482,0.0,-0.8446,-0.872,-0.8769,-0.8769,-0.8698,0.0,0.0,0.0,0.0,-0.7964,-0.8329,-0.8324,-0.8176,-0.7502,-0.6521,0.0,0.0,0.0,-0.2229,-0.2177,-0.218,-0.2229,-0.217,0.0,-0.2732,-0.27,0.0,-0.3185,-0.3658,-0.2996,-0.1987,-0.239,-0.1733,-0.0436,-0.0145,0.0575,0.1707,0.3558,0.4092,0.4198,0.4537,0.4523,0.4471,0.4414,0.439,0.4379,0.4371,0.4365,0.4365,0.4365,0.4373,0.4354,0.424,0.4738,0.5112,0.5178,0.5751,0.5998,0.5716,0.0,0.0,0.0,0.0,0.0,0.0,0.0,0.0,0.0,0.0,0.0,0.0,0.0,0.0,0.0,0.0,0.0,0.0,0.0,0.0,0.0,0.0,0.0,0.0,0.0,0.0,0.7804,0.7873,0.7982,0.8315,0.8159,0.909,1.0641,1.0641,1.1262,1.2501,1.2501,1.2488,1.2461,1.2433,1.2352,1.225,1.225,1.2135,1.1986,0.0,0.0,0.0,0.0,0.0,0.0,0.0,-0.7814,0.0,-0.7877,-0.7614,-0.7556,-0.8143,-0.8611,-0.8861,-0.8861,-0.8812,-0.8747,-0.8687,-0.8633,-0.8519,-0.8339,-0.8403,0.0,-0.8149,-0.7861,-0.6873,-0.532,0.0,0.0,-0.2335,-0.2275,-0.2264,-0.2228,-0.2488,-0.2679,0.0,0.0,0.0,-0.3603,-0.4116,-0.3293,-0.195,-0.2157,-0.131,0.0146,0.0873,0.1594,0.2307,0.3173,0.3432,0.3546,0.4456,0.4578,0.4523,0.4496,0.4466,0.4442,0.4442,0.4719,0.4996,0.4996,0.5273,0.5667,0.559,0.5708,0.5833,0.5923,0.6317,0.646,0.6171,0.5744,0.0,0.0,0.0,0.0,0.0,0.0,0.0,0.0,0.0,0.0,0.0,0.0,0.0,0.0,0.0,0.0,0.0,0.0,0.0,0.0,0.0,0.0,0.0,0.0,0.0,0.8309,0.7774,0.7816,0.8159,0.7998,0.8774,1.033,1.033,1.1107,1.2501,1.2501,1.2501,1.2501,1.2501,1.2461,1.24,1.24,1.2352,1.2271,0.0,-0.7498,0.0,0.0,-0.7357,0.0,0.0,-0.8296,-0.8536,-0.7732,-0.7702,-0.7742,-0.7847,-0.8507,-0.8954,-0.8954,-0.8954,-0.891,-0.8812,-0.8785,-0.8677,-0.8465,-0.8322,-0.8123,-0.798,-0.7899,-0.6967,0.0,0.0,0.0,0.0,-0.2411,-0.2406,0.0,0.0,0.0,0.0,0.0,-0.3809,-0.3711,-0.4058,-0.3162,-0.1885,-0.1744,-0.1019,0.0146,0.1746,0.233,0.233,0.2766,0.2891,0.316,0.4356,0.4632,0.4591,0.4863,0.4823,0.4782,0.4923,0.5344,0.5768,0.5785,0.6211,0.6609,0.6521,0.6363,0.634,0.6521,0.6698,0.6745,0.6652,0.6237,0.0,0.0,0.0,0.0,0.0,0.0,0.0,0.0,0.0,0.0,0.0,0.0,0.0,0.0,0.0,0.0,0.0,0.0,0.0,0.0,0.0,0.0,0.8443,0.0,0.7484,0.0,0.7823,0.7663,0.7998,0.7842,0.8618,1.0019,1.0175,1.1107,1.2501,1.2993,1.2986,1.312,1.3457,1.3296,1.2958,1.2958,1.2958,1.2923,0.0,0.0,0.0,0.0,0.0,0.0,0.0,-0.8513,-0.8758,-0.8725,-0.872,-0.8764,-0.8751,-0.8793,-0.8954,-0.8954,-0.8954,-0.8948,-0.8932,-0.8834,-0.8709,-0.8579,-0.7907,-0.7417,-0.734,-0.6872,-0.6022,0.0,0.0,0.0,0.0,-0.2575,0.0,0.0,0.0,0.0,0.0,-0.4006,-0.3428,-0.2547,-0.242,-0.1571,-0.0286,-0.029,-0.0146,0.0146,0.1746,0.233,0.2475,0.3935,0.4514,0.4511,0.4662,0.466,0.4791,0.5447,0.5567,0.5703,0.6413,0.6417,0.6294,0.6361,0.6094,0.5928,0.5852,0.626,0.6661,0.6709,0.6979,0.7119,0.6887,0.6625,0.6472,0.0,0.0,0.0,0.0,0.0,0.765,0.7481,0.0,0.0,0.0,0.0,0.0,0.0,0.0,0.0,0.0,0.0,0.0,0.8546,0.0,0.7414,0.7992,0.7526,0.0,0.7757,0.7837,0.7659,0.7525,0.831,0.909,1.0019,1.0796,1.1727,1.2663,1.4345,1.4927,1.4806,1.6662,1.6155,1.4637,1.4637,1.4637,1.4629,0.0,0.0,0.0,0.0,0.0,0.0,0.0,-0.8742,-0.8851,-0.878,-0.8834,-0.8867,-0.8845,-0.8845,-0.8812,-0.8742,-0.8731,-0.8764,-0.884,-0.8386,-0.8063,-0.8023,-0.7341,-0.6875,-0.6745,-0.6415,-0.585,0.0,0.0,0.0,0.0,0.0,0.0,0.0,0.0,-0.3777,-0.4049,-0.4267,-0.4162,-0.3716,-0.3745,-0.2745,-0.1301,-0.029,0.0582,0.1601,0.3203,0.3787,0.3787,0.4517,0.4665,0.4665,0.4665,0.4956,0.5386,0.5647,0.5925,0.621,0.6501,0.6645,0.6657,0.6688,0.6986,0.7123,0.7085,0.7221,0.7339,0.7385,0.7318,0.7221,0.6892,0.6666,0.6515,0.0,0.0,0.0,0.0,0.0,0.0,0.7433,0.0,0.6926,0.0,0.0,0.0,0.0,0.0,0.0,0.0,0.0,0.0,0.8144,0.0,0.7818,0.792,0.7242,0.7256,0.7774,0.7638,0.7506,0.7525,0.8466,0.9558,1.0796,1.1727,1.2804,1.403,1.4708,1.5683,1.6635,1.7367,1.6599,1.5236,1.605,1.5701,1.5242,-0.8884,0.0,-0.7194,0.0,-0.8012,-0.7717,-0.8627,-0.8867,-0.8867,-0.878,-0.8812,-0.8812,-0.8725,-0.8715,-0.8682,-0.8595,-0.8451,-0.8354,-0.8439,-0.7767,-0.736,-0.736,-0.657,0.0,-0.6088,-0.584,-0.5471,-0.474,-0.4532,0.0,0.0,0.0,0.0,0.0,-0.3902,-0.4071,-0.421,-0.4466,-0.4287,-0.4004,-0.4059,-0.3488,-0.2171,-0.0872,0.0146,0.1164,0.3057,0.3787,0.3932,0.4371,0.4665,0.4665,0.481,0.5247,0.5683,0.6116,0.6406,0.6696,0.6841,0.6986,0.7135,0.7135,0.7425,0.7715,0.7715,0.757,0.7548,0.7625,0.7411,0.7076,0.677,0.6689,0.6672,0.0,0.0,0.0,0.0,0.7665,0.0,0.7411,0.7173,0.7022,0.7231,0.0,0.0,0.0,0.0,0.0,0.0,0.0,0.0,0.0,0.0,0.0,0.0,0.0,0.7073,0.7862,0.7561,0.7659,0.7994,0.9085,1.0635,1.234,1.2958,1.4184,1.571,1.6221,1.7241,1.8598,1.8907,1.8019,1.6888,1.776,1.7379,1.6617,-0.8787,-0.7898,-0.7557,-0.8753,-0.8015,-0.7742,-0.874,-0.8851,-0.8774,-0.8769,-0.8666,-0.859,-0.859,-0.859,-0.859,-0.859,-0.7917,-0.7512,-0.7517,-0.6853,-0.6455,0.0,0.0,-0.5495,-0.5491,-0.4869,-0.448,-0.4477,0.0,0.0,-0.3935,0.0,-0.3774,-0.4117,-0.4123,-0.4289,-0.4567,-0.4572,-0.3714,-0.2429,-0.2752,-0.2745,-0.2288,-0.1449,-0.1601,-0.1892,0.0728,0.1746,0.2037,0.3641,0.4371,0.481,0.5101,0.525,0.5392,0.67,0.699,0.7135,0.786,0.786,0.7566,0.7566,0.7276,0.699,0.699,0.699,0.699,0.699,0.6986,0.6958,0.6868,0.6847,0.6873,0.6779,0.0,0.0,0.0,0.7143,0.0,0.7637,0.6861,0.6622,0.7658,0.0,0.0,0.0,0.0,0.0,0.0,0.0,0.0,0.7655,0.7084,0.0,0.7388,0.7135,0.7135,0.7862,0.7862,0.8269,0.8778,1.0486,1.2642,1.479,1.4944,1.5854,1.755,1.9448,2.0156,2.032,2.2024,2.1555,2.0134,1.9898,1.9811,1.9811,-0.836,-0.829,-0.8448,-0.8878,-0.8622,-0.8515,-0.8807,-0.8725,-0.8644,-0.8644,-0.8205,-0.7917,-0.7917,0.0,-0.7917,0.0,-0.7116,-0.6719,0.0,-0.6049,-0.5781,-0.5781,-0.5046,-0.4809,-0.4809,-0.4633,-0.4523,-0.4482,0.0,0.0,0.0,-0.3992,-0.4104,-0.4371,-0.4412,-0.4485,-0.4575,-0.4907,-0.478,-0.4201,-0.3635,-0.3195,-0.2895,-0.0436,0.0437,0.0728,0.2621,0.335,0.3496,0.4517,0.481,0.481,0.5686,0.6264,0.6555,0.6845,0.7135,0.7421,0.7711,0.7421,0.7135,0.7135,0.7135,0.699,0.699,0.699,0.699,0.699,0.699,0.6982,0.6954,0.6945,0.7031,0.7135,0.0,0.0,0.0,0.0,0.7478,0.7195,0.6837,0.673,0.0,0.0,0.0,0.0,0.0,0.0,0.0,0.0,0.0,0.0,0.8717,0.0,0.924,1.0254,1.0287,0.9345,0.9345,1.0072,1.1392,1.2474,1.4322,1.6617,1.6617,1.7531,1.9057,1.9735,2.0635,2.2024,2.2493,2.1719,2.0309,2.1311,2.0872,1.9962,-0.8132,-0.8262,-0.8553,-0.8856,-0.878,-0.8563,-0.8293,-0.8231,-0.8051,-0.7789,-0.7383,-0.713,-0.7166,-0.687,0.0,-0.7166,-0.65,0.0,-0.6099,-0.5447,-0.5043,-0.5018,-0.4652,-0.4409,-0.4428,0.0,0.0,-0.4482,-0.4392,-0.4343,-0.4327,-0.4327,-0.4409,-0.4553,-0.4591,-0.4751,-0.4898,-0.506,-0.4936,-0.4517,-0.3912,-0.319,-0.2331,-0.0,0.1165,0.1748,0.3352,0.3789,0.3789,0.4519,0.481,0.481,0.5829,0.6555,0.699,0.699,0.7135,0.7421,0.7421,0.7135,0.699,0.699,0.699,0.699,0.699,0.699,0.699,0.699,0.699,0.699,0.699,0.699,0.7115,0.7491,0.0,0.7549,0.775,0.0,0.7385,0.0,0.0,0.0,0.0,0.7055,0.0,0.0,0.0,0.0,0.0,0.0,0.0,0.8356,1.0346,0.0,1.1015,1.208,1.177,1.0087,1.0781,1.1828,1.3238,1.4467,1.6303,1.829,1.829,1.9208,2.0725,2.0725,2.1546,2.2778,2.2585,2.206,2.151,2.2412,2.193,2.1023,-0.7872,-0.7959,0.0,0.0,-0.866,0.0,-0.766,-0.7526,-0.713,-0.6468,-0.6337,-0.6369,-0.6453,-0.5851,-0.5566,-0.6324,0.0,0.0,0.0,-0.4875,-0.4463,-0.4406,-0.4403,0.0,-0.448,-0.4436,-0.4439,-0.4496,-0.4551,-0.4608,-0.4665,-0.4665,-0.4665,-0.4665,-0.466,-0.495,-0.5238,-0.5024,-0.4459,-0.3488,-0.3588,-0.2592,-0.102,0.0291,0.1019,0.1458,0.2917,0.3209,0.3061,0.3935,0.4371,0.4956,0.568,0.641,0.699,0.699,0.699,0.699,0.699,0.699,0.699,0.699,0.699,0.699,0.699,0.699,0.699,0.699,0.699,0.699,0.699,0.699,0.7135,0.7566,0.7688,0.7544,0.7444,0.0,0.735,0.0,0.0,0.0,0.0,0.8056,0.8133,0.0,0.0,0.0,0.0,0.0,0.9914,1.0717,1.1931,1.2685,1.2978,1.2993,1.2301,1.0548,1.202,1.3392,1.4629,1.6617,1.8441,1.9962,1.9962,2.0887,2.2259,2.2259,2.2549,2.2947,2.2476,2.2742,2.3333,2.2862,2.2669,2.2657,0.0,0.0,-0.806,-0.8606,-0.8205,-0.7675,-0.7622,-0.7093,-0.671,-0.6505,-0.6099,-0.5855,-0.5792,-0.5222,-0.4817,-0.5167,-0.4938,-0.4762,-0.4811,-0.4687,-0.4526,-0.4466,-0.4463,-0.4469,-0.4482,-0.4515,-0.4561,-0.4621,-0.4635,-0.4651,-0.4665,-0.4665,-0.4665,-0.4662,-0.4904,-0.5027,-0.5024,-0.4246,-0.3829,-0.3586,-0.1143,-0.0144,-0.0146,0.1749,0.2478,0.2478,0.2917,0.3352,0.3935,0.466,0.5244,0.568,0.6406,0.6845,0.699,0.699,0.699,0.699,0.699,0.699,0.699,0.699,0.699,0.699,0.699,0.699,0.699,0.699,0.699,0.7135,0.7421,0.7421,0.7711,0.829,0.8159,0.8043,0.8339,0.7991,0.0,0.0,0.7723,0.778,0.801,0.8056,0.7978,0.0,0.0,0.0,0.0,0.0,1.3379,1.2574,1.4064,1.5014,1.5208,1.6496,1.6424,1.5334,1.5261,1.6133,1.7663,1.8744,2.0124,2.1648,2.1648,2.1948,2.2259,2.2259,2.2331,2.2452,2.2524,2.2669,2.285,2.2923,2.2826,2.2657,-0.7265,-0.7552,-0.7747,-0.8092,-0.7858,-0.7351,-0.6764,-0.6367,-0.5968,-0.5733,-0.5321,-0.5078,-0.518,-0.4875,-0.4621,-0.4736,-0.4662,-0.4608,-0.4616,-0.4668,-0.467,-0.461,-0.458,-0.4567,-0.4567,-0.4542,-0.4561,-0.4624,-0.4624,-0.4768,-0.4913,-0.4913,-0.4898,-0.5155,-0.526,-0.4958,-0.4244,-0.3627,-0.2655,-0.1556,0.0424,0.1141,0.1445,0.2619,0.2917,0.277,0.3207,0.3644,0.3935,0.5098,0.568,0.597,0.67,0.699,0.699,0.699,0.699,0.699,0.699,0.699,0.699,0.699,0.699,0.699,0.699,0.699,0.699,0.699,0.699,0.7135,0.7566,0.7566,0.7856,0.8584,0.8352,0.8189,0.859,0.8176,0.0,0.8171,0.8198,0.8258,0.8591,0.8639,0.891,0.9596,0.0,0.0,1.3287,1.4736,1.5278,1.4561,1.6034,1.7005,1.7385,1.7703,1.7804,1.7822,1.7416,1.7967,1.9187,2.0414,2.1499,2.2259,2.2259,2.2259,2.2259,2.2259,2.2331,2.244,2.2464,2.2693,2.3019,2.3043,2.3031,2.3007,-0.696,-0.7255,-0.735,-0.7374,-0.7438,-0.7061,-0.5747,-0.5494,-0.5225,-0.465,-0.4518,-0.4567,-0.4679,-0.4646,-0.4681,-0.4845,-0.482,-0.4766,-0.4698,-0.4796,-0.4831,-0.4771,-0.4719,-0.4692,-0.4692,-0.458,-0.4545,-0.4589,-0.4589,-0.4726,-0.5146,-0.5146,-0.5254,-0.5607,-0.5315,-0.4608,-0.3347,-0.275,-0.1103,0.1119,0.1399,0.2119,0.2873,0.3195,0.3063,0.2624,0.3644,0.3937,0.4083,0.5389,0.5825,0.6116,0.6845,0.699,0.699,0.699,0.699,0.699,0.699,0.699,0.6986,0.6974,0.6978,0.699,0.7135,0.699,0.699,0.7135,0.7135,0.7276,0.7711,0.7711,0.7982,0.8637,0.825,0.8086,0.8481,0.0,0.8171,0.8662,0.8784,0.8993,0.9407,0.9302,0.9867,1.1409,1.1578,0.0,0.0,1.6202,1.6351,1.6535,1.7631,1.8495,1.9178,1.8331,1.8381,1.9393,1.9254,1.9499,2.0274,2.1648,2.2259,2.2259,2.2259,2.2259,2.2259,2.2259,2.2392,2.2573,2.2392,2.2754,2.3369,2.3176,2.3249,2.3418,-0.6506,-0.708,-0.7411,-0.6798,-0.6898,-0.6673,-0.5692,-0.5225,-0.4841,-0.4643,-0.4681,-0.4739,-0.4809,-0.4809,-0.4834,-0.4916,-0.4957,-0.4932,-0.4826,-0.4883,-0.4897,-0.4834,-0.4823,-0.4818,-0.4818,-0.4749,-0.4692,-0.4651,-0.4651,-0.4768,-0.5146,-0.5146,-0.5254,-0.5604,-0.429,-0.3577,-0.316,-0.0406,0.0957,0.1259,0.2801,0.3272,0.2909,0.2914,0.3063,0.3354,0.35,0.4374,0.5535,0.568,0.6261,0.6845,0.699,0.699,0.699,0.699,0.699,0.699,0.699,0.699,0.697,0.6892,0.6933,0.7135,0.7421,0.7276,0.7135,0.786,0.7715,0.7711,0.844,0.8584,0.8601,0.8627,0.8167,0.7981,0.7981,0.0,0.8545,0.9059,0.9498,0.9792,0.9873,0.9446,0.9833,1.1127,1.2499,1.3825,1.5494,1.6884,1.7962,1.827,1.8375,1.8988,1.973,2.0352,2.0877,2.1302,2.1625,2.1798,2.1948,2.2109,2.2259,2.2259,2.2259,2.2259,2.2259,2.2259,2.2283,2.2343,2.2524,2.2802,2.3128,2.3321,2.3418,2.3418,-0.6293,-0.6627,-0.6578,-0.6196,-0.6114,-0.5883,-0.5241,-0.4982,-0.4719,-0.4758,-0.473,-0.4755,-0.488,-0.4867,-0.4869,-0.4932,-0.4989,-0.4984,-0.4899,-0.4948,-0.497,-0.494,-0.491,-0.488,-0.4848,-0.4818,-0.479,-0.4763,-0.473,-0.4827,-0.5201,-0.5164,-0.4826,-0.434,-0.3616,-0.2208,-0.0548,0.0953,0.218,0.2879,0.387,0.379,0.3143,0.3597,0.3622,0.3644,0.4338,0.5213,0.5822,0.6213,0.663,0.6917,0.6917,0.6884,0.6847,0.6847,0.6917,0.6978,0.6929,0.6917,0.6896,0.6807,0.6956,0.7269,0.7411,0.7411,0.7553,0.7837,0.7884,0.7921,0.8494,0.8688,0.8723,0.8666,0.8399,0.0,0.0,0.877,0.9086,0.9883,1.0019,1.0167,0.9879,1.0382,1.1193,1.2477,1.4221,1.57,1.7251,1.8346,1.9022,1.9296,1.9447,1.9968,2.0607,2.129,2.1698,2.196,2.2259,2.2259,2.2259,2.2259,2.2259,2.2259,2.2259,2.2259,2.2259,2.2259,2.2259,2.2271,2.2392,2.2693,2.3056,2.3188,2.3418,2.3623,-0.5957,-0.6039,-0.5862,-0.5431,-0.5623,-0.5535,-0.4892,-0.4749,-0.4771,-0.4837,-0.4777,-0.4782,-0.4921,-0.4894,-0.4891,-0.4951,-0.4995,-0.5003,-0.4959,-0.4997,-0.5022,-0.5022,-0.4978,-0.4929,-0.4869,-0.4867,-0.4858,-0.4845,-0.4785,-0.4881,-0.5271,-0.4751,-0.412,-0.3233,-0.2381,-0.0695,0.179,0.2203,0.315,0.4352,0.4263,0.4036,0.3665,0.4272,0.4315,0.4204,0.5304,0.5894,0.6076,0.6713,0.6839,0.6851,0.6831,0.6778,0.6725,0.6725,0.6823,0.6909,0.6819,0.6807,0.6803,0.6856,0.6987,0.7283,0.7562,0.7697,0.7836,0.7975,0.8057,0.8277,0.8561,0.8796,0.8865,0.88,0.0,0.0,0.0,0.9389,0.9715,1.0537,1.0599,1.0455,1.0167,1.1348,1.2581,1.3956,1.5645,1.7282,1.8816,1.9345,1.9853,2.0232,2.053,2.0861,2.1408,2.1774,2.2066,2.2259,2.2259,2.2259,2.2259,2.2259,2.2259,2.2259,2.2259,2.2259,2.2259,2.2259,2.2259,2.2271,2.2331,2.2633,2.3056,2.3116,2.3442,2.3804,-0.4875,-0.5507,-0.6012,-0.4936,-0.549,-0.5709,-0.4912,-0.4891,-0.4959,-0.4858,-0.4886,-0.4921,-0.4935,-0.4932,-0.4954,-0.5008,-0.5019,-0.5019,-0.5014,-0.5019,-0.5022,-0.5022,-0.5016,-0.4986,-0.4932,-0.4929,-0.4902,-0.4845,-0.4785,-0.4903,-0.5194,-0.3758,-0.3137,-0.3132,-0.0,0.1537,0.1955,0.3634,0.4332,0.4471,0.4058,0.4233,0.4424,0.4142,0.4715,0.5577,0.5716,0.6144,0.6851,0.6766,0.6786,0.6839,0.6762,0.6733,0.6725,0.6725,0.6737,0.6725,0.6635,0.6672,0.6713,0.7031,0.7212,0.7418,0.8119,0.8114,0.7975,0.867,0.862,0.8561,0.8991,0.9512,0.9712,0.9203,0.0,0.0,0.9661,0.9927,1.0406,1.083,1.09,1.09,1.09,1.2015,1.3224,1.4483,1.5977,1.7412,1.8732,1.929,2.0156,2.1179,2.1202,2.1372,2.1873,2.2114,2.2247,2.2259,2.2259,2.2259,2.2259,2.2259,2.2259,2.2259,2.2259,2.2259,2.2259,2.2259,2.2259,2.2283,2.2524,2.279,2.308,2.3333,2.3599,2.3768,-0.4154,-0.4537,-0.4768,-0.4325,-0.4855,-0.508,-0.4906,-0.4845,-0.491,-0.4902,-0.4888,-0.4907,-0.4981,-0.4957,-0.4959,-0.5016,-0.5022,-0.5022,-0.5022,-0.5022,-0.5022,-0.5022,-0.5022,-0.5011,-0.4989,-0.4989,-0.4978,-0.4954,-0.4897,-0.4867,-0.5018,-0.3407,-0.2047,-0.1168,0.1153,0.257,0.3543,0.4254,0.4496,0.4433,0.4611,0.4639,0.4659,0.5222,0.553,0.5703,0.617,0.6446,0.6762,0.6672,0.6664,0.6684,0.6651,0.6643,0.6651,0.6709,0.6725,0.6721,0.6684,0.6794,0.7031,0.7066,0.7477,0.7917,0.8188,0.8319,0.8319,0.859,0.8878,0.9154,0.9299,0.9888,1.0137,0.96,0.0,1.0172,1.0111,1.0496,1.094,1.1305,1.1332,1.1332,1.1044,1.2932,1.4429,1.4894,1.7292,1.8913,1.9542,2.0309,2.109,2.1702,2.187,2.1953,2.2114,2.2211,2.2259,2.2259,2.2259,2.2259,2.2259,2.2259,2.2259,2.2259,2.2259,2.2259,2.2259,2.2259,2.2259,2.2271,2.2367,2.2669,2.3056,2.3164,2.3478,2.3792,-0.3599,-0.384,-0.4068,-0.4035,-0.4425,-0.4812,-0.4812,-0.4864,-0.4916,-0.4957,-0.4927,-0.4932,-0.5011,-0.4986,-0.4978,-0.5016,-0.5022,-0.5022,-0.5022,-0.5022,-0.5022,-0.5022,-0.5022,-0.5022,-0.5022,-0.5022,-0.5022,-0.5022,-0.448,-0.4149,-0.416,-0.1944,-0.0443,0.0741,0.2343,0.3624,0.46,0.458,0.467,0.4733,0.5035,0.5045,0.5181,0.5883,0.6056,0.6092,0.6537,0.6688,0.6754,0.6664,0.6635,0.6627,0.6598,0.659,0.6598,0.6631,0.668,0.6713,0.6656,0.6889,0.7115,0.7184,0.7593,0.7873,0.8205,0.8349,0.851,0.8778,0.9217,0.9515,0.9695,1.0309,1.0482,1.0104,1.0498,1.076,1.0652,1.094,1.1332,1.1619,1.2187,1.2323,1.2029,1.4753,1.6409,1.6263,1.8666,2.0269,2.0485,2.0983,2.1486,2.1981,2.2013,2.2109,2.2259,2.2259,2.2259,2.2259,2.2259,2.2259,2.2259,2.2259,2.2259,2.2259,2.2259,2.2259,2.2259,2.2259,2.2259,2.2259,2.2259,2.2536,2.2923,2.3019,2.3429,2.4037,-0.2936,-0.3435,-0.408,-0.408,-0.4514,-0.4937,-0.4935,-0.4984,-0.5022,-0.5019,-0.5022,-0.5022,-0.5022,-0.5022,-0.5022,-0.5022,-0.5022,-0.5022,-0.5022,-0.5022,-0.5022,-0.5022,-0.5022,-0.5022,-0.5022,-0.5022,-0.5022,-0.5019,-0.3368,-0.2588,-0.2463,0.0741,0.22,0.2225,0.3955,0.4665,0.466,0.46,0.486,0.5143,0.5075,0.5607,0.6163,0.6163,0.6446,0.6729,0.6725,0.6782,0.6839,0.6754,0.6725,0.6709,0.6619,0.659,0.6574,0.6484,0.6586,0.6688,0.6504,0.6791,0.7133,0.7538,0.7479,0.7502,0.8375,0.8412,0.836,0.9177,0.9417,0.9683,1.0242,1.0662,1.1044,1.1044,1.1332,1.1619,1.1619,1.1619,1.1619,1.1619,1.3309,1.4432,1.4432,1.7258,1.896,1.896,2.0098,2.0907,2.145,2.1174,2.1266,2.2247,2.196,2.196,2.2259,2.2259,2.2259,2.2259,2.2259,2.2259,2.2259,2.2259,2.2259,2.2259,2.2259,2.2259,2.2259,2.2259,2.2259,2.2259,2.2259,2.2416,2.2681,2.2947,2.3507,2.4265,-0.2518,-0.3152,-0.3656,-0.369,-0.4391,-0.4921,-0.488,-0.4957,-0.5006,-0.4967,-0.4997,-0.5022,-0.5022,-0.5022,-0.5022,-0.5022,-0.5022,-0.5022,-0.5022,-0.5022,-0.5022,-0.5022,-0.5022,-0.5022,-0.5022,-0.5022,-0.4374,-0.3254,-0.2768,-0.1996,-0.077,0.1196,0.2229,0.2405,0.3971,0.4517,0.4371,0.4791,0.4901,0.4863,0.575,0.6162,0.6252,0.6532,0.6815,0.6807,0.6749,0.67,0.6664,0.6639,0.6586,0.6541,0.6578,0.659,0.6598,0.6635,0.6725,0.6803,0.6749,0.694,0.7089,0.7233,0.7593,0.7873,0.8205,0.8682,0.9041,0.9313,0.9902,1.0498,1.0684,1.109,1.1476,1.1476,1.1476,1.1619,1.1619,1.1525,1.1497,1.1606,1.32,1.4288,1.4415,1.6977,1.8783,1.8949,2.0098,2.0907,2.145,2.133,2.157,2.2247,2.2109,2.2109,2.2259,2.2259,2.2259,2.2259,2.2259,2.2259,2.2259,2.2259,2.2259,2.2259,2.2259,2.2259,2.2259,2.2259,2.2259,2.2259,2.2259,2.2416,2.2834,2.3562,2.4124,2.4419,-0.2561,-0.3056,-0.371,-0.3889,-0.4433,-0.4957,-0.4921,-0.4976,-0.5008,-0.4976,-0.5,-0.5022,-0.5022,-0.5022,-0.5022,-0.5022,-0.5022,-0.5022,-0.5022,-0.5022,-0.5022,-0.5022,-0.5022,-0.4706,-0.4077,-0.4077,-0.3908,-0.357,-0.1536,-0.0153,0.0917,0.2386,0.3255,0.3276,0.4233,0.463,0.4482,0.5036,0.5158,0.5292,0.6055,0.6474,0.6571,0.6856,0.6851,0.6843,0.6758,0.6713,0.6688,0.6656,0.6582,0.6517,0.6574,0.6615,0.6656,0.6713,0.6811,0.6892,0.6823,0.6868,0.7019,0.6898,0.7296,0.7736,0.8023,0.8518,0.917,0.9537,1.0246,1.0985,1.1186,1.1415,1.1619,1.1619,1.1619,1.1599,1.1538,1.145,1.1402,1.1436,1.3571,1.4916,1.5041,1.757,1.9345,1.9358,1.9941,2.0593,2.1124,2.1114,2.1414,2.1941,2.2061,2.2109,2.2109,2.2259,2.2259,2.2259,2.2259,2.2259,2.2259,2.2259,2.2259,2.2259,2.2259,2.2259,2.2259,2.2259,2.2259,2.2259,2.2259,2.2505,2.3128,2.3858,2.434,2.5006,-0.2926,-0.3429,-0.3786,-0.4252,-0.464,-0.5022,-0.5022,-0.5022,-0.5022,-0.5022,-0.5022,-0.5022,-0.5022,-0.5022,-0.5022,-0.5022,-0.5022,-0.5022,-0.5022,-0.5022,-0.5022,-0.5022,-0.4863,-0.392,-0.235,-0.235,-0.3133,-0.4385,0.0153,0.242,0.257,0.3983,0.4668,0.4816,0.4751,0.4869,0.5152,0.5229,0.5665,0.6297,0.6297,0.6583,0.6868,0.6868,0.6868,0.6856,0.6778,0.6794,0.6839,0.6754,0.6672,0.6602,0.6602,0.666,0.6725,0.6725,0.6843,0.6941,0.6782,0.6798,0.6847,0.677,0.6872,0.7208,0.804,0.8403,0.8949,0.9962,1.0607,1.1031,1.1449,1.1619,1.1619,1.1619,1.1749,1.1688,1.155,1.1643,1.172,1.1586,1.4283,1.631,1.633,1.8776,2.0269,1.9845,1.9869,2.011,2.0605,2.0602,2.0697,2.1202,2.146,2.159,2.1751,2.2061,2.2235,2.2259,2.2259,2.2259,2.2259,2.2259,2.2259,2.2259,2.2259,2.2259,2.2259,2.2259,2.2408,2.2408,2.2408,2.2856,2.3625,2.3907,2.4714,2.5842,-0.3138,-0.347,-0.3807,-0.4347,-0.4693,-0.5022,-0.5022,-0.5022,-0.5022,-0.5022,-0.5022,-0.5022,-0.5022,-0.5022,-0.5022,-0.5022,-0.5022,-0.5022,-0.5022,-0.5022,-0.5022,-0.5022,-0.3764,-0.2194,-0.0627,-0.188,-0.1404,0.0773,0.1828,0.3026,0.4235,0.4572,0.4836,0.5173,0.5399,0.5367,0.5219,0.6217,0.6365,0.5946,0.6528,0.6962,0.6962,0.6962,0.6962,0.6958,0.6937,0.6896,0.6839,0.6754,0.6713,0.6696,0.6696,0.6713,0.6725,0.6725,0.6798,0.6876,0.6835,0.6892,0.6958,0.6937,0.6962,0.7225,0.7715,0.8739,0.9536,1.0082,1.0896,1.1435,1.1613,1.1619,1.1619,1.1619,1.2507,1.3107,1.3068,1.3779,1.4305,1.442,1.6315,1.7619,1.7792,1.9311,2.0182,1.9567,1.976,2.0026,2.0352,2.0201,2.0485,2.1078,2.1053,2.1195,2.1498,2.1848,2.2054,2.2259,2.2259,2.2259,2.2259,2.2259,2.2259,2.2259,2.2259,2.2259,2.2259,2.2259,2.2707,2.3154,2.3154,2.3587,2.4502,2.5391,2.5769,2.58,-0.3353,-0.3684,-0.4176,-0.4542,-0.4865,-0.5022,-0.5022,-0.5022,-0.5022,-0.5022,-0.5022,-0.5022,-0.5022,-0.5022,-0.5022,-0.5022,-0.5022,-0.5022,-0.5022,-0.5022,-0.4706,-0.392,-0.2978,-0.141,0.1096,0.0313,0.109,0.3546,0.3501,0.3771,0.4499,0.4825,0.5087,0.529,0.5627,0.5883,0.6058,0.6494,0.6494,0.6354,0.6829,0.699,0.699,0.699,0.699,0.6986,0.6941,0.6868,0.6786,0.6741,0.6725,0.6733,0.6774,0.6786,0.6794,0.6839,0.6884,0.6917,0.6917,0.6954,0.699,0.699,0.7276,0.767,0.8086,0.8839,0.9763,1.042,1.1083,1.1599,1.1525,1.1511,1.1511,1.1511,1.2841,1.3883,1.3883,1.5083,1.5866,1.5644,1.7002,1.8136,1.8542,1.9352,1.9695,1.9289,1.9422,1.9615,1.9869,1.9858,2.0051,2.0309,2.0542,2.074,2.0885,2.1317,2.1594,2.1885,2.2138,2.2259,2.2259,2.2259,2.2259,2.2259,2.2259,2.2259,2.2259,2.2707,2.3005,2.3438,2.3883,2.4462,2.5212,2.5834,2.6234,2.6399,-0.3717,-0.4055,-0.4554,-0.4865,-0.5022,-0.5022,-0.5022,-0.5022,-0.5022,-0.5022,-0.5022,-0.5022,-0.5022,-0.5022,-0.5022,-0.5022,-0.5022,-0.5022,-0.5022,-0.4706,-0.392,-0.2507,-0.188,-0.0313,0.2507,0.2816,0.358,0.4937,0.4867,0.4649,0.444,0.4915,0.5317,0.5364,0.5834,0.6245,0.6876,0.6594,0.6733,0.6884,0.6958,0.699,0.699,0.699,0.699,0.6978,0.6905,0.6831,0.677,0.677,0.677,0.6782,0.6856,0.6876,0.6892,0.6966,0.699,0.699,0.699,0.7135,0.7135,0.7135,0.7711,0.841,0.8749,0.9231,0.9706,1.0747,1.1246,1.1579,1.1457,1.143,1.143,1.143,1.3208,1.4562,1.4562,1.6294,1.7214,1.6563,1.7423,1.8392,1.9096,1.9072,1.9072,1.9072,1.9072,1.9169,1.9386,1.9468,1.9574,1.9427,1.9872,2.0123,2.0169,2.0647,2.0958,2.127,2.208,2.2335,2.2198,2.2247,2.2259,2.2259,2.2259,2.2259,2.2408,2.3154,2.3438,2.3735,2.4409,2.5263,2.5862,2.5862,2.6314,2.6765,-0.3745,-0.4079,-0.4554,-0.4865,-0.5022,-0.5022,-0.5022,-0.5022,-0.5022,-0.5022,-0.5022,-0.5022,-0.5022,-0.5022,-0.5022,-0.5022,-0.5022,-0.5022,-0.5022,-0.3605,-0.2664,-0.2507,0.0313,0.2037,0.2507,0.3882,0.4634,0.4937,0.4823,0.4884,0.5113,0.5467,0.5862,0.6162,0.6929,0.7246,0.697,0.7259,0.7259,0.697,0.6986,0.699,0.699,0.699,0.699,0.6986,0.6974,0.6962,0.6954,0.6954,0.6954,0.6958,0.6966,0.697,0.6974,0.6986,0.699,0.699,0.699,0.7421,0.7996,0.7996,0.8579,0.9296,1.0,1.0299,1.0449,1.0875,1.1319,1.1613,1.1592,1.1586,1.1586,1.1586,1.4131,1.5948,1.5948,1.8083,1.9519,1.9446,1.9124,1.898,1.9072,1.9072,1.9072,1.9072,1.9072,1.9096,1.9132,1.9019,1.917,1.9294,1.9312,1.9427,1.9644,2.0285,2.0544,2.0698,2.2224,2.2631,2.1933,2.2162,2.2259,2.2259,2.2259,2.2259,2.2408,2.3154,2.3883,2.4435,2.5056,2.5682,2.643,2.643,2.6286,2.6171,-0.376,-0.4238,-0.4865,-0.5022,-0.5022,-0.5022,-0.5022,-0.5022,-0.5022,-0.5022,-0.5022,-0.5022,-0.5022,-0.5022,-0.5022,-0.5022,-0.5022,-0.4549,-0.3605,-0.2978,-0.1724,0.0157,0.1713,0.2794,0.3572,0.4146,0.4717,0.4837,0.4928,0.4869,0.4662,0.5607,0.6166,0.635,0.6917,0.7229,0.7276,0.7276,0.7131,0.699,0.699,0.699,0.699,0.699,0.699,0.699,0.699,0.699,0.699,0.699,0.699,0.699,0.699,0.699,0.699,0.699,0.699,0.7135,0.7566,0.7851,0.814,0.8719,0.9446,1.0023,1.0455,1.0887,1.1181,1.1332,1.1476,1.1592,1.1504,1.1491,1.1768,1.2887,1.5041,1.6914,1.775,1.9757,2.0857,2.0148,1.9487,1.9072,1.9072,1.9205,1.9289,1.9289,1.9434,1.9531,1.9531,1.9385,1.9306,1.9275,1.9107,1.9161,1.9262,1.9662,1.9929,2.0225,2.1872,2.2568,2.2593,2.3311,2.329,2.3005,2.3438,2.329,2.3005,2.4179,2.4918,2.5318,2.5753,2.5955,2.5968,2.6156,2.5927,2.5654]},{"header":{"parameterUnit":"m.s-1","parameterCategory":1,"la1":30.6,"la2":28.766,"lo1":-90.7593,"lo2":-88.6598,"dx":0.0162,"dy":0.0183,"nx":116,"ny":114,"refTime":"2022-11-22T18:00:00:Z","depth":0,"parameterNumber":3,"parameterNumberName":"V-component_of_WINDS"},"data":[0.0,0.0,0.0,0.0,0.0,0.0,0.0,0.0,0.0,0.0,0.0,0.0,0.0,0.0,0.0,0.0,0.0,0.0,0.0,0.0,0.0,0.0,0.0,0.0,0.0,0.0,0.0,0.0,0.0,0.0,0.0,0.0,0.0,0.0,0.0,0.0,0.0,0.0,0.0,0.0,0.0,0.0,0.0,0.0,0.0,0.0,0.0,0.0,0.0,0.0,0.0,0.0,0.0,0.0,0.0,0.0,0.0,0.0,0.0,0.0,0.0,0.0,0.0,0.0,0.0,0.0,0.0,0.0,0.0,0.0,0.0,0.0,0.0,0.0,0.0,0.0,0.0,0.0,0.0,0.0,0.0,0.0,0.0,0.0,0.0,0.0,0.0,0.0,0.0,0.0,0.0,0.0,0.0,0.0,0.0,0.0,0.0,0.0,0.0,0.0,0.0,0.0,0.0,0.0,0.0,0.0,0.0,0.0,0.0,0.0,0.0,0.0,0.0,0.0,0.0,0.0,0.0,0.0,0.0,0.0,0.0,0.0,0.0,0.0,0.0,0.0,0.0,0.0,0.0,0.0,0.0,0.0,0.0,0.0,0.0,0.0,0.0,0.0,0.0,0.0,0.0,0.0,0.0,0.0,0.0,0.0,0.0,0.0,0.0,0.0,0.0,0.0,0.0,0.0,0.0,0.0,0.0,0.0,0.0,0.0,0.0,0.0,0.0,0.0,0.0,0.0,0.0,0.0,0.0,0.0,0.0,0.0,0.0,0.0,0.0,0.0,0.0,0.0,0.0,0.0,0.0,0.0,0.0,0.0,0.0,0.0,0.0,0.0,0.0,0.0,0.0,0.0,0.0,0.0,0.0,0.0,0.0,0.0,0.0,0.0,0.0,0.0,0.0,0.0,0.0,0.0,0.0,0.0,0.0,0.0,0.0,0.0,0.0,0.0,0.0,0.0,0.0,0.0,0.0,0.0,0.0,0.0,0.0,0.0,0.0,0.0,0.0,0.0,0.0,0.0,0.0,0.0,0.0,0.0,0.0,0.0,0.0,0.0,0.0,0.0,0.0,0.0,0.0,0.0,0.0,0.0,0.0,0.0,0.0,0.0,0.0,0.0,0.0,0.0,0.0,0.0,0.0,0.0,0.0,0.0,0.0,0.0,0.0,0.0,0.0,0.0,0.0,0.0,0.0,0.0,0.0,0.0,0.0,0.0,0.0,0.0,0.0,0.0,0.0,0.0,0.0,0.0,0.0,0.0,0.0,0.0,0.0,0.0,0.0,0.0,0.0,0.0,0.0,0.0,0.0,0.0,0.0,0.0,0.0,0.0,0.0,0.0,0.0,0.0,0.0,0.0,0.0,0.0,0.0,0.0,0.0,0.0,0.0,0.0,0.0,0.0,0.0,0.0,0.0,0.0,0.0,0.0,0.0,0.0,0.0,0.0,0.0,0.0,0.0,0.0,0.0,0.0,0.0,0.0,0.0,0.0,0.0,0.0,0.0,0.0,0.0,0.0,0.0,0.0,0.0,0.0,0.0,0.0,0.0,0.0,0.0,0.0,0.0,0.0,0.0,0.0,0.0,0.0,0.0,0.0,0.0,0.0,0.0,0.0,0.0,0.0,0.0,0.0,0.0,0.0,0.0,0.0,0.0,0.0,0.0,0.0,0.0,0.0,0.0,0.0,0.0,0.0,0.0,0.0,0.0,0.0,0.0,0.0,0.0,0.0,0.0,0.0,0.0,0.0,0.0,0.0,0.0,0.0,0.0,0.0,0.0,0.0,0.0,0.0,0.0,0.0,0.0,0.0,0.0,0.0,0.0,0.0,0.0,0.0,0.0,0.0,0.0,0.0,0.0,0.0,0.0,0.0,0.0,0.0,0.0,0.0,0.0,0.0,0.0,0.0,0.0,0.0,0.0,0.0,0.0,0.0,0.0,0.0,0.0,0.0,0.0,0.0,0.0,0.0,0.0,0.0,0.0,0.0,0.0,0.0,0.0,0.0,0.0,0.0,0.0,0.0,0.0,0.0,0.0,0.0,0.0,0.0,0.0,0.0,0.0,0.0,0.0,0.0,0.0,0.0,0.0,0.0,0.0,0.0,0.0,0.0,0.0,0.0,0.0,0.0,0.0,0.0,0.0,0.0,0.0,0.0,0.0,0.0,0.0,0.0,0.0,0.0,0.0,0.0,0.0,0.0,0.0,0.0,0.0,0.0,0.0,0.0,0.0,0.0,0.0,0.0,0.0,0.0,0.0,0.0,0.0,0.0,0.0,0.0,0.0,0.0,0.0,0.0,0.0,0.0,0.0,0.0,0.0,0.0,0.0,0.0,0.0,0.0,0.0,0.0,0.0,0.0,0.0,0.0,0.0,0.0,0.0,0.0,0.0,0.0,0.0,0.0,0.0,0.0,0.0,0.0,0.0,0.0,0.0,0.0,0.0,0.0,0.0,0.0,0.0,0.0,0.0,0.0,0.0,0.0,0.0,0.0,0.0,0.0,0.0,0.0,0.0,0.0,0.0,0.0,0.0,0.0,0.0,0.0,0.0,0.0,0.0,0.0,0.0,0.0,0.0,0.0,0.0,0.0,0.0,0.0,0.0,0.0,0.0,0.0,0.0,0.0,0.0,0.0,0.0,0.0,0.0,0.0,0.0,0.0,0.0,0.0,0.0,0.0,0.0,0.0,0.0,0.0,0.0,0.0,0.0,0.0,0.0,0.0,0.0,0.0,0.0,0.0,0.0,0.0,0.0,0.0,0.0,0.0,0.0,0.0,0.0,0.0,0.0,0.0,0.0,0.0,0.0,0.0,0.0,0.0,0.0,0.0,0.0,0.0,0.0,0.0,0.0,0.0,0.0,0.0,0.0,0.0,0.0,0.0,0.0,0.0,0.0,0.0,0.0,0.0,0.0,0.0,0.0,0.0,0.0,0.0,0.0,0.0,0.0,0.0,0.0,0.0,0.0,0.0,0.0,0.0,0.0,0.0,0.0,0.0,0.0,0.0,0.0,0.0,0.0,0.0,0.0,0.0,0.0,0.0,0.0,0.0,0.0,0.0,0.0,0.0,0.0,0.0,0.0,0.0,0.0,0.0,0.0,0.0,0.0,0.0,0.0,0.0,0.0,0.0,0.0,0.0,0.0,0.0,0.0,0.0,0.0,0.0,0.0,0.0,0.0,0.0,0.0,0.0,0.0,0.0,0.0,0.0,0.0,0.0,0.0,0.0,0.0,0.0,0.0,0.0,0.0,0.0,0.0,0.0,0.0,0.0,0.0,0.0,0.0,0.0,0.0,0.0,0.0,0.0,0.0,0.0,0.0,0.0,0.0,0.0,0.0,0.0,0.0,0.0,0.0,0.0,0.0,0.0,0.0,0.0,0.0,0.0,0.0,0.0,0.0,0.0,0.0,0.0,0.0,0.0,0.0,0.0,0.0,0.0,0.0,0.0,0.0,0.0,0.0,0.0,0.0,0.0,0.0,0.0,0.0,0.0,0.0,0.0,0.0,0.0,0.0,0.0,0.0,0.0,0.0,0.0,0.0,0.0,0.0,0.0,0.0,0.0,0.0,0.0,0.0,0.0,0.0,0.0,0.0,0.0,0.0,0.0,0.0,0.0,0.0,0.0,0.0,0.0,0.0,0.0,0.0,0.0,0.0,0.0,0.0,0.0,0.0,0.0,0.0,0.0,0.0,0.0,0.0,0.0,0.0,0.0,0.0,0.0,0.0,0.0,0.0,0.0,0.0,0.0,0.0,0.0,0.0,0.0,0.0,0.0,0.0,0.0,0.0,0.0,0.0,0.0,0.0,0.0,0.0,0.0,0.0,0.0,0.0,0.0,0.0,0.0,0.0,0.0,0.0,0.0,0.0,0.0,0.0,0.0,0.0,0.0,0.0,0.0,0.0,0.0,0.0,0.0,0.0,0.0,0.0,0.0,0.0,0.0,0.0,0.0,0.0,0.0,0.0,0.0,0.0,0.0,0.0,0.0,0.0,0.0,0.0,0.0,0.0,0.0,0.0,0.0,0.0,0.0,0.0,0.0,0.0,0.0,0.0,0.0,0.0,0.0,0.0,0.0,0.0,0.0,0.0,0.0,0.0,0.0,0.0,0.0,0.0,0.0,0.0,0.0,0.0,0.0,0.0,0.0,0.0,0.0,0.0,0.0,0.0,0.0,0.0,0.0,0.0,0.0,0.0,0.0,0.0,0.0,0.0,0.0,0.0,0.0,0.0,0.0,0.0,0.0,0.0,0.0,0.0,0.0,0.0,0.0,0.0,0.0,0.0,0.0,0.0,0.0,0.0,0.0,0.0,0.0,0.0,0.0,0.0,0.0,0.0,0.0,0.0,0.0,0.0,0.0,0.0,0.0,0.0,0.0,0.0,0.0,0.0,0.0,0.0,0.0,0.0,0.0,0.0,0.0,0.0,0.0,0.0,0.0,0.0,0.0,0.0,0.0,0.0,0.0,0.0,0.0,0.0,0.0,0.0,0.0,0.0,0.0,0.0,0.0,0.0,0.0,0.0,0.0,0.0,0.0,0.0,0.0,0.0,0.0,0.0,0.0,0.0,0.0,0.0,0.0,0.0,0.0,0.0,0.0,0.0,0.0,0.0,0.0,0.0,0.0,0.0,0.0,0.0,0.0,0.0,0.0,0.0,0.0,0.0,0.0,0.0,0.0,0.0,0.0,0.0,0.0,0.0,0.0,0.0,0.0,0.0,0.0,0.0,0.0,0.0,0.0,0.0,0.0,0.0,0.0,0.0,0.0,0.0,0.0,0.0,0.0,0.0,0.0,0.0,0.0,0.0,0.0,0.0,0.0,0.0,0.0,0.0,0.0,0.0,0.0,0.0,0.0,0.0,0.0,0.0,0.0,0.0,0.0,0.0,0.0,0.0,0.0,0.0,0.0,0.0,0.0,0.0,0.0,0.0,0.0,0.0,0.0,0.0,0.0,0.0,0.0,0.0,0.0,0.0,0.0,0.0,0.0,0.0,0.0,0.0,0.0,0.0,0.0,0.0,0.0,0.0,0.0,0.0,0.0,0.0,0.0,0.0,0.0,0.0,0.0,0.0,0.0,0.0,0.0,0.0,0.0,0.0,0.0,0.0,0.0,0.0,0.0,0.0,0.0,0.0,0.0,0.0,0.0,0.0,0.0,0.0,0.0,0.0,0.0,0.0,0.0,0.0,0.0,0.0,0.0,0.0,0.0,0.0,0.0,0.0,0.0,0.0,0.0,0.0,0.0,0.0,0.0,0.0,0.0,0.0,0.0,0.0,0.0,0.0,0.0,0.0,0.0,0.0,0.0,0.0,0.0,0.0,0.0,0.0,0.0,0.0,0.0,0.0,0.0,0.0,0.0,0.0,0.0,0.0,0.0,0.0,0.0,0.0,0.0,0.0,0.0,0.0,0.0,0.0,0.0,0.0,0.0,0.0,0.0,0.0,0.0,0.0,0.0,0.0,0.0,0.0,0.0,0.0,0.0,0.0,0.0,0.0,0.0,0.0,0.0,0.0,0.0,0.0,0.0,0.0,0.0,0.0,0.0,0.0,0.0,0.0,0.0,0.0,0.0,0.0,0.0,0.0,0.0,0.0,0.0,0.0,0.0,0.0,0.0,0.0,0.0,0.0,0.0,0.0,0.0,0.0,0.0,0.0,0.0,0.0,0.0,0.0,0.0,0.0,0.0,0.0,0.0,0.0,0.0,0.0,0.0,0.0,0.0,0.0,0.0,0.0,0.0,0.0,0.0,0.0,0.0,0.0,0.0,0.0,0.0,0.0,0.0,0.0,0.0,0.0,0.0,0.0,0.0,0.0,0.0,0.0,0.0,0.0,0.0,0.0,0.0,0.0,0.0,0.0,0.0,0.0,0.0,0.0,0.0,0.0,0.0,0.0,0.0,0.0,0.0,0.0,0.0,0.0,0.0,0.0,0.0,0.0,0.0,0.0,0.0,0.0,0.0,0.0,0.0,0.0,0.0,0.0,0.0,0.0,0.0,0.0,0.0,0.0,0.0,0.0,0.0,0.0,0.0,0.0,0.0,0.0,0.0,0.0,0.0,0.0,0.0,0.0,0.0,0.0,0.0,0.0,0.0,0.0,0.0,0.0,0.0,-3.4705,0.0,0.0,0.0,0.0,0.0,0.0,0.0,0.0,0.0,0.0,0.0,0.0,0.0,0.0,0.0,0.0,0.0,0.0,0.0,0.0,0.0,0.0,0.0,0.0,-1.9087,-1.9087,-1.9087,-1.9087,0.0,0.0,0.0,0.0,0.0,0.0,0.0,0.0,0.0,-1.99,-2.033,-2.2093,-2.3834,-2.5551,-2.5089,-2.3847,-2.1872,0.0,0.0,0.0,0.0,0.0,0.0,0.0,0.0,0.0,0.0,0.0,0.0,0.0,0.0,0.0,0.0,0.0,0.0,0.0,0.0,0.0,0.0,0.0,0.0,0.0,0.0,0.0,0.0,0.0,0.0,0.0,0.0,0.0,0.0,0.0,0.0,0.0,0.0,0.0,0.0,0.0,0.0,0.0,0.0,0.0,0.0,0.0,0.0,0.0,0.0,0.0,0.0,0.0,0.0,0.0,0.0,0.0,0.0,0.0,0.0,0.0,0.0,0.0,0.0,0.0,0.0,0.0,0.0,0.0,0.0,0.0,-3.5767,0.0,0.0,0.0,0.0,0.0,0.0,0.0,0.0,0.0,0.0,0.0,0.0,0.0,0.0,0.0,0.0,0.0,0.0,0.0,0.0,0.0,-1.9159,-1.9268,-1.9304,-1.9377,-1.9522,-1.9522,-1.9522,-1.9522,-1.9522,0.0,0.0,0.0,0.0,0.0,0.0,-2.106,-2.2167,-2.4817,-2.7716,-3.0733,-3.0175,-2.7629,-2.3491,-2.3549,0.0,0.0,0.0,0.0,0.0,0.0,0.0,0.0,0.0,0.0,0.0,0.0,0.0,0.0,0.0,0.0,0.0,0.0,0.0,0.0,0.0,0.0,0.0,0.0,0.0,0.0,0.0,0.0,0.0,0.0,0.0,0.0,0.0,0.0,0.0,0.0,0.0,0.0,0.0,0.0,0.0,0.0,0.0,0.0,0.0,0.0,0.0,0.0,0.0,0.0,0.0,0.0,0.0,0.0,0.0,0.0,0.0,0.0,0.0,0.0,0.0,0.0,0.0,0.0,0.0,-4.4267,-4.4579,-4.4709,-4.461,-4.2524,-3.9997,-3.7379,0.0,0.0,0.0,0.0,0.0,0.0,0.0,0.0,0.0,0.0,0.0,0.0,0.0,0.0,0.0,0.0,0.0,0.0,0.0,0.0,-1.9377,-2.0065,-2.0137,-2.0427,-2.1115,-2.1188,-2.1188,-2.1188,-2.1188,0.0,0.0,0.0,0.0,0.0,-2.1442,-2.2314,-2.395,-2.6876,-2.8935,-3.019,-3.0129,-2.968,-2.8973,-2.8988,-2.8221,-2.6844,0.0,0.0,0.0,0.0,0.0,0.0,0.0,0.0,0.0,0.0,0.0,0.0,0.0,0.0,0.0,0.0,0.0,0.0,0.0,0.0,0.0,0.0,0.0,0.0,0.0,0.0,0.0,0.0,0.0,0.0,0.0,0.0,0.0,0.0,0.0,0.0,0.0,0.0,0.0,0.0,0.0,-3.4735,-3.2722,0.0,0.0,0.0,0.0,0.0,0.0,0.0,0.0,0.0,0.0,0.0,0.0,0.0,0.0,-4.1557,-4.2507,-4.3022,-4.3186,-4.5454,-4.6678,-4.6964,-4.8468,-4.9198,-4.9229,-4.8903,0.0,-4.258,-4.1172,0.0,0.0,0.0,0.0,0.0,0.0,0.0,0.0,0.0,0.0,0.0,0.0,0.0,0.0,0.0,0.0,0.0,0.0,0.0,0.0,0.0,-2.2008,-2.3211,-2.3392,-2.4765,-2.4969,-2.3515,-2.3407,0.0,0.0,0.0,0.0,0.0,0.0,-2.5707,-2.9549,-3.0907,-3.2542,-3.4344,-3.3815,-3.3819,-3.4203,-3.3711,-3.1758,-2.8814,-2.7538,0.0,0.0,0.0,0.0,0.0,0.0,0.0,0.0,0.0,0.0,0.0,0.0,0.0,0.0,0.0,0.0,0.0,0.0,0.0,0.0,0.0,0.0,0.0,0.0,0.0,0.0,0.0,0.0,0.0,0.0,0.0,0.0,0.0,0.0,0.0,0.0,0.0,0.0,0.0,-3.3021,-3.4525,-3.1903,-3.36,-3.3928,0.0,0.0,0.0,0.0,0.0,0.0,0.0,0.0,0.0,-3.9151,-4.3408,-4.5304,-4.4443,-4.6231,-4.733,-4.7855,-4.8982,-5.0042,-5.1026,-5.1775,-5.2152,-5.2185,-5.222,-5.1185,-4.9201,-4.6011,-4.386,-4.2451,0.0,0.0,0.0,0.0,0.0,0.0,0.0,0.0,0.0,0.0,0.0,0.0,0.0,0.0,0.0,0.0,0.0,0.0,-2.1728,-2.4474,-2.6228,-2.6105,-2.7912,-2.7997,-2.5384,-2.5203,-2.4252,0.0,0.0,0.0,0.0,0.0,0.0,-3.3655,-3.42,-3.5529,-3.7604,-3.6919,-3.692,-3.7451,-3.6785,-3.4415,-3.0793,-2.9596,-2.851,-2.74,0.0,0.0,0.0,0.0,0.0,0.0,0.0,0.0,0.0,0.0,0.0,0.0,0.0,0.0,0.0,0.0,0.0,0.0,0.0,0.0,0.0,0.0,0.0,0.0,0.0,0.0,0.0,0.0,0.0,0.0,0.0,0.0,0.0,0.0,0.0,0.0,0.0,-3.3924,-3.5437,-3.1951,-3.4719,-3.5886,0.0,0.0,0.0,0.0,0.0,0.0,-3.7904,-4.2138,-4.3918,-4.2537,-4.7066,-4.8914,-4.7727,-4.9582,-5.0992,-5.1852,-5.1614,-5.2313,-5.3758,-5.3768,-5.3789,-5.3818,-5.3869,-5.3891,-5.3637,-4.9981,-4.7372,-4.5611,-4.5172,-4.5011,0.0,-4.5724,-4.6119,-4.6396,0.0,0.0,0.0,0.0,0.0,0.0,0.0,0.0,0.0,0.0,0.0,-2.3256,-2.5564,-2.75,-2.8798,-2.9242,-2.9668,-2.8822,-2.6237,-2.6033,-2.5334,-2.3759,-2.3687,0.0,0.0,0.0,0.0,-3.3805,-3.5379,-3.6634,-3.7489,-3.7451,-3.7432,-3.7392,-3.7334,-3.5913,-3.3483,-3.343,-3.2479,-3.0852,-2.837,0.0,0.0,0.0,0.0,0.0,0.0,0.0,0.0,0.0,0.0,0.0,0.0,0.0,0.0,0.0,0.0,0.0,0.0,0.0,0.0,0.0,0.0,0.0,0.0,0.0,0.0,0.0,0.0,0.0,0.0,0.0,0.0,0.0,0.0,0.0,0.0,0.0,0.0,-3.4969,-3.7987,0.0,0.0,0.0,0.0,-4.2394,-4.2833,-4.326,-4.4095,-4.6758,-4.7881,-4.7105,-5.0398,-5.2173,-5.2096,-5.2212,-5.2717,-5.3545,-5.2717,-5.2834,-5.3701,-5.3779,-5.3808,-5.3818,-5.3884,-5.3904,-5.3748,-5.1954,-5.1089,-5.0771,-4.9166,-4.8542,-4.8548,-4.8599,-4.9112,-4.9859,0.0,0.0,0.0,-1.9087,-1.9087,-1.9087,-1.9087,-1.9522,-1.9992,-2.0246,-2.2937,-2.5235,-2.6293,-2.9648,-3.1865,-3.2053,-3.2987,-3.2502,-2.9848,-2.8766,-2.7312,-2.5301,-2.4824,0.0,0.0,0.0,-3.345,-3.6254,-3.6806,-3.7205,-3.7489,-3.745,-3.7409,-3.7406,-3.7406,-3.6914,-3.5987,-3.5003,-3.3883,-3.2703,-3.1331,-2.9497,0.0,0.0,0.0,0.0,0.0,0.0,0.0,0.0,0.0,0.0,0.0,0.0,0.0,0.0,0.0,0.0,0.0,0.0,0.0,0.0,0.0,0.0,0.0,0.0,0.0,0.0,0.0,0.0,0.0,0.0,0.0,0.0,0.0,0.0,0.0,0.0,0.0,-3.8724,-4.1845,0.0,0.0,-4.1563,-4.2703,-4.4783,-4.655,-4.74,-4.7201,-5.0673,-5.2033,-5.067,-5.2873,-5.3805,-5.3222,-5.3222,-5.365,-5.4543,-5.4232,-5.4529,-5.5392,-5.5413,-5.5453,-5.5537,-5.556,-5.5574,-5.5549,-5.4918,-5.4021,-5.2922,-5.235,-5.2161,-5.22,-5.2713,-5.3108,-5.3454,0.0,0.0,0.0,-1.9087,-1.9087,-1.9087,-1.9087,-1.9775,-2.0662,-2.1728,-2.4882,-2.7489,-2.8724,-3.2155,-3.4295,-3.4147,-3.4811,-3.4145,-3.1505,-3.017,-2.8488,-2.6213,-2.6344,0.0,0.0,-3.3559,-3.5229,-3.7965,-3.7621,-3.7753,-3.8284,-3.794,-3.7957,-3.8239,-3.8239,-3.8239,-3.8163,-3.7106,-3.616,-3.5287,-3.3919,-3.1863,-2.9665,0.0,0.0,0.0,0.0,0.0,0.0,0.0,0.0,0.0,0.0,0.0,0.0,0.0,0.0,0.0,0.0,0.0,0.0,0.0,0.0,0.0,0.0,0.0,0.0,0.0,0.0,0.0,0.0,0.0,0.0,0.0,0.0,0.0,0.0,0.0,-4.1651,-4.1662,-4.4738,-4.6484,-4.5653,-4.608,-4.7129,-4.8825,-5.0619,-5.1381,-5.0798,-5.3468,-5.4349,-5.2873,-5.4232,-5.4854,-5.4582,-5.4284,-5.4711,-5.5877,-5.5279,-5.5508,-5.6329,-5.6339,-5.6416,-5.6496,-5.6503,-5.651,-5.6485,-5.6485,-5.5822,-5.4768,-5.4819,-5.4825,-5.4909,-5.5449,-5.584,-5.6185,0.0,0.0,-1.9087,-1.9087,-1.9087,-1.9087,-1.9123,-1.9811,-2.1439,-2.4518,-2.7245,-2.9988,-3.3002,-3.5009,-3.5891,-3.545,-3.4888,-3.3412,-3.0784,-3.006,-2.8732,-2.6518,0.0,0.0,-3.4706,-3.4823,-3.6113,-3.8736,-3.7898,-3.8315,-3.9889,-3.9034,-3.911,-3.9889,-3.9889,-3.9889,-3.9889,-3.9927,-3.9456,-3.8529,-3.6122,-3.4603,-3.3591,0.0,0.0,0.0,0.0,0.0,0.0,0.0,0.0,0.0,0.0,0.0,0.0,0.0,0.0,0.0,0.0,0.0,0.0,0.0,0.0,0.0,0.0,0.0,0.0,0.0,0.0,0.0,0.0,0.0,0.0,0.0,0.0,0.0,-3.7224,-4.2276,-4.5374,-4.3912,-4.6696,-4.9059,-4.9953,-5.0031,-5.142,-5.4776,-5.5048,-5.5048,-5.5048,-5.5048,-5.466,-5.3805,-5.4582,-5.5437,-5.6291,-5.5474,-5.5913,-5.7585,-5.5979,-5.5658,-5.6475,-5.6519,-5.6535,-5.6535,-5.6517,-5.6485,-5.6485,-5.6524,-5.6524,-5.6524,-5.6524,-5.6491,-5.6503,-5.6491,-5.7024,-5.7882,-1.9268,-1.9087,-1.9087,-1.9087,-1.9087,-1.9304,-1.9884,-2.0644,-2.2271,-2.5384,-2.834,-3.1237,-3.4025,-3.497,-3.5519,-3.5747,-3.4294,-3.2845,-3.1565,-3.0348,-2.9559,-2.9296,0.0,0.0,-3.6481,-3.723,-3.8239,-3.9504,-3.9255,-3.9369,-3.9807,-3.9558,-3.9618,-3.9889,-3.9889,-3.9889,-3.9927,-4.0593,-4.0366,-3.9532,-3.8812,-3.6994,-3.4679,0.0,0.0,0.0,0.0,0.0,0.0,0.0,0.0,0.0,0.0,0.0,0.0,0.0,0.0,0.0,0.0,0.0,0.0,0.0,0.0,0.0,0.0,0.0,0.0,0.0,0.0,0.0,0.0,0.0,0.0,0.0,0.0,-4.4393,-4.4369,-4.5836,-4.79,-5.0569,-5.1163,-5.1952,-5.3468,-5.304,-5.3584,-5.5786,-5.5942,-5.5942,-5.5942,-5.5942,-5.5825,-5.5592,-5.5825,-5.6071,-5.629,-5.6675,-5.7164,-5.7653,-5.7848,-5.8078,-5.8336,-5.7726,-5.7421,-5.7395,-5.677,-5.6497,-5.6563,-5.7187,-5.746,-5.7382,-5.677,-5.6497,-5.6491,-5.6485,-5.6659,-5.6987,-1.9775,-1.934,-1.9087,-1.9087,-1.9377,-1.9775,-2.0246,-2.126,-2.3376,-2.7127,-2.9248,-3.1618,-3.4788,-3.4943,-3.4918,-3.5178,-3.3486,-3.225,-3.1906,-3.0994,-3.1249,0.0,0.0,-3.6497,-3.8131,-3.8839,-3.9586,-4.0397,-4.0034,-4.0012,-4.0352,-3.9951,-3.9823,-3.9867,-3.9845,-3.9845,-3.9905,-4.0397,-4.0321,-3.9867,-3.9889,-3.834,-3.6103,-3.6558,-3.521,-3.3042,-3.3042,-3.2813,-3.2357,-3.1423,0.0,0.0,0.0,0.0,0.0,0.0,0.0,0.0,0.0,0.0,0.0,0.0,0.0,0.0,0.0,0.0,0.0,0.0,0.0,0.0,0.0,0.0,0.0,0.0,-4.425,-4.7893,-4.9678,-4.9637,-5.0514,-5.3339,-5.3261,-5.3339,-5.4349,-5.431,-5.4504,-5.5165,-5.5553,-5.5747,-5.5747,-5.6097,-5.6291,-5.6291,-5.6278,-5.6496,-5.6831,-5.704,-5.7342,-5.7702,-5.7853,-5.8155,-5.8526,-5.8025,-5.7991,0.0,-5.8192,-5.8148,-5.8175,-5.8682,-5.8877,0.0,0.0,0.0,0.0,0.0,-5.7549,-5.768,-2.0463,-1.9739,-1.9232,-1.9232,-1.9811,-2.0355,-2.0536,-2.1803,-2.4447,-2.93,-3.0035,-3.1591,-3.5385,-3.5006,-3.4371,-3.4199,-3.2644,-3.1816,-3.2076,-3.2155,0.0,-3.6646,-3.7211,-3.8116,-3.9513,-3.98,-4.0306,-4.1177,-4.0299,-4.0314,-4.1071,-4.0193,-3.9815,-3.98,-3.9754,-3.9717,-3.98,-3.9876,-3.9898,-3.9823,-3.9981,-3.9115,-3.7753,-3.7753,-3.6388,-3.4486,-3.4486,-3.3992,-3.3346,-3.3215,0.0,0.0,0.0,0.0,0.0,0.0,0.0,0.0,0.0,0.0,0.0,0.0,0.0,0.0,0.0,0.0,0.0,0.0,0.0,0.0,0.0,0.0,0.0,0.0,-4.6102,-4.936,-5.33,-5.2989,-5.2756,-5.3727,-5.3766,-5.3727,-5.3844,-5.4465,-5.4582,-5.3883,-5.466,-5.5165,-5.5165,0.0,0.0,0.0,0.0,-5.6658,-5.7476,-5.6931,-5.7042,-5.786,-5.7232,-5.7406,-5.8231,-5.8241,-5.867,-5.9435,-6.0193,-6.0539,-6.0522,-6.0639,-6.0756,-6.0717,-5.9645,-5.9254,-5.9248,-5.9272,-5.9248,0.0,-2.0608,-2.0173,-2.0065,-2.0065,-2.021,-2.0753,-2.2057,-2.2491,-2.4628,-3.0061,-3.0803,-3.2242,-3.6029,-3.5675,-3.4888,-3.4246,-3.2711,-3.2018,-3.2559,0.0,-3.6112,-3.7069,-3.8348,-3.9284,-3.9785,-3.9867,-4.0306,-4.1131,-4.0239,-4.0216,-4.1,-4.0146,-3.9731,-3.9731,-3.9731,-3.9731,-3.9769,-4.0448,-4.0382,-3.986,-4.0602,-4.0284,-3.9456,-3.9456,-3.9115,-3.8719,-3.8719,-3.8684,-3.8498,-3.7755,-3.711,-3.6443,-3.5435,-3.3266,0.0,0.0,0.0,0.0,0.0,0.0,0.0,0.0,0.0,0.0,0.0,0.0,0.0,0.0,0.0,0.0,0.0,0.0,0.0,-4.4921,-4.881,-5.2212,-5.4427,-5.3378,-5.2989,-5.4543,-5.4116,-5.396,-5.4699,-5.4271,-5.4155,-5.4699,-5.5553,-5.6058,-5.6058,-5.6214,0.0,-5.6291,-5.6314,-5.6397,-5.6612,-5.7174,-5.7914,-5.8838,0.0,0.0,-6.0934,-6.0939,-6.1052,-6.1197,-6.1392,-6.142,-6.1424,-6.2126,-6.2812,-6.3146,-6.0941,-6.0091,-6.0161,-6.0846,-6.0642,-6.0282,-2.1731,-2.1188,-2.0898,-2.0898,-2.1224,-2.1767,-2.26,-2.2998,-2.4722,-2.876,-2.8866,-2.9728,-3.2853,-3.2373,-3.1841,-3.187,-3.2097,-3.2601,0.0,-3.5651,-3.7376,-3.8296,-3.9076,-3.9575,-3.9693,-3.9693,-4.0193,-4.1154,-4.07,-4.0904,-4.1628,-4.075,-4.0373,-4.0373,-4.0325,-4.0349,-4.0373,-4.0849,-4.082,-4.0428,-4.0488,-4.0246,-3.9889,-3.9889,-3.9933,-3.9975,-3.9975,-4.0058,-4.0062,-3.9623,-3.9471,-3.9281,-3.806,-3.6802,-3.5425,0.0,0.0,0.0,0.0,0.0,0.0,0.0,0.0,0.0,0.0,0.0,0.0,0.0,0.0,-3.7295,0.0,0.0,-4.4664,-4.6907,-5.013,-5.2693,-5.3572,-5.3689,-5.3844,-5.431,-5.396,-5.3689,-5.3689,-5.4077,-5.4349,-5.4349,-5.5165,-5.5631,-5.5631,-5.6058,-5.6304,-5.6302,-5.6319,-5.6359,-5.6464,-5.7297,-5.7986,-5.846,-5.9797,-6.0856,-6.172,-6.172,-6.2139,-6.2948,-6.2998,-6.3221,-6.3584,-6.4006,-6.4411,-6.4608,-6.3331,-6.26,-6.2249,-6.2698,-6.2581,-6.2387,-2.3035,-2.2383,-2.1912,-2.1767,-2.2274,-2.2745,-2.289,-2.3433,-2.4708,-2.7268,-2.6897,-2.7236,-2.9502,-2.8981,-2.8748,-2.9323,-3.1737,-3.3549,0.0,-3.64,-3.8229,-3.95,-3.9526,-3.9502,-3.9502,-3.9551,-4.0085,-4.1094,-4.0988,-4.1382,-4.2281,-4.1439,-4.1089,-4.124,-4.1192,-4.1079,-4.1014,-4.1062,-4.0995,-4.0768,-4.0132,-3.9911,-3.9933,-3.9933,-4.0034,-4.0117,-4.0099,-3.9929,-3.9832,-4.031,-4.0673,-4.0826,-4.0196,-4.0081,-3.9488,-3.5802,-3.578,0.0,0.0,0.0,0.0,0.0,0.0,0.0,0.0,0.0,-3.7114,-3.9475,-4.066,-4.1602,-4.2692,-4.4638,-4.6732,-4.8543,-5.0724,-5.2292,-5.2601,-5.3727,-5.431,-5.3766,-5.3689,-5.3494,-5.295,-5.4194,-5.4699,-5.3999,-5.4776,-5.5242,-5.5242,-5.5916,-5.629,-5.6297,-5.6359,-5.6511,-5.673,-5.744,-5.7963,-5.8304,-5.9915,-6.1091,-6.1949,-6.2306,-6.3199,-6.4476,-6.4682,-6.5145,-6.5751,-6.5737,-6.5697,-6.566,-6.566,-6.5241,-6.4617,-6.4617,-6.4491,-6.4491,-2.3687,-2.3614,-2.3324,-2.2672,-2.2636,-2.2926,-2.3578,-2.3759,-2.4708,-2.7268,-2.7523,-2.7997,-2.9547,-2.9602,-2.9278,-2.8701,-3.2711,0.0,-3.4442,-3.7427,-3.9435,-3.9845,-3.9623,-3.9502,-3.9502,-3.9717,-4.0155,-4.0754,-4.0291,-4.0814,-4.2281,-4.1487,-4.1439,-4.207,-4.207,-4.1655,-4.1014,-4.1014,-4.0608,-3.9936,-3.986,-3.9911,-4.0096,-4.0096,-4.0096,-4.0117,-4.0177,-3.9276,-3.8427,-4.0596,-4.0462,-3.9827,-4.2584,-4.1973,-3.9868,-3.7882,-3.5911,-3.38,-3.0963,-3.2233,0.0,-3.4993,-3.6277,-3.7485,0.0,0.0,-4.0488,-4.1785,-4.2727,-4.3763,-4.5351,-4.6513,-4.7794,-4.9487,-5.0631,-5.1863,-5.3339,-5.3067,-5.295,-5.3611,-5.3689,-5.396,-5.466,-5.4893,-5.4971,-5.4854,-5.567,-5.6136,-5.6136,-5.6239,-5.6302,-5.6314,-5.6349,-5.6792,-5.7549,-5.7726,-5.8565,-6.0099,-6.108,-6.2017,-6.2915,-6.4448,-6.5273,-6.5463,-6.6193,-6.6571,-6.6666,-6.6603,-6.6546,-6.6556,-6.6537,-6.6468,-6.639,-6.639,-6.5913,-6.5387,-2.3795,-2.3795,-2.3687,-2.3397,-2.3324,-2.3433,-2.3759,-2.3795,-2.42,-2.5317,-2.5405,-2.5637,-2.6327,-2.6752,-2.7055,-2.72,-3.1455,0.0,-3.413,-3.7662,-3.9693,-3.967,-3.9575,-3.9502,-3.9502,-3.9414,-3.9564,-3.999,-3.9774,-4.0358,-4.1647,-4.0707,-4.0736,-4.1505,-4.1505,-4.1316,-4.1014,-4.1085,-4.0881,-4.0526,-4.0122,-3.9996,-4.0038,-4.0196,-4.0252,-4.0233,-3.9733,-3.8843,0.0,-3.972,-4.0082,-4.0252,-4.2085,-4.1987,-4.0718,-3.8465,-3.7398,-3.6999,-3.7336,0.0,0.0,0.0,-4.0119,-4.1417,-4.1677,-4.2314,-4.3529,-4.6113,-4.6921,-4.7398,-4.8223,-4.9459,-5.0422,0.0,-5.1833,-5.2796,-5.2969,-5.3114,-5.3336,-5.3662,-5.3689,-5.3844,-5.4194,-5.5165,-5.532,-5.431,-5.5514,-5.611,-5.5653,-5.6053,-5.6319,-5.6416,-5.6449,-5.6627,-5.6998,-5.8025,-5.9168,-6.0411,-6.2296,-6.3667,-6.4526,-6.5267,-6.5585,-6.5624,-6.6439,-6.6811,-6.6783,-6.6783,-6.6728,-6.6693,-6.672,-6.6767,-6.6767,-6.6767,-6.6486,-6.6225,-2.3795,-2.3795,-2.3795,-2.3795,-2.3795,-2.3795,-2.3795,-2.3795,-2.3816,-2.3858,-2.3997,-2.4164,-2.4283,-2.4793,-2.5354,-2.5958,0.0,0.0,0.0,-3.7052,-3.9218,-3.9585,-3.9439,-3.9364,-3.9364,-3.9117,-3.9063,-3.9234,-3.9427,-4.0051,-4.1071,-4.0382,-4.0547,-4.134,-4.134,-4.1227,-4.1038,-4.1154,-4.1048,-4.0783,-4.0283,-4.0078,-4.0138,-4.0325,-4.0125,-3.966,-3.9029,-3.8155,-3.743,-3.8046,-3.8315,-3.8623,-3.9922,-4.0515,-4.03,-3.7916,-3.7255,-3.7879,-4.0559,0.0,0.0,-4.2145,-4.396,-4.5475,-4.5663,-4.6026,-4.7135,-4.9804,-5.0377,-5.0557,-5.0908,-5.1833,-5.2388,-5.2065,-5.3195,-5.3857,-5.2972,-5.3838,-5.4324,-5.3802,-5.4163,-5.4241,-5.3763,-5.5061,-5.5449,-5.4179,-5.5449,-5.6057,-5.5473,-5.6018,-5.6475,-5.6822,-5.6634,-5.6959,-5.7913,-5.8939,-6.0149,-6.1465,-6.3628,-6.4999,-6.558,-6.5585,-6.5585,-6.5624,-6.6209,-6.6583,-6.6791,-6.6805,-6.6752,-6.672,-6.6783,-6.6791,-6.6791,-6.6798,-6.6783,-6.672,-2.3795,-2.3795,-2.3795,-2.3795,-2.3795,-2.3795,-2.3795,-2.3795,-2.3795,-2.3795,-2.4483,-2.4976,-2.5078,-2.5157,-2.5215,0.0,0.0,0.0,0.0,-3.5539,-3.7802,-3.9791,-3.9338,-3.9008,-3.9008,-3.9008,-3.8905,-3.8646,-3.9208,-3.994,-4.0729,-4.0962,-4.1487,-4.2243,-4.2243,-4.1827,-4.1108,-4.1177,-4.081,-4.0134,-4.0096,-4.0234,-4.0377,-4.0377,-3.9429,-3.8084,-3.8046,-3.6969,-3.5584,-3.5622,-3.4507,-3.3583,-3.6084,-3.743,-3.7777,-3.6003,-3.4285,-3.3719,-3.7118,0.0,-4.1182,-4.4537,-4.7162,-4.9001,-4.9221,-5.0452,-5.1684,-5.194,-5.2119,-5.2473,-5.3351,-5.2969,-5.2777,-5.3584,-5.4489,-5.4762,-5.3896,-5.5238,-5.5706,-5.4022,-5.5307,-5.5667,0.0,-5.4541,-5.5034,-5.5063,-5.5824,-5.6314,-5.6347,-5.6368,-5.6805,-5.7627,-5.69,-5.813,-6.1509,-6.0762,-6.1621,-6.4118,-6.5072,-6.5541,-6.5529,-6.558,-6.5585,-6.5585,-6.5624,-6.6082,-6.6811,-6.6811,-6.6798,-6.6783,-6.6805,-6.6811,-6.6811,-6.679,-6.6817,-6.6783,-2.3795,-2.3795,-2.3795,-2.3795,-2.3795,-2.3816,-2.3858,-2.3816,-2.3816,-2.3858,-2.4584,0.0,0.0,0.0,0.0,0.0,0.0,0.0,0.0,-3.4165,-3.6496,-3.7802,-3.8585,-3.9008,-3.9008,-3.8847,-3.867,-3.8585,-3.8789,-3.9138,-3.9581,-3.9864,-4.0128,-4.0378,-4.0547,-4.0503,-4.0239,-4.0306,-4.022,-4.0038,-4.0137,-4.0215,-4.0227,-3.9166,-3.8424,-3.77,0.0,-3.4237,-3.3853,-3.443,-3.4237,-3.4007,-3.5468,-3.6122,-3.6108,-3.4889,-3.572,-3.7563,-3.9813,-4.2445,-4.5112,-4.7453,-4.9025,-5.0172,-5.079,-5.0905,-5.1062,-5.1761,-5.1082,-5.0488,-5.0865,-5.1797,-5.2397,-5.2056,-5.4258,-5.5925,-5.5638,-5.6113,-5.6215,-5.5589,-5.552,0.0,0.0,0.0,0.0,-5.4381,-5.557,-5.6134,-5.5645,-5.6698,-5.7219,-5.6977,-5.8348,-5.9368,-5.9959,-6.1403,-6.2847,-6.4292,-6.5155,-6.558,-6.5484,-6.558,-6.558,-6.5574,-6.6165,-6.6556,-6.6811,-6.6784,-6.6817,-6.6805,-6.6784,-6.679,-6.679,-6.6784,-6.6778,-6.6817,0.0,-2.3795,-2.3795,-2.3795,-2.3795,0.0,0.0,0.0,0.0,0.0,0.0,0.0,0.0,0.0,0.0,0.0,0.0,0.0,0.0,0.0,-3.4314,-3.5912,-3.67,-3.711,-3.7209,-3.6948,-3.6838,-3.6838,-3.7477,-3.794,-3.8245,-3.9025,-3.9452,-3.9551,-3.9717,-3.9785,-3.9823,-3.9933,-4.0207,-4.0479,-3.9662,-3.9562,-3.9742,-3.7778,-3.6671,0.0,-3.3699,-3.2506,-3.2083,-3.266,-3.2852,-3.2929,-3.3506,-3.4083,-3.4762,-3.5671,-3.7516,-3.9938,-4.3129,-4.5552,-4.778,-5.0105,-5.1313,-5.2017,-5.2548,-5.2449,-5.2318,-5.2619,-5.1414,-5.037,-5.0449,-5.1062,-5.1444,-5.1102,-5.3299,-5.5255,-5.5872,-5.595,-5.6067,-5.641,-5.5957,0.0,0.0,0.0,0.0,-5.4507,-5.5615,-5.6332,-5.6152,-5.6881,-5.7512,-5.7933,-5.8948,-5.9807,-6.051,-6.2149,-6.3594,-6.4765,-6.5624,-6.5697,-6.5067,-6.5424,-6.558,-6.5574,-6.6126,-6.6517,-6.6784,-6.679,-6.679,-6.6784,-6.6795,-6.6795,-6.6795,-6.6805,-6.68,-6.679,0.0,0.0,-2.3795,0.0,0.0,0.0,0.0,0.0,0.0,0.0,0.0,0.0,0.0,0.0,0.0,0.0,0.0,0.0,0.0,0.0,0.0,-3.4188,-3.385,-3.3726,-3.4005,-3.3726,-3.3595,-3.3595,-3.5312,-3.6297,-3.6658,-3.8352,-3.9263,-3.9535,-3.9558,-3.9558,-3.958,-3.9768,-4.0367,-4.0979,-3.8601,-3.8239,-3.8815,-3.6301,-3.4339,-3.2891,-3.2814,-3.1725,-3.0379,-3.0379,-3.0494,-3.0686,-3.0879,-3.2032,-3.416,-3.8277,-3.9585,-4.0931,-4.6586,-4.8202,-4.9086,-5.2433,-5.3853,-5.4386,-5.4386,-5.4956,-5.5178,-5.4219,-5.2856,-5.1776,0.0,0.0,-5.0208,-5.0933,-5.2075,-5.3389,-5.5025,-5.5247,-5.5584,0.0,0.0,0.0,0.0,0.0,0.0,-5.5444,0.0,-5.6878,-5.7734,-5.7049,-5.7752,-6.0198,-5.8831,-5.9651,-6.2969,-6.3125,-6.3984,-6.5585,-6.6366,-6.5897,-6.4336,-6.5194,-6.5585,-6.5585,-6.5624,-6.6092,-6.6795,-6.6795,-6.6795,-6.6795,-6.6795,-6.68,-6.6805,-6.6794,-6.6787,-6.679,0.0,0.0,0.0,0.0,0.0,0.0,0.0,0.0,0.0,0.0,0.0,0.0,0.0,0.0,0.0,0.0,0.0,0.0,0.0,0.0,0.0,0.0,0.0,0.0,0.0,0.0,0.0,-3.3595,-3.4053,-3.432,-3.4403,-3.5219,-3.5647,-3.5716,-3.6137,-3.6312,-3.6312,-3.635,-3.6537,-3.6757,-3.6052,-3.602,-3.6166,-3.4242,-3.3207,-3.2672,-3.1392,-3.0676,-3.0316,-3.0379,-3.2058,-3.4553,-3.7057,-3.8569,-3.9791,-4.1536,-4.3436,-4.5432,-4.7548,-4.951,-5.1471,-5.3626,-5.4318,-5.4451,-5.4408,-5.454,-5.3903,-5.1075,-4.97,-4.8606,0.0,0.0,0.0,-5.1824,-5.557,0.0,-5.8961,-5.8448,0.0,-5.929,0.0,-5.6719,-5.7104,-5.6943,0.0,0.0,-5.7328,-5.7568,-5.7777,-5.8202,-5.8431,-5.8441,-6.0549,-6.211,-6.3008,-6.4882,-6.5736,-6.5529,-6.5775,-6.5301,-6.4268,-6.5184,-6.558,-6.5568,-6.6204,-6.66,-6.6795,-6.6795,-6.6795,-6.6795,-6.6795,-6.6817,-6.6794,-6.6756,-6.6718,-6.6708,0.0,0.0,0.0,0.0,0.0,0.0,0.0,0.0,0.0,0.0,0.0,0.0,0.0,0.0,0.0,0.0,0.0,0.0,0.0,0.0,0.0,0.0,0.0,0.0,0.0,0.0,-3.1561,-3.1561,-3.2265,-3.2647,-3.2768,-3.3807,-3.4375,-3.4545,-3.4946,-3.5113,-3.5113,-3.5127,-3.5408,0.0,0.0,-3.4374,-3.4602,-3.2488,-3.1698,-3.1558,-3.0637,-3.1009,-3.2148,-3.3313,-3.5235,-3.7502,-3.9736,-4.1058,-4.2112,-4.411,-4.576,-4.7394,-4.9702,-5.1395,-5.2895,-5.4587,-5.5011,-5.4741,-5.3546,-5.3315,-5.241,-4.9355,-4.7761,0.0,-4.5667,0.0,0.0,0.0,0.0,0.0,-5.9027,-5.8435,-5.8364,0.0,-5.8246,0.0,-5.727,-5.7495,-5.7846,0.0,-5.8007,-5.8124,-5.8909,-5.8675,-5.8831,-5.9495,-6.1056,-6.2579,-6.414,-6.5546,-6.5853,-6.4989,-6.5775,-6.5463,-6.4275,-6.5541,-6.6126,-6.6082,0.0,-6.6795,-6.6795,-6.6795,-6.6795,-6.68,-6.6817,-6.6793,-6.6797,-6.6706,-6.6648,-6.6706,0.0,0.0,0.0,0.0,0.0,0.0,0.0,0.0,0.0,0.0,-2.4762,0.0,0.0,0.0,0.0,0.0,0.0,0.0,0.0,0.0,0.0,0.0,0.0,0.0,0.0,0.0,0.0,-2.8682,-3.0027,-3.0785,-3.1065,-3.2687,-3.3655,-3.394,-3.4262,-3.4428,-3.4445,-3.4508,-3.4961,-3.5474,-3.3331,-3.29,-3.3346,0.0,-3.0279,-3.0279,-3.0279,-3.1916,-3.4491,-3.7049,-3.8808,-4.0108,-4.1184,-4.2184,-4.353,-4.6529,-4.7375,-4.824,-5.2125,-5.3203,-5.3587,-5.528,-5.5703,-5.5011,-5.2472,-5.1895,-5.1087,-4.8202,0.0,-4.5355,-4.5124,-4.677,-4.8316,-4.8773,0.0,-5.4974,-5.7611,-5.7329,-5.7439,-5.91,-5.8402,-5.7582,-5.6996,-5.8128,-5.8987,-5.9104,-5.8509,-5.8783,-6.0315,-5.8987,-5.93,-6.1798,-6.1134,-6.2306,-6.5585,-6.5507,-6.5116,-6.4492,-6.5936,-6.5858,-6.4492,-6.6092,-6.6795,-6.6795,0.0,0.0,-6.6795,-6.6805,-6.6805,-6.6809,-6.6796,-6.6795,-6.675,-6.6658,-6.665,-6.6694,0.0,0.0,0.0,0.0,0.0,0.0,0.0,0.0,0.0,0.0,-2.4986,-2.4397,0.0,0.0,0.0,0.0,0.0,0.0,0.0,0.0,0.0,0.0,0.0,0.0,0.0,0.0,0.0,-2.7016,-2.7288,-2.742,-2.7521,-2.8656,-2.9287,-2.9549,-3.0423,-3.0874,-3.1035,-3.1064,-3.114,-3.1255,-3.0811,-3.0748,-3.0825,-3.0404,0.0,0.0,-3.0226,-3.1875,-3.4486,-3.7049,-4.0329,-4.3729,-4.5975,-4.7799,-4.9201,-4.9777,-5.0009,-5.051,-5.2626,-5.3203,-5.3587,-5.528,-5.5703,-5.5011,-5.2472,-5.1895,0.0,0.0,-4.4739,-4.4085,-4.2701,-4.4559,-4.7442,-5.1097,-5.4051,-5.6814,-5.9513,-5.9768,-5.9807,0.0,-5.8753,-5.8011,0.0,0.0,0.0,0.0,0.0,0.0,-6.0393,-6.0119,-6.0822,-6.2696,-6.2618,-6.3516,-6.5585,-6.4882,-6.476,-6.5295,-6.5658,-6.5619,-6.5334,-6.6321,-6.6795,-6.6795,0.0,0.0,-6.68,-6.6791,-6.6795,-6.6796,-6.6745,-6.6661,-6.6642,-6.6605,-6.6615,-6.6711,0.0,0.0,0.0,0.0,0.0,0.0,0.0,-2.6291,-2.6336,-2.6447,-2.5789,-2.5481,-2.5868,-2.592,-2.6045,0.0,0.0,0.0,0.0,0.0,0.0,0.0,0.0,0.0,0.0,0.0,0.0,0.0,0.0,-2.6612,-2.6612,-2.719,-2.755,-2.7729,-2.8326,-2.8707,-2.8886,-2.8886,-2.9153,-2.9535,-2.9535,-2.9803,-3.0185,0.0,0.0,0.0,0.0,-3.1862,-3.4227,-3.5513,-3.9392,-4.4206,-4.7212,-4.9024,-5.0177,-5.0665,-5.0803,-5.1061,-5.2316,-5.2696,-5.3017,-5.4226,-5.4532,-5.3524,-4.9633,0.0,0.0,-4.2101,-4.1393,-4.1431,-4.0662,-4.3385,-4.6538,-4.871,-5.3186,-5.6847,-5.8236,-5.9954,0.0,-6.0432,-5.9261,-5.8441,0.0,0.0,0.0,0.0,0.0,0.0,0.0,-6.1525,-6.1915,-6.2306,-6.3633,-6.4765,-6.5585,-6.5585,-6.5585,-6.5574,-6.6014,-6.597,-6.5574,-6.6405,-6.6795,-6.6795,0.0,0.0,-6.6789,-6.6796,-6.6795,-6.6745,-6.6655,-6.6633,-6.6585,-6.6567,-6.6863,-6.7346,0.0,0.0,0.0,0.0,0.0,0.0,0.0,-2.6752,-2.6822,-2.6913,-2.6958,-2.7002,-2.7105,-2.69,-2.6841,0.0,0.0,0.0,0.0,0.0,0.0,0.0,0.0,0.0,0.0,0.0,0.0,0.0,0.0,0.0,0.0,0.0,0.0,0.0,-2.7182,-2.7462,-2.7624,-2.7688,-2.816,0.0,0.0,-2.9421,0.0,0.0,0.0,0.0,0.0,-3.1503,-3.3293,-3.3887,-3.7294,-4.1919,-4.5529,-4.7632,-4.8977,-4.9899,-5.0131,-5.041,-5.1765,-5.2225,-5.2473,-5.3251,-5.3475,-5.2147,-4.6989,-4.5786,-4.4298,-3.9076,-3.8546,-3.9022,-3.9052,-4.1969,-4.4703,-4.5609,-5.0641,-5.4911,-5.6133,-5.8944,-6.0739,0.0,-5.9612,0.0,-5.8128,0.0,0.0,0.0,0.0,0.0,0.0,-6.2345,-6.2579,-6.2267,-6.4062,-6.5312,-6.5858,-6.6131,-6.6131,-6.5858,-6.6327,-6.6288,-6.5897,-6.6522,-6.6795,-6.6795,0.0,0.0,0.0,-6.6754,-6.6735,-6.6655,-6.6605,-6.6591,-6.6579,-6.6747,-6.723,-6.792,0.0,0.0,0.0,0.0,0.0,0.0,0.0,-2.8395,-2.8445,-2.8567,-2.8591,-2.8638,-2.8755,-2.8117,-2.7948,0.0,0.0,0.0,0.0,0.0,0.0,0.0,0.0,0.0,0.0,0.0,0.0,0.0,0.0,0.0,0.0,0.0,0.0,0.0,0.0,-2.7242,-2.7424,-2.7611,0.0,0.0,0.0,0.0,0.0,0.0,0.0,0.0,0.0,-3.0366,-3.0891,-3.3255,-3.4494,-3.5831,-4.0048,-4.3633,-4.6395,-4.721,-4.7482,-4.8216,-5.1399,-5.2292,-5.2512,-5.33,-5.3504,-5.2158,-4.6984,-4.581,-4.4298,-3.9076,-3.8046,-3.8127,-3.8196,-3.9173,-4.1059,-4.4362,-4.6792,-4.99,-5.4728,-5.6987,-5.8738,-6.0237,0.0,0.0,-5.8987,0.0,0.0,0.0,0.0,0.0,0.0,-6.1798,-6.2501,-6.4023,-6.3516,-6.4336,-6.6678,-6.5234,-6.5273,-6.6678,-6.6014,-6.6053,-6.6678,-6.6756,-6.6795,-6.68,0.0,0.0,0.0,-6.6688,-6.6615,-6.6595,-6.6555,-6.6524,-6.6601,-6.7402,-6.7749,-6.8008,0.0,0.0,0.0,0.0,0.0,0.0,-2.8587,-2.8587,-2.8637,-2.8785,-2.8785,-2.8834,-2.9012,-2.8705,-2.8645,-2.8915,0.0,0.0,0.0,0.0,0.0,0.0,0.0,0.0,0.0,0.0,0.0,-2.5658,-2.5658,0.0,0.0,0.0,0.0,0.0,0.0,-2.5887,-2.6073,-2.6161,0.0,0.0,0.0,0.0,0.0,0.0,0.0,0.0,0.0,0.0,-3.0355,-3.1416,-3.289,-3.4427,-3.5056,-3.7683,-4.1422,-4.593,-4.7222,-4.7861,-5.083,-5.1697,-5.1823,-5.2064,-5.0996,-4.8905,-4.5204,-4.3197,-4.1052,-3.7332,-3.6996,-3.7401,-3.7443,-3.8549,-3.9966,-4.1487,-4.4929,-4.8152,-5.0356,-5.3479,-5.6328,-5.8558,-5.8089,0.0,0.0,0.0,0.0,0.0,0.0,0.0,0.0,0.0,-6.3594,-6.4297,-6.4955,-6.5769,-6.6795,-6.6126,-6.6399,-6.7576,-6.6717,-6.6483,-6.6795,-6.6795,-6.6813,0.0,0.0,0.0,0.0,-6.6624,-6.6591,-6.6555,-6.65,-6.6508,-6.6625,-6.748,-6.8177,-6.8816,0.0,0.0,0.0,0.0,0.0,-2.8587,-2.8587,-2.8587,-2.8637,-2.8785,-2.8785,-2.8834,-2.9012,-2.8975,-2.8975,-2.8975,-2.8975,0.0,0.0,0.0,0.0,0.0,0.0,0.0,0.0,0.0,-2.668,-2.668,-2.676,-2.6562,0.0,0.0,0.0,-2.5565,0.0,0.0,0.0,0.0,0.0,0.0,0.0,0.0,0.0,0.0,0.0,0.0,0.0,0.0,0.0,0.0,0.0,-3.296,-3.1992,-3.3418,-3.6656,-4.2875,-4.539,-4.6708,-4.9395,-5.0725,-5.1356,-5.1256,-4.9333,-4.6781,-4.4033,-4.1521,-3.8914,-3.6174,-3.6154,-3.6634,-3.6658,-3.7833,-3.8914,-3.9296,-4.2855,-4.603,-4.7428,-5.0399,-5.3522,0.0,0.0,0.0,0.0,0.0,0.0,0.0,0.0,0.0,0.0,0.0,-6.457,-6.4297,-6.5686,-6.6661,-6.7185,-6.7169,-6.7481,-6.8078,-6.7498,-6.7034,-6.6774,-6.6777,-6.6793,0.0,0.0,0.0,0.0,-6.6591,-6.653,-6.6508,-6.6508,-6.6508,-6.6625,-6.7767,-6.8578,-6.9317,0.0,0.0,0.0,0.0,0.0,0.0,-2.8587,-2.8587,-2.8637,-2.8785,-2.8785,-2.8834,-2.9012,-2.8975,-2.8975,-2.8975,-2.8975,0.0,0.0,0.0,0.0,0.0,0.0,0.0,0.0,0.0,-2.6898,-2.6898,-2.7097,-2.7198,-2.7198,-2.7198,-2.7161,-2.7177,0.0,0.0,0.0,0.0,0.0,0.0,0.0,0.0,0.0,0.0,0.0,0.0,0.0,0.0,0.0,0.0,0.0,0.0,0.0,-3.1674,-3.2617,-3.7083,-4.0828,-4.4111,-4.6816,-4.9385,-5.131,-5.131,-4.94,-4.6807,-4.4114,-4.1544,-3.8928,-3.6254,-3.5693,-3.5764,-3.5878,-3.659,-3.7469,-3.845,-4.0054,-4.2669,-4.7002,-4.833,-5.0126,0.0,0.0,0.0,0.0,0.0,0.0,0.0,0.0,0.0,0.0,0.0,-6.5194,-6.4336,-6.51,-6.6349,-6.8083,-6.8105,-6.8099,-6.8099,-6.8078,-6.7594,-6.6716,-6.6757,0.0,0.0,0.0,0.0,0.0,-6.6528,-6.6508,-6.6508,-6.6508,-6.6508,-6.6703,-6.8458,-6.9094,-6.9328,0.0,0.0,0.0,0.0,0.0,0.0,0.0,-2.8587,-2.8637,-2.8737,-2.8761,-2.8905,-2.9119,-2.9185,-2.927,-2.9414,-2.9178,0.0,0.0,0.0,0.0,0.0,0.0,0.0,0.0,0.0,-2.8765,-2.8765,-2.882,-2.8608,-2.8159,-2.8159,-2.7919,-2.7542,-2.7584,-2.7597,0.0,0.0,0.0,0.0,0.0,0.0,0.0,0.0,0.0,0.0,0.0,0.0,0.0,0.0,0.0,0.0,0.0,0.0,0.0,-3.3524,-3.6812,-4.0657,-4.3877,-4.5423,-4.5942,-4.5357,-4.3256,-4.095,-3.9455,-3.718,-3.5139,-3.423,-3.4564,-3.5026,-3.5077,-3.6251,-3.75,-3.8404,-3.9966,-4.1995,-4.4571,0.0,0.0,0.0,0.0,0.0,0.0,0.0,0.0,0.0,0.0,0.0,0.0,0.0,0.0,-6.5959,-6.6811,-6.7546,-6.8092,-6.8085,-6.8085,-6.8085,-6.7434,-6.6984,-6.6716,0.0,0.0,0.0,0.0,0.0,0.0,-6.6524,-6.6508,-6.6508,-6.6508,-6.6508,-6.6703,-6.8466,-6.9119,-6.9328,0.0,0.0,0.0,0.0,0.0,0.0,0.0,-2.8587,-2.8662,-2.8845,-2.8892,-2.903,-2.9316,-2.9377,-2.9456,-2.957,-2.9373,0.0,0.0,0.0,0.0,0.0,0.0,0.0,0.0,-2.9662,-2.9697,-2.9697,-2.9805,-2.9623,-2.9201,-2.9201,-2.8979,-2.8657,-2.8657,-2.8657,0.0,0.0,0.0,0.0,0.0,0.0,-3.0185,0.0,0.0,0.0,0.0,0.0,0.0,0.0,0.0,0.0,0.0,0.0,0.0,0.0,-3.3835,-3.6681,-4.0214,-4.1919,-4.2593,-4.2042,-3.9945,-3.7882,-3.7303,-3.5225,-3.349,-3.3778,-3.43,-3.4783,-3.5135,-3.6345,-3.7552,-3.8362,-3.9962,-4.203,0.0,0.0,0.0,0.0,0.0,0.0,0.0,0.0,0.0,0.0,0.0,0.0,0.0,0.0,0.0,-6.6219,-6.6817,-6.7422,-6.807,-6.806,-6.8072,-6.8072,-6.7459,-6.6988,-6.6669,0.0,0.0,0.0,0.0,0.0,0.0,-6.6508,-6.6508,-6.6508,-6.6524,-6.6524,-6.6757,-6.8466,-6.9104,-6.9352,0.0,0.0,0.0,0.0,0.0,0.0,0.0,-2.8612,-2.8725,-2.906,-2.9104,-2.9254,-2.957,-2.9607,-2.9607,-2.9626,0.0,0.0,0.0,0.0,0.0,0.0,0.0,0.0,0.0,-2.9839,-2.9921,-2.9921,-3.0113,-3.0185,-3.0185,-3.0185,-3.0185,-3.0185,-3.0185,-3.0185,0.0,0.0,0.0,0.0,0.0,-3.0185,0.0,0.0,0.0,0.0,0.0,0.0,0.0,0.0,0.0,0.0,0.0,0.0,0.0,0.0,0.0,0.0,0.0,-3.8662,-4.0525,-4.0486,-3.8662,-3.6914,-3.6832,-3.5009,0.0,-3.4354,-3.4627,-3.494,-3.5757,-3.6654,-3.7549,-3.8362,-3.9958,-4.2577,0.0,-4.8513,0.0,0.0,0.0,0.0,0.0,0.0,0.0,0.0,0.0,0.0,0.0,0.0,0.0,0.0,-6.539,-6.6213,-6.7897,-6.7945,-6.7961,-6.7883,-6.7916,-6.7436,-6.6594,0.0,0.0,0.0,0.0,0.0,0.0,-6.6508,-6.6508,-6.6508,-6.6592,-6.6606,-6.68,-6.8458,-6.908,-6.9337,0.0,0.0,0.0,0.0,0.0,0.0,0.0,0.0,0.0,0.0,-2.9104,-2.9336,-2.9715,-2.9822,-2.9888,0.0,0.0,0.0,0.0,0.0,0.0,0.0,0.0,0.0,0.0,-3.0113,-3.0128,-3.0128,-3.0171,-3.0185,-3.0185,-3.0185,-3.0185,-3.0185,-3.0185,-3.0185,0.0,0.0,0.0,0.0,-3.0185,-3.0185,0.0,0.0,0.0,0.0,-3.0304,-3.0302,0.0,0.0,0.0,0.0,0.0,0.0,0.0,0.0,-3.107,-3.1278,-3.2104,0.0,-3.5048,-3.4384,-3.3763,-3.3141,0.0,-3.236,-3.2441,-3.2675,-3.3766,-3.4775,-3.497,-3.6212,-3.7492,-3.8376,-3.994,-4.2368,-4.6002,0.0,0.0,0.0,0.0,0.0,0.0,0.0,0.0,0.0,0.0,0.0,0.0,0.0,0.0,0.0,-6.4763,-6.4921,-6.5937,-6.7263,-6.7572,-6.691,-6.6934,-6.6806,0.0,0.0,0.0,0.0,0.0,0.0,0.0,-6.6508,-6.6524,-6.6592,-6.6493,-6.6493,-6.6703,-6.8347,-6.8968,-6.9256,0.0,0.0,0.0,0.0,0.0,0.0,0.0,0.0,0.0,0.0,0.0,-2.9514,0.0,0.0,0.0,0.0,0.0,0.0,0.0,0.0,0.0,0.0,0.0,0.0,-3.0185,-3.0185,-3.0185,-3.0185,-3.0185,-3.0185,-3.0185,-3.0185,-3.0185,-3.0185,-3.0185,-3.0185,0.0,0.0,0.0,-3.0185,-3.0185,0.0,0.0,0.0,0.0,0.0,-3.0433,-3.0424,0.0,-3.0626,-3.0672,-3.0658,0.0,0.0,0.0,0.0,-3.0806,-3.081,-3.081,-3.1484,-3.2079,-3.1613,-3.1496,-3.1379,-3.0908,-3.1454,-3.2196,-3.2628,-3.3754,-3.4924,-3.5747,-3.6953,-3.8077,0.0,-4.1896,0.0,0.0,0.0,0.0,0.0,0.0,0.0,0.0,0.0,0.0,0.0,0.0,0.0,0.0,0.0,0.0,0.0,0.0,-6.5273,-6.5305,-6.6644,-6.7052,-6.6589,-6.6566,-6.654,0.0,0.0,0.0,0.0,0.0,0.0,-6.6508,-6.6508,-6.6508,-6.6508,-6.6439,-6.6439,-6.6655,-6.8294,-6.8915,-6.9186,0.0,0.0,0.0,0.0,0.0,0.0,0.0,0.0,0.0,0.0,0.0,0.0,0.0,0.0,0.0,0.0,0.0,0.0,0.0,0.0,0.0,0.0,0.0,0.0,-3.0185,-3.0185,-3.0185,-3.0185,-3.0185,-3.0185,-3.0185,-3.0185,-3.0185,-3.0185,-3.0185,-3.0185,0.0,0.0,-3.0226,-3.0226,-3.024,0.0,0.0,0.0,0.0,0.0,0.0,0.0,0.0,-3.0764,-3.0779,-3.0779,-3.0779,0.0,0.0,0.0,0.0,0.0,-3.0798,-3.1196,-3.1437,-3.0934,-3.0817,-3.0817,-3.0973,-3.1675,-3.2533,-3.3434,-3.4289,-3.5381,-3.6992,-3.7968,0.0,0.0,0.0,0.0,0.0,0.0,0.0,0.0,0.0,0.0,0.0,0.0,0.0,0.0,0.0,0.0,0.0,0.0,0.0,0.0,0.0,0.0,-6.5286,-6.6151,-6.6566,-6.6566,-6.6542,-6.6586,-6.6703,0.0,0.0,0.0,0.0,0.0,-6.6493,-6.6493,-6.6439,-6.6406,-6.6439,-6.6422,-6.6583,-6.8276,-6.8878,-6.913,0.0,0.0,0.0,0.0,0.0,0.0,0.0,0.0,0.0,0.0,0.0,0.0,0.0,0.0,0.0,0.0,0.0,0.0,0.0,0.0,0.0,0.0,0.0,0.0,0.0,-3.0185,-3.0185,-3.0185,-3.0185,-3.0185,-3.0185,-3.0185,-3.0185,-3.0185,-3.0185,-3.0185,-3.0199,-3.0267,-3.0278,-3.029,-3.0392,0.0,0.0,0.0,0.0,0.0,0.0,0.0,0.0,-3.0764,-3.0779,-3.0779,-3.0779,0.0,0.0,0.0,0.0,0.0,-3.0784,-3.2893,-3.4418,-3.1515,-3.0817,-3.0973,-3.1714,-3.2572,-3.3434,-3.4328,-3.5139,-3.6036,-3.7024,-3.7903,-3.9018,0.0,0.0,0.0,0.0,0.0,0.0,0.0,0.0,0.0,0.0,0.0,0.0,0.0,0.0,0.0,0.0,0.0,0.0,0.0,0.0,0.0,0.0,-6.6061,-6.6514,-6.6514,-6.6485,-6.6897,-6.7596,-6.6858,0.0,0.0,0.0,0.0,-6.6406,-6.6406,-6.6406,-6.6389,-6.6376,-6.632,-6.6531,-6.8219,-6.8837,-6.9069,0.0,0.0,0.0,0.0,0.0,0.0,0.0,0.0,0.0,0.0,0.0,0.0,0.0,0.0,0.0,0.0,0.0,0.0,0.0,0.0,0.0,0.0,0.0,0.0,0.0,0.0,-2.9956,-2.9497,-2.9956,-3.0185,-3.0185,-3.0185,-2.9956,-2.9535,-3.0036,-3.0254,-3.0267,-3.0359,-3.0402,-3.0413,0.0,0.0,0.0,0.0,0.0,0.0,0.0,0.0,0.0,0.0,-3.0779,-3.0779,-3.0779,0.0,0.0,0.0,0.0,0.0,-3.0779,-3.1953,-3.32,-3.3487,-3.4618,-3.5909,-3.6777,-3.7279,-3.7391,-3.6855,-3.7781,-3.8527,-3.7985,0.0,-4.2878,-4.7851,0.0,0.0,0.0,0.0,0.0,0.0,0.0,0.0,0.0,0.0,0.0,0.0,0.0,0.0,0.0,0.0,0.0,0.0,0.0,0.0,0.0,-6.6314,-6.6508,-6.6508,-6.6508,-6.6703,-6.7091,-6.6664,-6.6672,0.0,0.0,-6.6782,-6.634,-6.6785,-6.6707,-6.6283,-6.6322,-6.6264,-6.6438,-6.8179,-6.9087,-6.9628,0.0,0.0,0.0,0.0,0.0,0.0,0.0,0.0,0.0,0.0,0.0,0.0,0.0,0.0,0.0,0.0,0.0,0.0,0.0,0.0,0.0,0.0,0.0,0.0,0.0,0.0,-2.9765,-2.8911,-2.9765,-3.0109,-2.9917,-3.0112,-2.978,-2.8977,-2.9906,-3.0348,-3.0359,-3.0472,-3.0518,-3.0518,0.0,0.0,0.0,0.0,0.0,0.0,0.0,0.0,0.0,0.0,0.0,0.0,0.0,0.0,0.0,-3.0779,-3.0779,-3.0779,-3.0779,-3.1364,-3.2655,-3.5499,-3.7097,-3.8583,-4.0855,-4.1084,-4.0622,-4.0106,-4.1237,-4.1831,-4.0267,-4.2615,0.0,-5.2911,0.0,0.0,0.0,0.0,0.0,0.0,0.0,0.0,0.0,0.0,0.0,0.0,0.0,0.0,0.0,0.0,0.0,0.0,0.0,0.0,0.0,-6.6508,-6.6508,-6.6508,-6.6508,-6.6571,-6.6749,-6.6749,-6.6816,-6.6883,-6.7386,-6.7174,-6.6533,-6.6999,-6.6806,-6.6224,-6.6264,-6.638,-6.6688,-6.8236,-6.9319,-7.0131,0.0,0.0,0.0,0.0,0.0,0.0,0.0,0.0,0.0,0.0,0.0,0.0,0.0,0.0,0.0,0.0,0.0,0.0,0.0,0.0,0.0,0.0,0.0,0.0,0.0,-2.9765,-2.9765,-2.8911,-2.9765,-2.9803,-2.8987,-2.9896,-2.9867,-2.9121,-3.0075,-3.0511,-3.0472,-3.0568,-3.0605,-3.0613,-3.0748,0.0,0.0,0.0,0.0,0.0,0.0,0.0,0.0,0.0,0.0,0.0,0.0,0.0,-3.0779,-3.0779,-3.0779,-3.0779,-3.0779,-3.3122,-3.5772,-3.6824,-3.4876,-3.433,-4.076,-4.1011,-4.0769,-4.3815,-4.5191,-4.5544,-4.4608,-4.6561,-4.8788,-5.0155,0.0,0.0,0.0,0.0,0.0,0.0,0.0,0.0,0.0,0.0,0.0,0.0,0.0,0.0,0.0,0.0,0.0,0.0,0.0,0.0,0.0,0.0,-6.6508,-6.6508,-6.6508,-6.685,-6.7519,-6.7501,-6.7871,-6.8468,-6.781,-6.7462,-6.7346,-6.6611,-6.6263,-6.6185,-6.6224,-6.6688,-6.7539,-6.8468,-6.9319,-7.0131,0.0,0.0,0.0,0.0,0.0,0.0,0.0,0.0,0.0,0.0,0.0,0.0,0.0,0.0,0.0,0.0,0.0,0.0,0.0,0.0,0.0,0.0,0.0,-2.9803,-2.8911,-2.9216,-2.9,-2.816,-2.9535,-2.9497,-2.8198,-2.9627,-2.9583,-2.8373,-2.989,-3.0568,-3.0576,-3.0685,-3.0714,-3.0714,-3.0774,-3.0779,0.0,0.0,0.0,0.0,0.0,0.0,0.0,0.0,-3.0779,-3.0779,-3.0779,-3.0779,-3.0779,-3.0779,-3.0779,-3.0779,-3.0779,-3.331,-3.6098,-3.6991,-3.7054,-3.8411,-4.4192,-4.5015,-4.5057,-4.6864,-4.8359,-4.9057,-4.8158,0.0,-5.2097,0.0,0.0,0.0,0.0,0.0,0.0,0.0,0.0,0.0,0.0,0.0,0.0,0.0,0.0,0.0,0.0,0.0,0.0,0.0,0.0,0.0,0.0,0.0,-6.6508,-6.6508,-6.695,-6.7342,-6.7599,-6.8084,-6.8429,-6.8629,-6.8326,-6.7856,-6.7309,-6.7067,-6.6625,-6.6144,-6.6165,-6.6417,-6.6804,-6.7655,-6.8545,-6.9357,0.0,0.0,0.0,0.0,0.0,0.0,0.0,0.0,0.0,0.0,0.0,0.0,0.0,0.0,0.0,0.0,0.0,0.0,0.0,0.0,0.0,0.0,0.0,-2.9803,-2.8911,-2.8643,-2.8376,-2.8083,-2.923,-2.909,-2.7764,-2.9275,-2.9235,-2.7971,-2.9822,-3.0646,-3.0685,-3.0764,-3.0779,-3.0779,-3.0779,-3.0779,0.0,0.0,0.0,0.0,0.0,0.0,0.0,0.0,-3.0779,-3.0779,-3.0779,-3.0779,-3.0779,-3.0779,-3.0784,-3.0789,-3.0806,-3.2703,-3.5176,-3.7116,-3.8495,-4.0931,-4.6912,-4.7851,-4.8044,-5.0234,-5.1396,-5.1921,-5.1557,0.0,0.0,0.0,0.0,0.0,0.0,0.0,0.0,0.0,0.0,0.0,0.0,0.0,0.0,0.0,0.0,0.0,0.0,0.0,0.0,0.0,0.0,0.0,0.0,0.0,-6.661,-6.685,-6.7346,-6.7561,-6.76,-6.8352,-6.8629,-6.8574,-6.8559,-6.8058,-6.7239,-6.7062,-6.6643,-6.6123,-6.6165,-6.6185,-6.6301,-6.7191,-6.8042,-6.8932,0.0,0.0,0.0,0.0,0.0,0.0,0.0,0.0,0.0,0.0,0.0,0.0,0.0,0.0,0.0,0.0,0.0,0.0,-3.0185,-3.0185,-3.0185,0.0,0.0,-2.9803,-2.8911,-2.8122,-2.8122,-2.8872,-2.8872,-2.8517,-2.7802,-2.8743,-2.8799,-2.8171,-2.998,-3.0779,-3.0779,-3.0779,-3.0779,-3.0779,-3.0779,-3.0779,-3.0779,0.0,0.0,0.0,0.0,0.0,0.0,0.0,-3.0779,-3.0779,-3.0779,-3.0779,-3.0779,-3.0779,-3.0789,-3.081,-3.0804,-3.1493,-3.3207,-3.7421,-3.8554,-4.0625,-4.8254,-4.873,-4.8944,-5.4021,-5.4404,-5.4066,-5.4882,-5.5801,0.0,0.0,0.0,0.0,0.0,0.0,0.0,0.0,0.0,0.0,0.0,0.0,0.0,0.0,0.0,0.0,0.0,0.0,0.0,0.0,0.0,0.0,0.0,0.0,-6.685,-6.7599,-6.7541,-6.7501,-6.7539,-6.8259,-6.855,-6.85,-6.85,-6.8073,-6.7338,-6.6449,-6.6144,-6.6185,-6.6185,-6.6185,-6.6301,-6.7152,-6.8042,-6.8893,0.0,0.0,0.0,0.0,0.0,0.0,0.0,0.0,0.0,0.0,0.0,0.0,0.0,0.0,0.0,0.0,0.0,0.0,-3.0185,-3.0185,-3.0185,-3.0185,-3.0185,0.0,-2.9803,-2.9628,-2.8756,-2.7209,-2.7823,-2.8082,-2.7961,-2.8916,-2.9239,-2.9072,-3.0253,-3.0779,-3.0779,-3.0779,-3.0779,-3.0779,-3.0779,-3.0779,-3.0779,0.0,0.0,0.0,0.0,0.0,0.0,0.0,0.0,0.0,-3.0779,-3.0779,-3.0779,-3.0779,-3.0784,-3.0789,-3.0806,-3.4953,0.0,-3.7851,0.0,0.0,-4.9496,-5.0069,-5.1596,-5.668,-5.7065,-5.6166,-5.5186,0.0,0.0,0.0,0.0,0.0,0.0,0.0,0.0,0.0,0.0,0.0,0.0,0.0,0.0,0.0,0.0,0.0,0.0,0.0,0.0,0.0,0.0,0.0,0.0,0.0,0.0,-6.6687,-6.7132,-6.7988,-6.9108,-6.9296,-6.94,-6.9387,-6.882,-6.8158,-6.7338,-6.6492,-6.6165,-6.6185,-6.6264,-6.6284,-6.6284,-6.6555,-6.7213,-6.8044,0.0,0.0,0.0,0.0,0.0,0.0,0.0,0.0,0.0,0.0,-3.0171,-3.0185,0.0,0.0,0.0,0.0,0.0,0.0,-3.0185,-3.0185,-3.0185,-3.0185,-3.024,-3.0101,-2.9817,-2.9847,-2.8975,-2.7129,-2.7972,-2.8434,-2.8567,-2.9154,-2.9428,-2.9491,-3.038,-3.0779,-3.0779,-3.0779,-3.0779,-3.0779,-3.0779,-3.0585,-3.0273,0.0,0.0,0.0,0.0,0.0,0.0,0.0,0.0,0.0,-3.0273,-3.0507,-3.0784,-3.081,-3.0817,-3.1103,-3.2453,-3.6717,0.0,-4.1585,-4.5668,-4.9976,-5.1668,0.0,0.0,0.0,-5.8257,-5.7905,-5.7147,0.0,0.0,0.0,0.0,0.0,0.0,0.0,0.0,0.0,0.0,0.0,0.0,0.0,0.0,0.0,0.0,0.0,0.0,0.0,0.0,0.0,0.0,0.0,0.0,0.0,0.0,0.0,-6.7123,-6.8188,-6.9759,-6.9374,-6.9246,-6.9282,-6.812,-6.7377,-6.6917,-6.6397,-6.6244,-6.6225,-6.6303,-6.6322,-6.634,-6.6322,-6.6864,-6.7716,0.0,0.0,0.0,0.0,0.0,0.0,0.0,0.0,0.0,-3.0128,-3.0171,-3.0185,0.0,0.0,0.0,-3.0185,-3.0185,-3.0185,-3.0185,-3.0199,-3.0213,-3.0213,-3.0292,-2.9995,-2.933,-2.93,-2.8993,-2.8327,-2.8838,-2.9195,-2.9415,-2.9421,-2.9491,-2.9649,-3.0468,-3.0779,-3.0779,-3.0779,-3.0779,-3.0779,-3.0779,-3.0312,-2.9611,-2.9611,0.0,0.0,0.0,0.0,0.0,0.0,0.0,0.0,-2.9494,-3.0117,-3.0793,-3.0796,-3.0968,-3.1835,-3.5051,-3.751,0.0,-4.7011,-4.8996,0.0,-5.4212,-5.6446,-5.7741,-5.7832,0.0,0.0,0.0,0.0,0.0,0.0,0.0,0.0,0.0,0.0,0.0,0.0,0.0,0.0,0.0,0.0,0.0,0.0,0.0,0.0,0.0,0.0,0.0,0.0,0.0,0.0,0.0,0.0,0.0,0.0,0.0,-6.8063,-6.9436,-6.8822,-6.8487,-6.8405,-6.6879,-6.6185,-6.6185,-6.6244,-6.6225,-6.6322,-6.6322,-6.634,-6.6376,-6.634,-6.6805,-6.7617,0.0,0.0,0.0,0.0,0.0,0.0,0.0,0.0,-3.0171,-3.0171,-3.0185,-3.0185,-3.0185,-3.0185,0.0,-3.0185,-3.0185,-3.0185,-3.0185,-3.0254,-3.0266,-3.0266,-3.0381,-3.0376,-3.0211,-3.0288,-3.021,-3.0069,-2.889,-2.8728,-2.9479,-2.9479,-2.9835,-3.0546,-3.0701,-3.0779,-3.0779,-3.0779,-3.0779,-3.0779,-3.0779,-3.0701,-3.0507,-3.0507,-3.039,0.0,0.0,0.0,0.0,0.0,0.0,0.0,-2.9494,-3.0117,-3.0784,-3.0798,-3.2232,-3.4168,0.0,-4.0098,0.0,0.0,-5.0789,-5.3861,-5.4061,-5.6495,-5.8888,0.0,0.0,0.0,0.0,0.0,0.0,0.0,0.0,0.0,0.0,0.0,0.0,0.0,0.0,0.0,0.0,0.0,0.0,0.0,0.0,0.0,0.0,0.0,0.0,0.0,0.0,0.0,0.0,0.0,0.0,0.0,-6.6882,-6.7333,-6.7744,-6.8269,-6.8164,-6.7586,-6.667,-6.6284,-6.6284,-6.634,-6.6358,-6.6376,-6.6355,-6.6389,-6.6389,-6.6373,-6.6489,-6.6778,0.0,0.0,0.0,0.0,0.0,0.0,0.0,0.0,-3.0185,-3.0185,-3.0185,-3.0185,-3.0185,-3.0185,0.0,0.0,-3.0185,-3.0185,-3.0185,-3.0215,-3.0316,-3.0392,-3.0453,-3.0565,-3.0644,-3.0685,-3.0697,-3.0697,-2.9808,-2.963,-3.0117,-3.0117,-3.0351,-3.0779,-3.0779,-3.0779,-3.0779,-3.0779,-3.0779,-3.0779,-3.0779,-3.0546,-3.0195,-3.0195,-2.9922,-2.9572,-2.9572,0.0,0.0,0.0,0.0,0.0,0.0,0.0,-3.0789,-3.0813,-3.1772,-3.3625,0.0,0.0,0.0,-4.8938,0.0,-5.5433,-5.409,-5.6505,0.0,0.0,0.0,0.0,0.0,0.0,0.0,0.0,0.0,0.0,0.0,0.0,0.0,0.0,0.0,0.0,0.0,0.0,0.0,0.0,0.0,0.0,0.0,0.0,0.0,0.0,0.0,0.0,-6.6102,-6.6013,-6.599,-6.6013,-6.6853,-6.7286,-6.7354,-6.7772,-6.7586,-6.6843,-6.6477,-6.6322,-6.634,-6.6376,-6.6394,-6.6411,-6.6389,-6.6422,-6.6439,-6.6406,-6.6422,-6.6539,0.0,0.0,0.0,0.0,0.0,0.0,0.0,0.0,0.0,-3.0185,-3.0185,-3.0185,-3.0185,-3.007,-2.9994,0.0,0.0,0.0,-2.9997,-3.0151,-3.0364,-3.0518,-3.0565,-3.063,-3.0818,-3.0779,-3.0779,-3.0779,-3.0779,-3.0779,-3.0779,-3.0779,-3.0779,-3.0779,-3.0779,-3.0779,-3.0779,-3.0779,-3.0779,-3.0779,-3.0779,-3.0351,-2.9727,-2.9727,-2.926,-2.8636,-2.8636,-2.8563,-2.8329,-2.7589,0.0,0.0,0.0,0.0,-3.0793,-3.0794,-3.1118,0.0,0.0,0.0,-4.4894,-5.1076,-5.4515,0.0,-5.4402,-5.6514,0.0,0.0,0.0,0.0,0.0,0.0,0.0,0.0,0.0,0.0,0.0,0.0,0.0,0.0,0.0,0.0,0.0,0.0,0.0,0.0,0.0,0.0,0.0,0.0,0.0,0.0,0.0,0.0,-6.6013,-6.6029,-6.6029,-6.6036,-6.6836,-6.723,-6.731,-6.7268,-6.6882,-6.6322,-6.6322,-6.6358,-6.6394,-6.6394,-6.6428,-6.6406,-6.6406,-6.6439,-6.6508,-6.6422,-6.6439,-6.6625,0.0,0.0,0.0,0.0,0.0,0.0,0.0,0.0,0.0,0.0,-3.0185,-3.0185,-3.0185,-2.9546,-2.9074,-2.9063,-2.8401,-2.8339,-2.9202,0.0,0.0,-3.0759,-3.0759,-3.0764,-3.0779,-3.0779,-3.0779,-3.0779,-3.0779,-3.0779,0.0,0.0,-3.0779,-3.0779,-3.0779,-3.0779,-3.0779,-3.0779,-3.0779,-3.0779,-3.0779,-3.074,-3.0624,-3.0624,-3.0546,-3.0468,-3.0468,-2.9961,-2.9299,-2.9182,-2.9299,0.0,0.0,0.0,-3.0784,-3.0793,-3.2381,0.0,0.0,0.0,-4.8626,0.0,-5.4554,-5.623,0.0,0.0,0.0,0.0,0.0,0.0,0.0,0.0,0.0,0.0,0.0,0.0,0.0,0.0,0.0,0.0,0.0,0.0,0.0,0.0,0.0,0.0,0.0,0.0,0.0,0.0,0.0,0.0,0.0,0.0,-6.608,-6.608,-6.6102,-6.6165,-6.638,-6.6438,-6.6458,-6.6495,-6.6475,-6.6376,-6.6373,-6.6389,-6.6389,-6.6477,-6.6493,-6.6493,-6.6493,-6.6508,-6.6508,-6.6508,-6.6508,-6.6508,0.0,0.0,0.0,0.0,0.0,0.0,0.0,0.0,0.0,0.0,0.0,-3.0128,-3.0157,-2.9799,-2.9379,-2.8949,-2.8593,-2.8401,-2.8412,-2.8848,-2.914,-2.9291,-2.9296,-2.9541,-3.0078,-3.0078,-3.0312,-3.0779,-3.0779,-3.0779,0.0,-3.0312,-3.0312,0.0,-3.0779,-3.0779,-3.0779,-3.0779,-3.0779,-3.0779,-3.0779,-3.1938,-3.3394,-3.1515,-3.1977,-3.3355,-3.1476,-3.0546,-3.0156,-2.9649,-2.9805,-3.0156,-2.9649,0.0,0.0,0.0,0.0,0.0,-3.7656,-4.3339,-4.8755,0.0,-5.4212,-5.5762,0.0,0.0,0.0,0.0,0.0,0.0,0.0,0.0,0.0,0.0,0.0,0.0,0.0,0.0,0.0,0.0,0.0,0.0,0.0,0.0,0.0,0.0,0.0,0.0,0.0,-6.6118,-6.6301,-6.6144,-6.6102,0.0,-6.6102,-6.6123,-6.6205,-6.632,-6.6355,-6.6428,-6.6428,-6.6445,-6.6445,-6.6411,-6.6389,-6.6422,-6.6439,-6.6493,-6.6508,-6.6508,-6.6508,-6.6508,-6.6508,-6.6508,-6.6508,-6.6508,0.0,0.0,0.0,0.0,0.0,0.0,0.0,0.0,0.0,0.0,0.0,-3.0083,-3.0113,0.0,0.0,0.0,-2.8517,-2.8107,-2.7595,-2.7825,-2.8016,-2.8081,-2.8133,-2.8435,-2.9138,-2.9182,-2.9611,-3.0468,-3.0234,0.0,-3.0468,-2.9338,-2.9182,0.0,-3.0273,-3.0468,-3.0468,-3.0701,-3.0779,-3.0857,-3.1743,-3.3589,-3.5507,-3.2778,-3.3433,-3.5313,-3.1504,-3.0429,-3.0662,-2.9805,-3.0078,-3.0701,-3.0039,-3.0273,0.0,0.0,0.0,0.0,0.0,0.0,-4.5976,-5.0511,-5.2785,-5.432,0.0,0.0,0.0,0.0,0.0,0.0,0.0,0.0,0.0,0.0,0.0,0.0,0.0,0.0,0.0,0.0,0.0,0.0,0.0,0.0,0.0,0.0,0.0,0.0,0.0,-6.5674,-6.605,-6.6165,-6.6102,-6.608,-6.6165,-6.6225,-6.632,-6.6422,-6.6493,-6.6508,-6.6508,-6.6508,-6.6454,-6.6422,-6.6422,-6.6439,-6.6508,-6.6508,-6.6508,-6.6508,-6.6508,-6.6508,-6.6508,-6.6508,-6.6508,-6.6508,0.0,0.0,0.0,0.0,0.0,0.0,0.0,0.0,0.0,0.0,0.0,-3.0122,-3.0083,-2.936,-2.8865,-2.8812,-2.7366,-2.6529,-2.667,-2.7559,-2.8087,-2.8094,-2.8163,0.0,-2.8257,-2.8277,-2.8675,-2.9572,0.0,0.0,-2.9533,-2.7823,-2.7043,-2.7199,-2.8831,-2.9572,-2.9611,0.0,0.0,-3.1091,-3.4244,-3.5624,-3.5702,-3.469,-3.4924,-3.5118,-3.0141,-2.9416,-3.0662,-2.9805,-3.0078,-3.0779,-3.074,-3.074,-3.0779,0.0,0.0,0.0,0.0,-3.6953,0.0,-4.7108,0.0,0.0,0.0,0.0,0.0,0.0,0.0,0.0,0.0,0.0,0.0,0.0,0.0,0.0,0.0,0.0,0.0,0.0,0.0,0.0,0.0,0.0,0.0,0.0,0.0,0.0,-6.5009,-6.5079,-6.5374,-6.6063,-6.6144,-6.6264,-6.6376,-6.6461,-6.6493,-6.6508,-6.6508,-6.6508,-6.6508,-6.6508,-6.6508,-6.6508,-6.6508,-6.6508,-6.6508,-6.6508,-6.6508,-6.6508,-6.6508,-6.6508,-6.6508,-6.6508,-6.6508,-6.6508,0.0,0.0,0.0,0.0,0.0,0.0,0.0,0.0,0.0,0.0,0.0,0.0,0.0,-2.9772,-2.9353,-2.8836,-2.7383,-2.6292,-2.5858,-2.6248,-2.6507,-2.649,-2.6539,-2.6783,-2.7342,-2.739,-2.7784,0.0,0.0,-2.8056,-2.7823,-2.6654,-2.5835,-2.5407,-2.7667,-2.868,-2.8753,-3.0195,0.0,0.0,0.0,-3.6759,-3.7919,-3.5446,-3.7086,0.0,0.0,0.0,-3.2517,-3.2751,-3.1573,-3.0039,-3.0624,-3.0779,-3.0779,-3.0779,-3.0779,-3.1538,0.0,0.0,0.0,-4.3303,0.0,0.0,0.0,0.0,0.0,0.0,0.0,0.0,0.0,0.0,0.0,0.0,0.0,0.0,0.0,0.0,0.0,0.0,0.0,0.0,0.0,0.0,0.0,0.0,0.0,0.0,-6.4222,-6.4769,-6.5412,-6.6165,-6.6185,-6.6284,-6.6376,-6.6461,-6.6508,-6.6508,-6.6508,-6.6508,-6.6508,-6.6508,-6.6508,-6.6508,-6.6508,-6.6508,-6.6508,-6.6508,-6.6508,-6.6508,-6.6508,-6.6508,-6.6508,-6.6508,-6.6508,-6.6508,0.0,0.0,0.0,0.0,0.0,0.0,0.0,0.0,0.0,-2.9888,0.0,0.0,0.0,0.0,-2.968,-2.8859,-2.765,-2.6579,-2.5774,-2.5537,-2.5498,-2.5517,-2.5529,-2.5829,-2.6446,-2.6494,-2.6926,0.0,0.0,0.0,0.0,-2.5796,-2.4783,-2.4043,-2.6342,-2.7511,0.0,0.0,0.0,-3.0735,0.0,0.0,-3.8433,0.0,0.0,0.0,0.0,0.0,0.0,0.0,0.0,-3.3254,-3.2391,-3.1529,-3.0779,-3.0779,-3.0779,-3.13,-3.3565,-3.4203,0.0,0.0,0.0,0.0,0.0,0.0,0.0,0.0,0.0,0.0,0.0,0.0,0.0,0.0,0.0,0.0,0.0,0.0,0.0,0.0,0.0,0.0,0.0,0.0,0.0,0.0,0.0,0.0,-6.3313,-6.417,-6.5102,-6.6225,-6.6205,-6.6303,-6.6394,-6.6461,-6.6493,-6.6508,-6.6508,-6.6508,-6.6508,-6.6508,-6.6508,-6.6508,-6.6508,-6.6508,-6.6508,-6.6508,-6.6508,-6.6508,-6.6508,-6.6508,-6.6508,-6.6508,-6.6508,-6.6508,0.0,0.0,0.0,0.0,0.0,0.0,0.0,0.0,-2.9888,-2.9888,0.0,0.0,0.0,0.0,0.0,-2.8867,-2.8089,-2.7254,-2.6416,-2.5635,-2.5293,-2.5412,-2.543,-2.5454,-2.561,-2.5671,-2.6069,0.0,0.0,0.0,0.0,0.0,-2.3926,-2.3186,-2.4939,-2.6186,-2.7082,0.0,-3.0273,-3.0073,0.0,-3.851,-3.7142,0.0,0.0,0.0,-3.487,-3.4788,0.0,0.0,0.0,0.0,0.0,-3.2825,-3.0779,-3.0779,-3.0779,-3.0779,0.0,0.0,0.0,0.0,0.0,0.0,0.0,0.0,0.0,0.0,0.0,0.0,0.0,0.0,0.0,0.0,0.0,0.0,0.0,0.0,0.0,0.0,0.0,0.0,0.0,0.0,0.0,0.0,0.0,0.0,-6.246,-6.3302,-6.4522,-6.6187,-6.6264,-6.632,-6.6406,-6.6406,-6.6422,-6.6508,-6.6508,-6.6508,-6.6508,-6.6508,-6.6508,-6.6508,-6.6508,-6.6508,-6.6508,-6.6508,-6.6508,-6.6508,-6.6508,-6.6508,-6.6508,-6.6508,-6.6508,-6.6508,0.0,0.0,0.0,0.0,0.0,-3.0053,-2.9959,-2.9905,-2.9888,0.0,0.0,0.0,-2.9888,-2.9905,-2.9618,-2.8821,-2.857,-2.8117,-2.7292,-2.66,-2.6237,-2.6334,-2.5822,-2.5574,-2.5671,-2.5675,-2.5796,-2.603,0.0,-2.5485,-2.5095,-2.4627,-2.3926,-2.3186,-2.5524,-2.6693,-2.7043,-2.9026,0.0,0.0,-3.6859,-3.8908,0.0,0.0,0.0,0.0,0.0,-4.114,-4.1738,0.0,-4.0188,-3.5919,0.0,-3.1369,-3.0779,-3.0779,-3.0779,-3.0779,-3.0779,0.0,0.0,0.0,0.0,0.0,0.0,0.0,0.0,0.0,0.0,0.0,0.0,0.0,0.0,0.0,0.0,0.0,0.0,0.0,0.0,0.0,0.0,0.0,0.0,0.0,0.0,0.0,0.0,-6.1503,-6.2393,-6.3844,-6.487,-6.5428,-6.6045,-6.6373,-6.6406,-6.6439,-6.6493,-6.6508,-6.6508,-6.6508,-6.6508,-6.6508,-6.6508,-6.6508,-6.6508,-6.6508,-6.6508,-6.6508,-6.6508,-6.6508,-6.6508,-6.6508,-6.6508,-6.6508,-6.6508,-6.6508,0.0,0.0,-3.0157,-3.0128,-3.0136,-3.0053,-3.0007,-2.9921,-2.9888,0.0,0.0,0.0,-2.9888,-2.9937,-2.9779,-2.9338,-2.906,-2.8657,-2.8211,-2.7505,-2.6969,-2.6707,-2.6287,-2.5957,-2.5718,-2.5718,-2.5718,-2.5718,-2.5718,-2.5446,-2.4939,-2.4939,-2.4471,-2.3731,-2.5913,-2.6887,-2.7004,0.0,0.0,0.0,-3.6703,0.0,0.0,-4.2272,-4.5043,0.0,0.0,0.0,-4.4996,-4.7002,-4.2857,0.0,0.0,-3.3132,-3.0779,-3.0779,-3.0779,-3.0779,-3.0779,-3.0784,-3.0793,-3.0813,0.0,0.0,0.0,0.0,0.0,0.0,0.0,0.0,0.0,0.0,0.0,0.0,0.0,0.0,0.0,0.0,0.0,0.0,0.0,0.0,0.0,0.0,0.0,0.0,-6.251,-6.2413,-6.2916,-6.3592,-6.4304,-6.5131,-6.5597,-6.604,-6.6422,-6.6439,-6.6454,-6.6508,-6.6508,-6.6508,-6.6508,-6.6508,-6.6508,-6.6508,-6.6508,-6.6508,-6.6508,-6.6508,-6.6508,-6.6508,-6.6508,-6.6508,-6.6547,-6.6881,-6.6804,-6.6547,0.0,0.0,-3.0128,-3.0171,-3.0113,-3.0106,-3.0068,-2.9991,-2.9888,0.0,-2.9888,-2.9888,-2.9888,-3.0,-3.006,-3.006,-2.9486,-2.913,-2.913,-2.8387,-2.7642,-2.7024,-2.6808,-2.6443,-2.5835,-2.5757,-2.5718,-2.5718,-2.5718,-2.5718,-2.5718,-2.5718,-2.529,-2.4627,-2.6303,-2.7043,-2.716,-2.8792,0.0,-2.9674,-3.6686,-3.82,0.0,0.0,-4.5065,0.0,-4.7406,-4.7735,-4.7391,-5.0172,-4.6463,0.0,0.0,0.0,-3.1797,-3.1018,-3.1057,-3.1291,-3.0896,-3.0789,-3.0802,-3.0813,-3.022,0.0,-4.0262,-4.164,0.0,0.0,0.0,0.0,0.0,0.0,0.0,0.0,0.0,0.0,0.0,0.0,0.0,0.0,0.0,0.0,0.0,0.0,0.0,-6.3826,-6.3748,-6.3709,-6.3708,-6.3141,-6.3563,-6.5297,-6.5286,-6.5691,-6.6625,-6.65,-6.6422,-6.6508,-6.6508,-6.6508,-6.6508,-6.6508,-6.6508,-6.6508,-6.6508,-6.6508,-6.6508,-6.6508,-6.6508,-6.6508,-6.6508,-6.6508,-6.6586,-6.7277,-6.7176,-6.6726,-3.0128,-3.0128,-3.0113,-3.0053,-3.0038,-3.0007,-2.9975,-2.9905,-2.9888,-2.9888,-2.9888,-2.9888,-2.9888,-2.9921,-2.9937,-2.9937,-2.9893,-2.9889,-2.9889,-2.9243,-2.881,-2.8728,-2.7457,-2.6746,-2.6649,-2.603,-2.5718,-2.5718,-2.5718,-2.5718,-2.5718,-2.5718,-2.5601,-2.5524,-2.7199,-2.794,-2.8017,-2.9065,0.0,-3.4652,-3.817,0.0,-3.9616,-4.7103,-5.0221,-5.0874,-5.2255,-5.2616,-5.2143,0.0,-4.7854,-4.5148,0.0,0.0,0.0,-3.2426,-3.2776,-3.4384,-3.1563,-3.0789,-3.0802,-3.0813,-3.0674,0.0,-3.289,-3.3708,0.0,0.0,0.0,0.0,0.0,0.0,0.0,0.0,0.0,0.0,0.0,0.0,0.0,0.0,0.0,0.0,0.0,0.0,0.0,-6.4754,-6.4097,-6.3709,-6.3761,-6.4321,-6.5092,-6.6221,-6.6221,-6.6648,-6.7557,-6.6843,-6.6493,-6.6508,-6.6508,-6.6508,-6.6508,-6.6508,-6.6508,-6.6508,-6.6508,-6.6508,-6.6508,-6.6508,-6.6508,-6.6508,-6.6508,-6.6508,-6.6508,-6.6687,-6.7021,-6.7393,-3.0098,-3.0083,-3.0068,-3.0053,-3.0022,-3.0007,-2.9975,-2.9905,-2.9888,-2.9888,-2.9888,-2.9888,-2.9888,-2.9953,-3.0015,-3.0075,-3.0188,-3.0267,-3.0316,-3.0023,-2.9689,-2.9319,-2.8533,-2.7723,-2.6922,-2.6498,-2.6108,-2.5718,-2.5718,-2.5718,-2.5718,-2.5718,-2.5917,-2.6389,-2.7667,-2.8446,-2.8922,0.0,-3.2583,-3.662,-3.8753,0.0,-4.4017,-4.9691,-5.2375,-5.329,-5.4298,-5.4635,-5.432,-5.2091,-4.8826,0.0,0.0,-4.1217,-3.8467,0.0,-3.4613,-3.4683,-3.1651,-3.0486,-3.0267,-3.07,-3.0515,0.0,0.0,0.0,0.0,0.0,0.0,0.0,0.0,0.0,0.0,0.0,0.0,0.0,0.0,0.0,0.0,0.0,0.0,0.0,0.0,0.0,-6.518,-6.5566,-6.4812,-6.4348,-6.4403,-6.4438,-6.4915,-6.5817,-6.626,-6.6703,-6.713,-6.7542,-6.7348,-6.6508,-6.7315,-6.7277,-6.6508,-6.692,-6.6881,-6.6508,-6.6508,-6.6508,-6.6508,-6.6508,-6.6508,-6.6508,-6.6508,-6.6508,-6.6547,-6.6943,-6.7099,-6.7099,-3.0053,-3.0038,-3.0022,-3.0053,-3.0022,-2.9991,-2.9991,-2.9921,-2.9888,-2.9888,-2.9937,-2.9953,-2.9953,-3.0647,-3.1145,-3.1264,-3.1941,-3.2127,-3.1574,-3.1565,-3.1,-2.9719,-2.9493,-2.8785,-2.7429,-2.7082,-2.6576,-2.5913,-2.5796,-2.5718,-2.5718,-2.5874,-2.6307,-2.7059,-2.8684,0.0,0.0,0.0,0.0,-3.8416,0.0,-4.3225,-4.8606,-5.216,-5.4142,-5.5139,-5.5807,-5.6015,-5.582,-5.4392,0.0,-4.565,-4.6878,-4.3746,0.0,0.0,0.0,-3.5411,-3.1781,-3.0299,-2.9923,-3.0625,-3.0325,-3.0925,0.0,0.0,0.0,0.0,0.0,0.0,0.0,0.0,0.0,0.0,0.0,0.0,0.0,0.0,0.0,0.0,0.0,0.0,0.0,0.0,0.0,-6.5644,-6.4793,-6.4464,-6.4986,-6.4438,-6.4605,-6.563,-6.6221,-6.6664,-6.7014,-6.8325,-6.8325,-6.6998,-6.8136,-6.8097,-6.6982,-6.7315,-6.7215,-6.6726,-6.6586,-6.6508,-6.6493,-6.6508,-6.6508,-6.6493,-6.6508,-6.6508,-6.6586,-6.7254,-6.7176,-6.6788,-3.0007,-3.0007,-2.9991,-2.9921,-2.9905,-2.9905,-2.9905,-2.9905,-2.9888,-2.9888,-3.006,-3.0174,-3.0174,0.0,0.0,0.0,0.0,0.0,-3.5136,0.0,-3.374,-3.069,-2.9862,-2.9391,-2.9221,-2.7706,-2.6848,-2.6771,-2.6069,-2.5718,-2.5718,-2.642,-2.6809,-2.7121,-3.1797,0.0,0.0,0.0,-3.7501,0.0,-4.138,-4.5176,0.0,-5.5652,-5.7985,-5.9237,-5.8821,-5.8679,-5.818,0.0,-5.2914,-5.0555,0.0,-4.5039,-4.6521,-3.5827,0.0,0.0,-3.2742,-3.0746,-3.0674,0.0,-3.0718,-3.0801,0.0,0.0,-3.1558,0.0,0.0,0.0,0.0,0.0,0.0,0.0,0.0,0.0,0.0,0.0,0.0,0.0,0.0,0.0,0.0,0.0,0.0,0.0,-6.2472,-6.2548,-6.487,-6.4963,-6.5713,-6.7376,-6.6843,-6.7247,-6.8801,-6.8946,-6.889,-6.8696,-6.8114,-6.8136,-6.8566,-6.7238,-6.6982,-6.7509,-6.6804,-6.6493,-6.6406,-6.6493,-6.6439,-6.6406,-6.6493,-6.6508,-6.6508,-6.6625,-6.7021,-6.7454,-2.9921,-2.9921,-2.9921,-2.9905,-2.9888,-2.9888,-2.9888,-3.0305,-3.0663,-3.0663,-3.1124,-3.1477,0.0,0.0,0.0,0.0,0.0,-3.759,0.0,0.0,-3.4196,-3.0834,-3.0367,-2.9997,-2.9494,-2.8792,-2.8173,-2.7667,-2.7316,-2.716,-2.716,-2.7511,-2.7905,-2.8571,-3.2737,0.0,-3.4028,0.0,0.0,0.0,0.0,0.0,0.0,-5.6311,-5.7641,-5.8679,-5.8442,-5.8031,-5.7368,0.0,-5.2843,0.0,0.0,0.0,0.0,-4.0699,0.0,0.0,0.0,0.0,0.0,0.0,0.0,0.0,-3.1352,0.0,-3.0781,0.0,0.0,0.0,0.0,0.0,0.0,0.0,0.0,0.0,0.0,0.0,0.0,0.0,0.0,0.0,0.0,0.0,0.0,0.0,0.0,-6.2452,-6.5606,-6.5779,-6.6165,-6.6916,-6.7105,-6.7565,-6.8334,-6.9256,-6.9511,-6.9007,-6.9574,-6.9498,-6.8897,-6.8664,-6.8273,-6.7687,-6.7354,-6.6904,-6.6439,-6.6493,-6.6493,-6.6439,-6.6406,-6.6422,-6.6508,-6.6422,-6.6622,-6.6821,-2.9888,-2.9888,-2.9888,-2.9888,-2.9888,-2.9964,-3.0229,-3.0814,0.0,0.0,0.0,0.0,-3.2471,-3.4336,0.0,0.0,0.0,-4.0268,0.0,0.0,-3.5941,-3.2584,-3.1346,0.0,0.0,-3.0229,-2.9182,-2.8563,-2.8329,-2.8212,-2.8212,-2.8446,-2.8879,-2.9667,0.0,-3.5777,-3.723,0.0,0.0,-4.6277,-4.6744,-5.0685,-5.6446,-5.7936,-5.8621,-5.8825,-5.8843,-5.8429,-5.7741,-5.6831,-5.3426,0.0,-5.332,0.0,0.0,0.0,0.0,0.0,-3.6323,0.0,0.0,0.0,0.0,0.0,0.0,0.0,0.0,0.0,0.0,0.0,0.0,0.0,-3.069,-3.069,0.0,-3.5115,0.0,0.0,0.0,0.0,0.0,0.0,0.0,0.0,0.0,0.0,0.0,0.0,-6.5354,-6.5838,-6.6108,-6.6358,-6.6993,-6.7587,-6.8124,-6.9567,-7.0093,-6.9688,-7.0622,-7.0544,-6.9556,-6.9711,-6.9284,-6.8368,-6.7937,-6.7409,-6.6804,-6.6586,-6.661,-6.6717,-6.6394,-6.6489,-6.6739,-6.6397,-6.6263,-6.6244,-2.9888,-2.9888,-2.9888,-2.9888,-2.9888,-3.0191,-3.1042,0.0,0.0,0.0,0.0,0.0,0.0,0.0,0.0,0.0,0.0,-4.9799,-4.2381,0.0,-4.0364,0.0,0.0,-3.2706,0.0,0.0,-2.9494,-2.9455,-2.8598,-2.8212,-2.8212,-2.9065,-2.9455,-2.9693,-3.394,-3.6356,-3.7487,-4.1617,-4.5864,-4.9995,-5.1671,-5.4017,-5.7034,0.0,-6.2818,-6.1484,-6.1499,0.0,0.0,-5.7623,-5.5806,0.0,0.0,0.0,0.0,0.0,0.0,0.0,0.0,0.0,0.0,-3.4217,0.0,0.0,0.0,0.0,-3.056,0.0,0.0,0.0,-2.9616,-3.0146,-3.069,-3.069,-3.0846,0.0,0.0,0.0,0.0,0.0,0.0,0.0,0.0,0.0,0.0,0.0,0.0,0.0,0.0,-6.4656,-6.5506,-6.6264,-6.6394,-6.726,-6.8946,-6.986,-7.0696,-7.1417,-7.0602,-7.0583,-7.1197,-6.9711,-6.9437,-7.0039,-6.8458,-6.7775,-6.7609,-6.6804,-6.6894,-6.7406,-6.6591,-6.6786,-6.7346,-6.6495,-6.6185,-6.6165,-2.9888,-2.9888,-2.9888,-2.9888,-2.9888,-3.0191,0.0,-3.1648,0.0,0.0,0.0,0.0,0.0,0.0,-4.5549,0.0,0.0,-4.8695,-4.333,-4.297,0.0,0.0,0.0,-3.331,0.0,0.0,0.0,-3.0351,-3.0078,-2.9922,-2.9922,-3.0234,-3.0351,-3.0507,-3.4252,-3.7954,0.0,0.0,0.0,0.0,0.0,-5.3175,-5.6737,0.0,0.0,-5.8513,-6.0796,-6.0867,0.0,-5.8554,-5.6829,-5.5249,-5.5471,-5.3431,-5.0875,-5.0542,-4.9454,0.0,0.0,0.0,-4.6323,-4.0062,0.0,0.0,0.0,0.0,0.0,0.0,0.0,0.0,-3.0309,-3.0496,-3.069,-3.069,-3.069,-3.069,0.0,0.0,0.0,0.0,0.0,0.0,0.0,0.0,0.0,0.0,0.0,0.0,0.0,-6.5121,-6.5759,-6.5506,-6.6048,-6.6937,-6.8114,-6.9007,-6.986,-7.0735,-7.097,-7.1184,-7.1355,-7.0795,-7.0389,-7.0137,-6.901,-6.823,-6.7736,-6.736,-6.7014,-6.6728,-6.6882,-6.6758,-6.6444,-6.6196,-6.608,-6.6058,-2.9888,-2.9888,-2.9888,-2.9888,0.0,0.0,0.0,0.0,0.0,0.0,-4.0401,0.0,-4.5589,0.0,-4.8971,0.0,-5.1934,-5.0569,-4.5138,-4.5595,0.0,-4.1209,-3.8158,0.0,0.0,0.0,0.0,0.0,0.0,-3.0779,-3.0779,-3.0779,-3.0779,-3.0896,-3.3083,-3.7798,-4.4072,0.0,-4.8709,0.0,0.0,-5.2838,0.0,0.0,-5.7096,0.0,0.0,-6.133,-6.0332,-6.0027,-5.8624,-5.7283,-5.8927,-5.6815,-5.3928,-5.5035,-5.3559,-5.1313,-5.0104,-5.1174,0.0,0.0,-4.5011,0.0,-3.7644,0.0,0.0,0.0,0.0,0.0,0.0,-3.0923,-3.0807,-3.1118,-3.0884,-3.069,0.0,-3.0629,0.0,0.0,0.0,0.0,0.0,0.0,0.0,0.0,0.0,0.0,0.0,0.0,-6.5759,-6.5544,-6.5759,-6.6436,-6.767,-6.8524,-6.9416,-7.0326,-7.1125,-7.1475,-7.1415,-7.1394,-7.1105,-7.0544,-6.9673,-6.9052,-6.8545,-6.8161,-6.7658,-6.7154,-6.7255,-6.6954,-6.6367,-6.6059,-6.5943,-6.5982,-2.9888,-2.9926,0.0,0.0,-3.0663,0.0,0.0,0.0,-3.5828,0.0,-4.1903,-4.3365,-4.6929,-5.1008,-5.3184,-5.2429,-5.6093,0.0,-4.7959,-4.9691,0.0,0.0,-4.5219,-4.628,-4.9683,0.0,0.0,0.0,0.0,0.0,-3.0779,-3.0779,-3.0779,-3.0779,-3.0779,0.0,-4.4624,-4.5553,-5.132,-5.9434,-5.4554,-5.3124,-5.4014,-5.5067,0.0,-5.9472,-6.2029,-6.2922,-6.2764,-6.1954,-6.1101,-6.036,-6.0438,-6.036,-6.0282,-6.0282,-5.9698,-5.8295,-5.5082,-5.3593,-5.2169,-4.8698,0.0,0.0,0.0,0.0,-3.8626,0.0,0.0,0.0,0.0,-3.1661,-3.1273,-3.1895,-3.1273,-3.0676,-3.0591,0.0,0.0,0.0,0.0,0.0,0.0,0.0,0.0,0.0,0.0,0.0,0.0,0.0,0.0,-6.6187,-6.5506,-6.5872,-6.754,-6.8392,-6.9303,-7.0248,-7.1048,-7.1436,-7.1415,-7.1475,-7.1435,-7.1253,-7.0444,-7.0057,-6.9938,-6.9104,-6.869,-6.8521,-6.7726,-6.7268,-6.7013,-6.6205,-6.5897,-6.5897,-2.9888,-3.0419,-3.089,0.0,-3.1042,-3.1459,0.0,0.0,0.0,0.0,-4.5709,-4.8639,-5.4009,-5.5611,-5.6209,-5.5977,-5.6381,0.0,0.0,0.0,0.0,-4.9716,-4.6435,-4.65,-5.0579,-4.1934,0.0,-3.8058,0.0,0.0,-3.0779,-3.0779,-3.0779,-3.0779,-3.0779,0.0,-4.0232,-4.1752,-4.6787,-5.3618,-5.2883,-5.3117,0.0,0.0,-5.9818,-6.1173,-6.3117,-6.3419,-6.289,-6.263,-6.1997,-6.1373,-6.2036,-6.1334,-6.0282,-6.0282,-5.9698,-5.8957,-5.8724,-5.8481,-5.7351,-5.326,-5.2239,-5.1101,0.0,0.0,0.0,0.0,0.0,0.0,0.0,0.0,0.0,-3.2477,-3.1258,-3.0692,-3.0613,0.0,0.0,0.0,0.0,0.0,0.0,0.0,0.0,0.0,0.0,0.0,0.0,0.0,0.0,-6.5312,-6.5178,-6.5547,-6.6632,-6.7482,-6.8411,-6.9317,-7.0192,-7.0911,-7.1475,-7.1455,-7.1394,-7.1253,-7.0402,-7.0015,-6.9955,-6.9633,-6.9162,-6.8613,-6.8937,-6.827,-6.7013,-6.6205,-6.5897,-6.5897,-3.1004,0.0,0.0,-3.1808,0.0,0.0,-3.574,0.0,0.0,-4.6788,-4.8477,0.0,-5.672,-5.866,-5.9532,-5.9532,-5.9416,0.0,0.0,0.0,0.0,-5.1625,-5.1005,-5.1648,-5.3669,-4.7469,0.0,-4.1131,0.0,0.0,-3.0779,-3.0779,-3.0779,-3.0818,-3.1213,-3.4257,-3.9447,-4.5293,-4.9393,-5.2175,-5.4865,0.0,0.0,-5.9802,-6.2079,-6.3917,-6.4487,-6.4138,-6.3416,-6.3403,-6.2875,-6.2321,-6.3136,-6.2737,-6.188,-6.1529,-6.0828,-6.0165,-6.0282,-6.0282,-5.9737,-5.7312,-5.7,-5.6017,-5.1326,-4.9846,-4.9097,0.0,0.0,0.0,0.0,0.0,0.0,-3.3278,-3.1778,-3.1202,0.0,0.0,0.0,0.0,0.0,0.0,0.0,0.0,0.0,0.0,0.0,0.0,0.0,0.0,0.0,-6.2771,-6.2831,-6.3783,-6.5759,-6.5488,-6.657,-6.8972,-6.986,-7.0735,-7.1494,-7.1494,-7.1415,-7.1208,-7.0744,-7.0467,-7.0373,-7.0298,-6.981,-6.9078,-6.9117,-6.8552,-6.7628,-6.7167,-6.6513,-6.5897,-3.2462,0.0,0.0,0.0,0.0,0.0,0.0,-3.96,0.0,-4.9969,0.0,-5.2524,-5.7505,-6.0652,-6.2394,0.0,0.0,-6.1485,-5.7047,-5.8716,-5.7848,-5.3259,-5.6476,-5.8044,-5.7235,-5.4559,0.0,0.0,0.0,0.0,-3.0974,-3.0857,-3.0857,-3.1018,-3.1758,0.0,0.0,-5.0743,-5.4064,0.0,-5.8126,-6.02,-6.0442,-6.1768,-6.4112,-6.6614,-6.5857,-6.4994,-6.4284,-6.4278,-6.374,-6.3182,-6.4012,-6.4179,-6.3945,-6.3127,-6.2348,-6.1607,-6.0867,-6.0633,-6.0633,-6.0633,-6.1218,-6.0555,-5.5978,-5.4918,-5.3818,-5.0023,-4.9109,0.0,0.0,0.0,0.0,-3.5106,0.0,0.0,0.0,0.0,0.0,0.0,0.0,0.0,0.0,0.0,0.0,0.0,0.0,0.0,0.0,0.0,0.0,0.0,-6.0599,0.0,-6.4537,0.0,-6.4635,-6.8237,-6.9532,-7.0619,-7.1494,-7.1589,-7.1455,-7.1201,-7.1201,-7.1106,-7.0898,-7.0898,-7.0475,-6.9783,-6.9013,-6.8667,-6.859,-6.859,-6.759,-6.6244,0.0,0.0,0.0,0.0,0.0,-4.2902,-4.7216,-4.697,-4.7867,-5.2275,-5.4094,0.0,-6.1059,-6.2046,-6.2394,-6.2394,-6.1892,0.0,0.0,0.0,0.0,-5.7577,-5.7446,-5.7407,-5.7271,-5.3382,-4.9533,0.0,0.0,0.0,-3.1875,-3.1135,-3.1174,-3.1875,-3.2036,0.0,-4.3117,-4.578,0.0,-5.4008,-5.7736,-5.9651,-6.071,-6.4409,-6.6188,-6.6678,-6.6523,-6.5896,-6.5173,-6.5176,-6.4597,-6.4042,-6.488,-6.4686,-6.3945,-6.3127,-6.2776,-6.262,-6.2503,-6.2426,-6.2426,-6.2426,-6.2542,-6.227,-6.0633,-6.0204,-5.9938,-5.9188,-5.8389,-5.7068,-5.4388,0.0,0.0,0.0,0.0,0.0,0.0,0.0,0.0,0.0,0.0,0.0,0.0,0.0,0.0,0.0,0.0,0.0,0.0,0.0,0.0,0.0,0.0,0.0,0.0,0.0,0.0,-6.4726,-6.7786,-7.0054,-7.1589,-7.1607,-7.1455,-7.1201,-7.1201,-7.1106,-7.0898,-7.0898,-7.0821,-7.0667,-7.0514,-7.0052,-6.9475,-6.9475,-6.8821,-6.7975,0.0,0.0,0.0,0.0,0.0,0.0,0.0,-5.3889,0.0,-5.6051,-5.6875,-5.838,-6.0824,-6.2259,-6.3052,-6.3052,-6.2704,-6.224,-6.1814,-6.1427,-6.0615,-5.9339,-5.8856,0.0,-5.7985,-5.5935,-5.2206,-4.669,0.0,0.0,-3.3395,-3.2538,-3.2382,-3.2893,-3.5577,-3.9558,0.0,0.0,0.0,-5.6878,-6.0759,-6.2843,-6.3837,-6.5902,-6.6706,-6.6718,-6.6713,-6.6426,-6.6053,-6.6057,-6.5496,-6.4942,-6.5787,-6.5465,-6.4686,-6.4296,-6.3867,-6.3517,-6.3517,-6.3497,-6.3475,-6.3475,-6.3453,-6.3184,-6.2328,-6.2121,-6.1992,-6.1512,-6.1394,-6.0201,-5.6343,-5.0416,0.0,0.0,0.0,0.0,0.0,0.0,0.0,0.0,0.0,0.0,0.0,0.0,0.0,0.0,0.0,0.0,0.0,0.0,0.0,0.0,0.0,0.0,0.0,0.0,0.0,-6.6475,-6.823,-6.9955,-7.1607,-7.1586,-7.1455,-7.1247,-7.1247,-7.113,-7.0898,-7.0898,-7.0898,-7.0898,-7.0898,-7.0667,-7.0321,-7.0321,-7.0052,-6.959,0.0,-3.8575,0.0,0.0,-4.7796,0.0,0.0,-5.9029,-6.1717,-5.9736,-5.9503,-5.9813,-6.0627,-6.251,-6.371,-6.371,-6.371,-6.34,-6.2704,-6.2511,-6.1737,-6.0228,-6.0169,-5.9684,-5.8639,-5.9005,-5.5738,0.0,0.0,0.0,0.0,-3.4486,-3.4408,0.0,0.0,0.0,0.0,0.0,-5.8117,-6.0668,-6.4051,-6.5822,-6.6457,-6.6618,-6.6711,-6.6718,-6.6696,-6.6717,-6.6717,-6.67,-6.6226,-6.5783,-6.6459,-6.6244,-6.566,-6.5444,-6.4899,-6.4354,-6.4343,-6.4309,-6.4312,-6.4507,-6.4506,-6.4231,-6.3376,-6.3196,-6.2963,-6.2041,-6.2415,-6.1585,-5.7271,-5.3701,0.0,0.0,0.0,0.0,0.0,0.0,0.0,0.0,0.0,0.0,0.0,0.0,0.0,0.0,0.0,0.0,0.0,0.0,0.0,0.0,0.0,0.0,-6.307,0.0,-6.323,0.0,-6.8657,-6.9972,-7.1586,-7.1603,-7.1474,-7.1291,-7.1269,-7.113,-7.0898,-7.0969,-7.093,-7.0787,-7.0882,-7.0873,-7.0777,-7.0777,-7.0777,-7.0584,0.0,0.0,0.0,0.0,0.0,0.0,0.0,-6.0576,-6.2317,-6.2085,-6.2046,-6.2356,-6.3265,-6.3574,-6.371,-6.371,-6.371,-6.3671,-6.3555,-6.2859,-6.1969,-6.1041,-6.1092,-6.0406,-5.8723,-6.0313,-5.8519,0.0,0.0,0.0,0.0,-3.6824,0.0,0.0,0.0,0.0,0.0,-5.7282,-6.0371,-6.4833,-6.5228,-6.545,-6.5624,-6.6405,-6.6718,-6.6718,-6.6696,-6.6717,-6.6712,-6.672,-6.6644,-6.6605,-6.6673,-6.6634,-6.6429,-6.5555,-6.5271,-6.5181,-6.5114,-6.5153,-6.5362,-6.6061,-6.6322,-6.6102,-6.5246,-6.5012,-6.4736,-6.3828,-6.372,-6.2486,-5.8187,-5.7038,-5.5719,0.0,0.0,0.0,0.0,0.0,-5.7146,-5.3227,0.0,0.0,0.0,0.0,0.0,0.0,0.0,0.0,0.0,0.0,0.0,-6.0809,0.0,-5.828,-5.6863,-6.1297,0.0,-6.4339,-6.7476,-6.9933,-7.1598,-7.155,-7.1455,-7.1291,-7.1178,-7.103,-7.0909,-7.1306,-7.0986,-7.0413,-7.076,-7.0677,-7.0369,-7.0369,-7.0369,-7.033,0.0,0.0,0.0,0.0,0.0,0.0,0.0,-6.2201,-6.2975,-6.2472,-6.2859,-6.3091,-6.2936,-6.2936,-6.2704,-6.2201,-6.2124,-6.2356,-6.2897,-6.2644,-6.2293,-6.1983,-6.2028,-6.1531,-6.0366,-6.1031,-5.94,0.0,0.0,0.0,0.0,0.0,0.0,0.0,0.0,-5.4009,-5.7905,-6.1023,-6.3496,-6.5441,-6.5948,-6.6193,-6.6237,-6.6562,-6.6716,-6.6699,-6.6681,-6.6689,-6.6689,-6.6683,-6.6712,-6.6712,-6.6712,-6.6691,-6.6579,-6.6205,-6.6063,-6.5997,-6.6009,-6.5994,-6.6111,-6.6422,-6.647,-6.6377,-6.6027,-6.5934,-6.5685,-6.4815,-6.4233,-6.3379,-6.1686,-5.9668,-5.8309,0.0,0.0,0.0,0.0,0.0,0.0,-5.552,0.0,-5.007,0.0,0.0,0.0,0.0,0.0,0.0,0.0,0.0,0.0,-5.7946,0.0,-6.1458,-5.916,-6.2354,-6.4947,-6.6933,-6.8364,-6.995,-7.1598,-7.1532,-7.1394,-7.1178,-7.103,-7.0805,-7.0532,-7.0713,-7.0743,-7.0646,-7.0309,-7.0494,-7.0921,-7.022,-7.0099,-7.02,-5.309,0.0,-5.3739,0.0,-5.8871,-5.962,-6.2375,-6.3091,-6.3091,-6.2472,-6.2704,-6.2704,-6.2085,-6.2008,-6.1776,-6.1157,-6.1098,-6.1387,-6.2006,-6.2134,-6.2183,-6.2183,-6.2507,0.0,-6.181,-6.2069,-6.1005,-5.8597,-5.4538,0.0,0.0,0.0,0.0,0.0,-5.5801,-5.8217,-6.0204,-6.3867,-6.5406,-6.5463,-6.636,-6.6549,-6.6331,-6.6596,-6.6718,-6.6708,-6.6688,-6.6689,-6.6681,-6.6693,-6.6712,-6.6712,-6.6702,-6.6669,-6.6633,-6.6555,-6.6528,-6.65,-6.6485,-6.647,-6.6493,-6.6493,-6.6461,-6.6428,-6.6428,-6.6445,-6.6251,-6.5652,-6.5048,-6.4614,-6.4411,-6.2337,-6.0925,0.0,0.0,0.0,0.0,-6.132,0.0,-5.7257,-5.3584,-5.1595,-5.2276,0.0,0.0,0.0,0.0,0.0,0.0,0.0,0.0,0.0,0.0,0.0,0.0,0.0,-6.5911,-6.9007,-6.904,-6.9933,-7.1547,-7.1416,-7.1163,-7.0887,-7.0777,-7.0501,-7.0137,-7.0261,-7.046,-7.064,-6.9951,-7.0306,-7.1027,-6.9928,-6.9702,-6.9887,-5.6271,-5.4469,-5.4636,-6.2278,-6.0881,-5.9813,-6.3187,-6.2975,-6.2433,-6.2394,-6.166,-6.1118,-6.1118,-6.1118,-6.1118,-6.1118,-6.1169,-6.1181,-6.122,-6.1337,-6.1419,0.0,0.0,-6.2807,-6.2768,-6.3642,-6.4062,-6.4023,0.0,0.0,-5.6269,0.0,-5.397,-5.888,-5.8957,-6.1334,-6.5309,-6.5387,-6.5402,-6.5463,-6.6349,-6.6193,-6.5507,-6.639,-6.6699,-6.6692,-6.6715,-6.6696,-6.6687,-6.6697,-6.6693,-6.6702,-6.668,-6.6708,-6.6657,-6.6538,-6.6508,-6.6493,-6.6411,-6.6411,-6.6406,-6.6406,-6.6439,-6.6508,-6.6508,-6.6508,-6.6508,-6.6508,-6.647,-6.6198,-6.5343,-6.5149,-6.4046,-6.0677,0.0,0.0,0.0,-6.15,0.0,-5.9,-5.4885,-5.3931,-5.817,0.0,0.0,0.0,0.0,0.0,0.0,0.0,0.0,-6.2344,-6.0996,0.0,-6.1275,-6.386,-6.6493,-6.9007,-6.9007,-6.9864,-7.1494,-7.1224,-7.0794,-7.0337,-7.0304,-7.0064,-6.974,-7.0127,-7.0292,-7.0285,-6.9852,-6.9957,-7.0217,-6.9391,-6.9091,-6.9091,-6.044,-5.9937,-6.0112,-6.3168,-6.2336,-6.1562,-6.2665,-6.2085,-6.1505,-6.1505,-6.1289,-6.1169,-6.1169,0.0,-6.1169,0.0,-6.1268,-6.1352,0.0,-6.1421,-6.1447,-6.1447,-6.2374,-6.2863,-6.2863,-6.4247,-6.4686,-6.4101,0.0,0.0,0.0,-5.7087,-5.8685,-6.2503,-6.3088,-6.414,-6.5426,-6.6029,-6.6273,-6.6312,-6.658,-6.6525,-6.6304,-6.6639,-6.6756,-6.6715,-6.6706,-6.6713,-6.6705,-6.6683,-6.6702,-6.6702,-6.6672,-6.6581,-6.6553,-6.6524,-6.6493,-6.6422,-6.6389,-6.6422,-6.6493,-6.6493,-6.6493,-6.6508,-6.6508,-6.6508,-6.6508,-6.6508,-6.6508,-6.6431,-6.6159,-6.6081,-6.5522,-6.386,0.0,0.0,0.0,0.0,-5.8784,-5.5591,-5.1935,-5.1121,0.0,0.0,0.0,0.0,0.0,0.0,0.0,0.0,0.0,0.0,-6.106,0.0,-6.0035,-6.2959,-6.5881,-6.8664,-6.8664,-6.9469,-7.0927,-7.0744,-7.0394,-6.9887,-6.9887,-6.9664,-6.9303,-6.9397,-6.9664,-6.9852,-6.9744,-6.9948,-7.0248,-6.9705,-6.9349,-6.9047,-6.1772,-6.1715,-6.1833,-6.3013,-6.2472,-6.191,-6.1947,-6.1483,-6.1152,-6.1225,-6.1236,-6.1384,-6.1694,-6.1492,0.0,-6.1694,-6.1847,0.0,-6.1927,-6.2262,-6.2335,-6.2024,-6.2601,-6.3049,-6.3322,0.0,0.0,-6.4101,-6.2815,-6.2114,-6.188,-6.188,-6.3049,-6.5114,-6.566,-6.5883,-6.5912,-6.6135,-6.6418,-6.6683,-6.633,-6.6408,-6.6756,-6.6758,-6.6747,-6.6735,-6.6752,-6.6728,-6.6728,-6.6722,-6.6702,-6.6702,-6.662,-6.6553,-6.6508,-6.6508,-6.6493,-6.6422,-6.6422,-6.6493,-6.6508,-6.6508,-6.6508,-6.6508,-6.6508,-6.6508,-6.6508,-6.6508,-6.6508,-6.6508,-6.6508,-6.6508,-6.6299,-6.5746,0.0,-6.4993,-6.312,0.0,-5.8048,0.0,0.0,0.0,0.0,-5.4506,0.0,0.0,0.0,0.0,0.0,0.0,0.0,-5.9455,-6.2667,0.0,-6.168,-6.3629,-6.591,-6.8519,-6.9046,-6.9746,-7.0566,-7.0324,-6.9921,-6.9468,-6.9468,-6.9261,-6.8863,-6.8863,-6.9388,-7.0103,-6.9509,-6.9964,-7.0911,-7.0016,-6.9554,-6.9303,-6.0821,-6.0455,0.0,0.0,-6.1621,0.0,-6.1281,-6.1297,-6.1384,-6.1536,-6.1589,-6.19,-6.2716,-6.2186,-6.2055,-6.2807,0.0,0.0,0.0,-6.372,-6.3828,-6.301,-6.2971,0.0,-6.4062,-6.3439,-6.3478,-6.4296,-6.5075,-6.5894,-6.6712,-6.6712,-6.6712,-6.6712,-6.6634,-6.6613,-6.6552,-6.5667,-6.5826,-6.6549,-6.5722,-6.5965,-6.6789,-6.6718,-6.675,-6.682,-6.6811,-6.6798,-6.6766,-6.672,-6.6693,-6.6691,-6.6594,-6.6567,-6.6508,-6.6508,-6.6508,-6.6508,-6.6508,-6.6508,-6.6508,-6.6508,-6.6508,-6.6508,-6.6508,-6.6508,-6.6508,-6.6508,-6.6508,-6.6508,-6.6508,-6.6508,-6.6493,-6.6406,-6.6195,-6.4954,-6.174,0.0,-5.88,0.0,0.0,0.0,0.0,-6.1191,-6.2835,0.0,0.0,0.0,0.0,0.0,-5.8462,-6.6723,-6.5167,-6.4507,-6.5245,-6.5322,-6.637,-6.8529,-6.9951,-7.0537,-7.033,-6.9887,-6.9428,-6.9047,-6.9047,-6.8855,-6.8506,-6.8506,-6.9397,-7.0623,-6.9174,-6.9992,-7.1812,-7.0363,-6.9769,-6.9732,0.0,0.0,-6.0205,-6.1234,-6.1289,-6.1397,-6.2073,-6.2253,-6.2531,-6.3221,-6.334,-6.3716,-6.4584,-6.4555,-6.4821,-6.5656,-6.4538,-6.4081,-6.4743,-6.4987,-6.4725,-6.3867,-6.3828,-6.3906,-6.4101,-6.4569,-6.5231,-6.6088,-6.6283,-6.6517,-6.6712,-6.6712,-6.6712,-6.6673,-6.599,-6.5706,-6.5667,-6.4783,-6.4926,-6.5683,-6.5498,-6.5976,-6.6797,-6.6774,-6.679,-6.679,-6.6811,-6.6752,-6.672,-6.6634,-6.663,-6.6594,-6.6528,-6.6524,-6.6508,-6.6508,-6.6508,-6.6508,-6.6508,-6.6508,-6.6508,-6.6508,-6.6508,-6.6508,-6.6508,-6.6508,-6.6508,-6.6508,-6.6508,-6.6493,-6.6422,-6.6422,-6.6389,-6.632,-6.4131,-6.2138,-6.1271,-5.8716,0.0,0.0,-5.5835,-5.7168,-6.0842,-6.1191,-6.1634,0.0,0.0,0.0,0.0,0.0,-5.9731,-6.4688,-6.41,-6.3764,-6.3959,-6.4365,-6.5874,-6.846,-6.9556,-6.988,-6.955,-6.9347,-6.9041,-6.866,-6.866,-6.8565,-6.8506,-6.8506,-6.8729,-6.91,-6.9323,-6.9769,-7.0326,-7.0549,-7.0252,-6.9732,-5.9165,-5.9365,-5.9852,-6.1462,-6.1768,-6.2105,-6.3036,-6.3235,-6.3431,-6.3923,-6.4037,-6.4527,-6.5812,-6.56,-6.6088,-6.7725,-6.6673,-6.5894,-6.6011,-6.6751,-6.679,-6.5933,-6.5504,-6.5309,-6.5309,-6.4958,-6.5231,-6.6127,-6.6127,-6.6117,-6.6107,-6.6107,-6.5912,-6.55,-6.5022,-6.481,-6.4744,-6.3881,-6.4007,-6.4825,-6.4803,-6.5381,-6.6234,-6.6667,-6.6811,-6.6778,-6.6759,-6.6736,-6.672,-6.6641,-6.6594,-6.6569,-6.6538,-6.6508,-6.6508,-6.6508,-6.6508,-6.6508,-6.6508,-6.6508,-6.6508,-6.6508,-6.6508,-6.6508,-6.6508,-6.6508,-6.6508,-6.6508,-6.6508,-6.6493,-6.6406,-6.6406,-6.6373,-6.6322,-6.3437,-6.1173,-6.1118,-5.8178,0.0,-5.8139,-5.8333,-5.9705,-6.3129,-6.3477,-6.34,-6.3261,0.0,0.0,-6.251,-6.1381,-6.1852,-6.435,-6.3716,-6.3464,-6.3766,-6.4935,-6.6445,-6.8299,-6.9209,-6.9472,-6.9185,-6.8915,-6.8707,-6.8506,-6.8506,-6.8506,-6.8506,-6.8506,-6.8729,-6.9063,-6.9137,-6.9843,-7.0846,-7.092,-7.0883,-7.0809,-5.8808,-5.9087,-5.9863,-6.2299,-6.2842,-6.32,-6.4079,-6.4414,-6.4594,-6.4481,-6.4608,-6.5309,-6.6907,-6.6439,-6.6946,-6.9284,-6.8933,-6.8154,-6.718,-6.8582,-6.9089,-6.8232,-6.7491,-6.7102,-6.7102,-6.5504,-6.4997,-6.5621,-6.5621,-6.5533,-6.5384,-6.5384,-6.4944,-6.4091,-6.3959,-6.3896,-6.3858,-6.2987,-6.3193,-6.4092,-6.4125,-6.4731,-6.5797,-6.6525,-6.6805,-6.6784,-6.6736,-6.6759,-6.675,-6.6618,-6.6581,-6.6555,-6.6524,-6.6508,-6.6508,-6.6508,-6.6508,-6.6508,-6.6508,-6.6508,-6.647,-6.6353,-6.6392,-6.6508,-6.6493,-6.6508,-6.6508,-6.6493,-6.6493,-6.6439,-6.6389,-6.6389,-6.62,-6.5606,-6.2662,-6.0399,-6.0344,0.0,-5.7232,-6.0674,-6.1524,-6.2994,-6.5894,-6.6185,-6.6024,-6.5538,-6.4834,0.0,0.0,-6.3795,-6.3797,-6.4516,-6.3577,-6.3453,-6.4229,-6.6099,-6.7422,-6.8194,-6.8843,-6.9139,-6.8997,-6.866,-6.8506,-6.8506,-6.8506,-6.8506,-6.8506,-6.8506,-6.8914,-6.9472,-6.8914,-7.0029,-7.1923,-7.1329,-7.1552,-7.2072,-6.0628,-6.0957,-6.1469,-6.3347,-6.4279,-6.4853,-6.5064,-6.6396,-6.713,-6.64,-6.6946,-6.7764,-6.8777,-6.8777,-6.9128,-7.0297,-7.0881,-7.0531,-6.9011,-6.9829,-7.0024,-6.9128,-6.8972,-6.8894,-6.8894,-6.792,-6.7102,-6.6517,-6.6517,-6.6117,-6.5384,-6.5384,-6.4944,-6.4052,-6.3331,-6.2984,-6.2928,-6.2069,-6.2649,-6.4089,-6.4157,-6.5152,-6.6616,-6.6733,-6.6805,-6.6791,-6.6783,-6.6732,-6.6606,-6.6594,-6.6542,-6.6524,-6.6508,-6.6508,-6.6508,-6.6508,-6.6508,-6.6508,-6.6508,-6.6508,-6.6314,-6.5576,-6.5965,-6.6493,-6.6422,-6.6439,-6.6493,-6.6411,-6.6428,-6.6389,-6.634,-6.6322,-6.5335,-6.2375,-5.9047,-5.6786,-5.6786,0.0,-5.7177,-6.0616,-6.3552,-6.5522,-6.6063,-6.6165,-6.5793,-6.4754,-6.4304,-6.3673,-6.2724,-6.3011,-6.316,-6.3193,-6.3041,-6.3593,-6.5042,-6.6568,-6.7755,-6.8605,-6.8586,-6.8613,-6.8565,-6.8554,-6.8506,-6.8506,-6.8506,-6.8506,-6.8506,-6.8506,-6.858,-6.8766,-6.9323,-7.0177,-7.118,-7.1775,-7.2072,-7.2072,-6.1161,-6.1755,-6.2585,-6.4351,-6.4986,-6.5596,-6.6591,-6.7042,-6.7491,-6.8037,-6.7647,-6.7998,-6.979,-6.9596,-6.9634,-7.0531,-7.1349,-7.1271,-7.0063,-7.0765,-7.1076,-7.0648,-7.0219,-6.979,-6.9323,-6.8894,-6.8504,-6.8115,-6.7647,-6.6935,-6.6085,-6.5617,-6.4938,-6.4072,-6.3686,-6.3243,-6.2771,-6.2375,-6.2423,-6.2785,-6.328,-6.4263,-6.5432,-6.5878,-6.6346,-6.6736,-6.6186,-6.624,-6.6543,-6.6036,-6.5839,-6.5809,-6.5809,-6.5498,-6.5149,-6.5149,-6.5809,-6.6392,-6.5926,-6.5809,-6.5615,-6.476,-6.4823,-6.5064,-6.5048,-6.5048,-6.5031,-6.4998,-6.5386,-6.5696,-6.5624,-6.5993,-6.5161,-6.166,-5.9764,0.0,0.0,-5.8684,-5.9901,-6.3295,-6.5093,-6.6058,-6.6102,-6.555,-6.5139,-6.4945,-6.4146,-6.3558,-6.3276,-6.3456,-6.3705,-6.4112,-6.4107,-6.4806,-6.6366,-6.7012,-6.7784,-6.8602,-6.8506,-6.8506,-6.8506,-6.8506,-6.8506,-6.8506,-6.8506,-6.8506,-6.8506,-6.8506,-6.8506,-6.8543,-6.8914,-6.9843,-7.0958,-7.1366,-7.2072,-7.2704,-6.1862,-6.2718,-6.3794,-6.5361,-6.5932,-6.6606,-6.7831,-6.792,-6.8232,-6.9167,-6.831,-6.8388,-7.0375,-6.9985,-6.9946,-7.0804,-7.1427,-7.1544,-7.092,-7.1466,-7.1817,-7.1817,-7.1193,-7.0492,-6.9634,-6.9596,-6.9479,-6.9284,-6.8427,-6.7676,-6.698,-6.5883,-6.5026,-6.4372,-6.4174,-6.3746,-6.3099,-6.3086,-6.2733,-6.2231,-6.2942,-6.37,-6.4544,-6.5173,-6.5835,-6.6351,-6.5567,-6.5713,-6.6128,-6.5241,-6.5071,-6.5188,-6.4993,-6.4488,-6.3983,-6.3983,-6.4916,-6.5732,-6.4877,-6.476,-6.4721,-6.3891,-6.3798,-6.3922,-6.389,-6.3834,-6.3817,-6.38,-6.4459,-6.5061,-6.5025,-6.5703,-6.5142,-6.164,0.0,0.0,0.0,-6.1,-6.2215,-6.5604,-6.599,-6.6013,-6.6058,-6.5191,-6.4726,-6.4963,-6.3934,-6.3389,-6.3522,-6.3771,-6.4433,-6.5664,-6.5613,-6.6164,-6.7384,-6.7513,-6.7911,-6.8506,-6.8506,-6.8506,-6.8506,-6.8506,-6.8506,-6.8506,-6.8506,-6.8506,-6.8506,-6.8506,-6.8506,-6.8543,-6.8729,-6.9657,-7.0958,-7.1143,-7.2146,-7.3261,-6.372,-6.457,-6.5427,-6.6418,-6.7864,-6.8708,-6.8104,-6.9946,-7.092,-6.9479,-6.9868,-7.0375,-7.057,-7.0531,-7.0842,-7.1622,-7.1778,-7.1778,-7.17,-7.1778,-7.1817,-7.1817,-7.1739,-7.131,-7.0531,-7.0492,-7.0102,-6.9284,-6.8427,-6.7987,-6.7887,-6.6182,-6.5315,-6.5198,-6.4414,-6.4044,-6.3993,-6.3998,-6.3955,-6.3945,-6.4051,-6.4588,-6.5319,-6.5377,-6.5377,-6.5387,-6.5336,-6.5297,-6.5188,-6.4372,-6.4566,-6.5071,-6.4333,-6.4061,-6.3983,-6.3983,-6.41,-6.3983,-6.3129,-6.3478,-6.3867,-6.2929,-6.3301,-6.3867,-6.3821,-6.3783,-6.38,-6.3709,-6.4386,-6.5025,-6.5006,-6.5603,-6.4981,-6.1582,0.0,0.0,-6.0997,-6.0955,-6.2182,-6.5596,-6.602,-6.602,-6.602,-6.5628,-6.4996,-6.4007,-6.3489,-6.2786,-6.1752,-6.3094,-6.4911,-6.717,-6.7244,-6.7272,-6.7317,-6.806,-6.8468,-6.8506,-6.8506,-6.8506,-6.8506,-6.8506,-6.8506,-6.8506,-6.8506,-6.8506,-6.8506,-6.8506,-6.8506,-6.858,-6.9323,-7.014,-7.1032,-7.1812,-7.2629,-7.3149,-6.3379,-6.488,-6.6117,-6.5991,-6.7325,-6.8366,-6.8026,-6.9284,-7.0219,-7.0102,-6.9907,-7.018,-7.1232,-7.0881,-7.092,-7.1739,-7.1817,-7.1817,-7.1817,-7.1817,-7.1817,-7.1817,-7.1817,-7.1661,-7.1349,-7.1349,-7.1193,-7.0842,-7.0024,-6.9596,-6.9585,-6.7844,-6.7,-6.6943,-6.6084,-6.5418,-6.4903,-6.49,-6.4296,-6.34,-6.3935,-6.4325,-6.4598,-6.4555,-6.4843,-6.5181,-6.4078,-6.4012,-6.4333,-6.3478,-6.3401,-6.3595,-6.3284,-6.3206,-6.3284,-6.3828,-6.3983,-6.3945,-6.3595,-6.3308,-6.2929,-6.202,-6.2012,-6.2233,-6.2198,-6.2141,-6.2141,-6.2104,-6.3168,-6.4115,-6.4134,-6.5192,-6.4916,-6.1481,0.0,-6.3329,-6.1241,-6.2721,-6.4508,-6.5793,-6.5947,-6.5947,-6.5996,-6.5015,-6.4419,-6.4514,-6.3427,-6.284,-6.2934,-6.4413,-6.5886,-6.729,-6.781,-6.8071,-6.806,-6.8357,-6.8506,-6.8506,-6.8506,-6.8506,-6.8506,-6.8506,-6.8506,-6.8506,-6.8506,-6.8506,-6.8506,-6.8506,-6.8506,-6.8543,-6.884,-6.9769,-7.0958,-7.1292,-7.2258,-7.3224,-6.3374,-6.5121,-6.6516,-6.597,-6.7511,-6.8816,-6.8816,-6.9557,-7.0297,-7.0881,-7.0453,-7.0531,-7.1661,-7.131,-7.1193,-7.1739,-7.1817,-7.1817,-7.1817,-7.1817,-7.1817,-7.1817,-7.1817,-7.1817,-7.1817,-7.1817,-7.1817,-7.1817,-7.0717,-7.0346,-7.0541,-6.8527,-6.7733,-6.7965,-6.7107,-6.6385,-6.5777,-6.5504,-6.4754,-6.3691,-6.3982,-6.4099,-6.4048,-6.4027,-6.4364,-6.4753,-6.3532,-6.3634,-6.4255,-6.3401,-6.3129,-6.3051,-6.2779,-6.2701,-6.2779,-6.309,-6.3556,-6.3867,-6.3323,-6.2905,-6.2447,-6.185,-6.184,-6.1884,-6.1289,-6.1348,-6.1523,-6.1486,-6.2606,-6.3668,-6.3917,-6.5087,-6.5257,-6.2905,-6.4463,-6.5172,-6.2814,-6.4508,-6.5947,-6.5897,-6.5755,-6.569,-6.5705,-6.4546,-6.4024,-6.4626,-6.3525,-6.3319,-6.448,-6.5551,-6.6621,-6.7651,-6.8257,-6.8554,-6.8506,-6.8506,-6.8506,-6.8506,-6.8506,-6.8506,-6.8506,-6.8506,-6.8506,-6.8506,-6.8506,-6.8506,-6.8506,-6.8506,-6.8506,-6.8506,-6.8506,-6.936,-7.0549,-7.0846,-7.1575,-7.2362,-6.4034,-6.5535,-6.6711,-6.6711,-6.8875,-7.0609,-7.057,-7.1271,-7.1817,-7.1778,-7.1817,-7.1817,-7.1817,-7.1817,-7.1817,-7.1817,-7.1817,-7.1817,-7.1817,-7.1817,-7.1817,-7.1817,-7.1817,-7.1817,-7.1817,-7.1817,-7.1817,-7.1778,-7.0114,-6.9757,-7.0543,-6.7925,-6.719,-6.7971,-6.7071,-6.6712,-6.6634,-6.5777,-6.5405,-6.5345,-6.4488,-6.4091,-6.4001,-6.4001,-6.4012,-6.4022,-6.3983,-6.4527,-6.5071,-6.4255,-6.3983,-6.3828,-6.2973,-6.2701,-6.2546,-6.1691,-6.2663,-6.3634,-6.1886,-6.2012,-6.2603,-6.2516,-6.3192,-6.3386,-6.1542,-6.1813,-6.2451,-6.2336,-6.3011,-6.384,-6.4663,-6.5465,-6.5996,-6.5996,-6.5947,-6.5897,-6.5897,-6.5897,-6.5897,-6.5897,-6.5417,-6.5099,-6.5099,-6.4407,-6.4009,-6.4009,-6.3742,-6.4345,-6.6017,-6.6147,-6.6937,-6.8468,-6.8602,-6.8602,-6.8506,-6.8506,-6.8506,-6.8506,-6.8506,-6.8506,-6.8506,-6.8506,-6.8506,-6.8506,-6.8506,-6.8506,-6.8506,-6.8506,-6.8506,-6.8506,-6.8506,-6.8989,-6.9806,-7.0623,-7.0768,-7.0471,-6.4091,-6.5627,-6.697,-6.7594,-6.9314,-7.0375,-6.979,-7.0881,-7.1583,-7.1037,-7.1466,-7.1817,-7.1817,-7.1817,-7.1817,-7.1817,-7.1817,-7.1817,-7.1817,-7.1817,-7.1817,-7.1817,-7.1817,-7.1817,-7.1817,-7.1817,-7.1507,-7.098,-7.0453,-7.0362,-7.0543,-6.8544,-6.8088,-6.8864,-6.7344,-6.6683,-6.6693,-6.6429,-6.5951,-6.5444,-6.5725,-6.5492,-6.4934,-6.4867,-6.4838,-6.476,-6.4216,-6.375,-6.3401,-6.3168,-6.2663,-6.2235,-6.2585,-6.2701,-6.2779,-6.3129,-6.3983,-6.4721,-6.4216,-6.4668,-6.473,-6.2277,-6.184,-6.1884,-6.1289,-6.1776,-6.2356,-6.2316,-6.3411,-6.4463,-6.471,-6.5394,-6.5923,-6.5923,-6.5923,-6.5897,-6.5897,-6.5359,-6.5205,-6.582,-6.4882,-6.4451,-6.5023,-6.3916,-6.3409,-6.3971,-6.3742,-6.4345,-6.6017,-6.6138,-6.6881,-6.8468,-6.8554,-6.8554,-6.8506,-6.8506,-6.8506,-6.8506,-6.8506,-6.8506,-6.8506,-6.8506,-6.8506,-6.8506,-6.8506,-6.8506,-6.8506,-6.8506,-6.8506,-6.8506,-6.8506,-6.8989,-6.9756,-7.042,-7.056,-7.0417,-6.5184,-6.6649,-6.7946,-6.8483,-6.9977,-7.0881,-7.0375,-7.1154,-7.1622,-7.1154,-7.1505,-7.1817,-7.1817,-7.1817,-7.1817,-7.1817,-7.1817,-7.1817,-7.1817,-7.1817,-7.1817,-7.1817,-7.1817,-7.1799,-7.1798,-7.1798,-7.1573,-7.1082,-7.0413,-7.0078,-7.0033,-6.8318,-6.7773,-6.8202,-6.6819,-6.6205,-6.6176,-6.5823,-6.5539,-6.5411,-6.5894,-6.5736,-6.5256,-6.5226,-6.5188,-6.511,-6.4294,-6.3867,-6.3634,-6.3323,-6.2624,-6.2002,-6.2546,-6.2934,-6.3323,-6.3867,-6.4799,-6.5576,-6.4916,-6.5343,-6.5406,-6.2983,-6.282,-6.3003,-6.1983,-6.2587,-6.3245,-6.2874,-6.3792,-6.4778,-6.51,-6.5576,-6.5897,-6.5897,-6.5897,-6.5782,-6.5436,-6.4936,-6.4666,-6.4859,-6.3847,-6.3346,-6.3878,-6.2824,-6.23,-6.2827,-6.2768,-6.3379,-6.5013,-6.5468,-6.6398,-6.8034,-6.8405,-6.8554,-6.8554,-6.8506,-6.8506,-6.8506,-6.8506,-6.8506,-6.8506,-6.8506,-6.8506,-6.8506,-6.8506,-6.8506,-6.8506,-6.8506,-6.8506,-6.8506,-6.8506,-6.8754,-6.9124,-6.9784,-6.97,-6.9173,-6.7006,-6.8273,-6.935,-6.9518,-7.0785,-7.1817,-7.1817,-7.1817,-7.1817,-7.1817,-7.1817,-7.1817,-7.1817,-7.1817,-7.1817,-7.1817,-7.1817,-7.1817,-7.1817,-7.1817,-7.1817,-7.1817,-7.1788,-7.1807,-7.1797,-7.1797,-7.1767,-7.1702,-7.0078,-6.9294,-6.9249,-6.7539,-6.6751,-6.678,-6.5883,-6.5522,-6.5461,-6.4632,-6.4753,-6.54,-6.54,-6.5372,-6.5343,-6.5343,-6.5343,-6.5226,-6.4488,-6.4644,-6.5071,-6.4255,-6.3478,-6.2818,-6.2818,-6.3362,-6.3983,-6.3983,-6.511,-6.6042,-6.4527,-6.4683,-6.5149,-6.4411,-6.5382,-6.5817,-6.3201,-6.3824,-6.4696,-6.3797,-6.4247,-6.5048,-6.5769,-6.5897,-6.5897,-6.5897,-6.5795,-6.5449,-6.468,-6.4385,-6.4014,-6.3284,-6.249,-6.1951,-6.2027,-6.1413,-6.1018,-6.1076,-6.115,-6.1893,-6.3416,-6.4361,-6.5642,-6.7244,-6.8064,-6.8474,-6.8464,-6.8405,-6.8431,-6.8506,-6.8506,-6.8506,-6.8506,-6.8506,-6.8506,-6.8506,-6.8506,-6.8506,-6.8506,-6.8506,-6.8457,-6.8457,-6.8457,-6.8309,-6.8129,-6.8941,-6.8365,-6.732,-6.8444,-6.9092,-6.974,-7.1078,-7.1604,-7.1817,-7.1817,-7.1817,-7.1817,-7.1817,-7.1817,-7.1817,-7.1817,-7.1817,-7.1817,-7.1817,-7.1817,-7.1817,-7.1817,-7.1817,-7.1817,-7.1817,-7.1815,-7.1802,-7.1794,-7.1811,-7.1509,-7.0855,-6.982,-6.9309,-6.9245,-6.7501,-6.7052,-6.7615,-6.6735,-6.6346,-6.6318,-6.6075,-6.61,-6.6296,-6.6281,-6.6237,-6.6237,-6.6237,-6.6237,-6.6198,-6.6003,-6.5615,-6.5071,-6.4255,-6.3867,-6.3711,-6.3711,-6.3867,-6.3983,-6.3983,-6.4683,-6.5421,-6.5032,-6.5576,-6.6198,-6.6003,-6.6237,-6.5973,-6.399,-6.4213,-6.477,-6.4569,-6.511,-6.5692,-6.5859,-6.5897,-6.5897,-6.5897,-6.5098,-6.4422,-6.4231,-6.2803,-6.1964,-6.2459,-6.1425,-6.0942,-6.1542,-6.1246,-6.0759,-6.0221,-6.0815,-6.1633,-6.2636,-6.3587,-6.448,-6.5357,-6.6267,-6.6714,-6.6658,-6.7243,-6.7874,-6.8506,-6.8506,-6.8506,-6.8506,-6.8506,-6.8506,-6.8506,-6.8506,-6.8506,-6.8506,-6.8506,-6.8358,-6.8208,-6.8208,-6.8018,-6.7777,-6.8367,-6.8016,-6.721,-6.9802,-7.0294,-7.0814,-7.1692,-7.1827,-7.1817,-7.1817,-7.1817,-7.1817,-7.1817,-7.1817,-7.1817,-7.1817,-7.1817,-7.1817,-7.1817,-7.1817,-7.1817,-7.1817,-7.1817,-7.1799,-7.1807,-7.1813,-7.1783,-7.1788,-7.1796,-7.1398,-7.0614,-6.9717,-6.9077,-6.8642,-6.6896,-6.6485,-6.7214,-6.5971,-6.5596,-6.5933,-6.5931,-6.5931,-6.5984,-6.6368,-6.6508,-6.6508,-6.6508,-6.6508,-6.647,-6.6042,-6.5343,-6.4566,-6.4139,-6.3983,-6.4061,-6.445,-6.4566,-6.4644,-6.5071,-6.5498,-6.5809,-6.5809,-6.6159,-6.6508,-6.6508,-6.6439,-6.604,-6.4692,-6.4948,-6.5329,-6.4871,-6.5356,-6.5782,-6.5359,-6.5282,-6.5282,-6.5282,-6.4555,-6.394,-6.394,-6.2824,-6.1905,-6.1599,-6.0792,-6.026,-6.0177,-6.0003,-5.9727,-5.9367,-5.9775,-6.037,-6.115,-6.2507,-6.3593,-6.4413,-6.565,-6.6284,-6.6238,-6.6593,-6.6955,-6.7354,-6.8134,-6.8506,-6.8506,-6.8506,-6.8506,-6.8506,-6.8506,-6.8506,-6.8506,-6.8358,-6.8259,-6.807,-6.7915,-6.7667,-6.7433,-6.7741,-6.7461,-6.7019,-7.0918,-7.1408,-7.1887,-7.1827,-7.1817,-7.1817,-7.1817,-7.1817,-7.1817,-7.1817,-7.1817,-7.1817,-7.1817,-7.1817,-7.1817,-7.1817,-7.1817,-7.1817,-7.1817,-7.1799,-7.1807,-7.1792,-7.1811,-7.1796,-7.1792,-7.1663,-7.1277,-7.0609,-6.9596,-6.8632,-6.7745,-6.6146,-6.5723,-6.6307,-6.5051,-6.4856,-6.5421,-6.5489,-6.5436,-6.5498,-6.6198,-6.6508,-6.6508,-6.6508,-6.6508,-6.6392,-6.5693,-6.4993,-6.4411,-6.4411,-6.4411,-6.4527,-6.5226,-6.5421,-6.5576,-6.6275,-6.6508,-6.6508,-6.6508,-6.6493,-6.6493,-6.6493,-6.6389,-6.6108,-6.5354,-6.5682,-6.593,-6.5095,-6.5447,-6.5667,-6.4974,-6.482,-6.482,-6.482,-6.4202,-6.3708,-6.3708,-6.3005,-6.2071,-6.0751,-6.0266,-5.9692,-5.8772,-5.8698,-5.8698,-5.8698,-5.8698,-5.8995,-5.9664,-6.1279,-6.2556,-6.3542,-6.4999,-6.5821,-6.597,-6.5986,-6.5969,-6.5952,-6.7455,-6.8234,-6.832,-6.8468,-6.8506,-6.8506,-6.8506,-6.8506,-6.8457,-6.8208,-6.807,-6.7967,-6.752,-6.7122,-6.6935,-6.6935,-6.6801,-6.6664,-7.1464,-7.1837,-7.1887,-7.1827,-7.1817,-7.1817,-7.1817,-7.1817,-7.1817,-7.1817,-7.1817,-7.1817,-7.1817,-7.1817,-7.1817,-7.1817,-7.1817,-7.1817,-7.1817,-7.1784,-7.1786,-7.1792,-7.1796,-7.1807,-7.1792,-7.1105,-7.0707,-7.0609,-6.8972,-6.7715,-6.6836,-6.5789,-6.5362,-6.5492,-6.5926,-6.6167,-6.6314,-6.6283,-6.6283,-6.6314,-6.647,-6.6508,-6.6508,-6.6508,-6.6508,-6.647,-6.6353,-6.6237,-6.6159,-6.6159,-6.6159,-6.6198,-6.6275,-6.6314,-6.6353,-6.647,-6.6508,-6.6508,-6.6508,-6.6422,-6.6316,-6.6316,-6.6283,-6.6147,-6.5925,-6.5958,-6.5974,-6.5866,-6.587,-6.5859,-6.5743,-6.5705,-6.5705,-6.5705,-6.4405,-6.3376,-6.3376,-6.1539,-6.0072,-5.985,-5.9297,-5.8851,-5.8698,-5.8698,-5.8698,-5.8698,-5.8698,-5.8772,-5.8884,-5.9864,-6.0799,-6.1661,-6.2678,-6.3542,-6.4252,-6.483,-6.5158,-6.515,-6.642,-6.7148,-6.7503,-6.8208,-6.8506,-6.8506,-6.8506,-6.8506,-6.8457,-6.8208,-6.7915,-6.7594,-6.6573,-6.6041,-6.583,-6.583,-6.5887,-6.6017,-7.1737,-7.1867,-7.1827,-7.1817,-7.1817,-7.1817,-7.1817,-7.1817,-7.1817,-7.1817,-7.1817,-7.1817,-7.1817,-7.1817,-7.1817,-7.1817,-7.1817,-7.1809,-7.1784,-7.1813,-7.1815,-7.1797,-7.1386,-7.1117,-7.1121,-7.0307,-6.9645,-6.9167,-6.8338,-6.752,-6.6673,-6.5738,-6.5531,-6.5945,-6.5809,-6.6011,-6.6439,-6.6439,-6.6454,-6.6508,-6.6508,-6.6508,-6.6508,-6.6508,-6.6508,-6.6508,-6.6508,-6.6508,-6.6508,-6.6508,-6.6508,-6.6508,-6.6508,-6.6508,-6.6508,-6.6508,-6.6508,-6.6493,-6.6406,-6.6334,-6.6299,-6.6225,-6.6165,-6.608,-6.6013,-6.5943,-6.5933,-6.5947,-6.5923,-6.5743,-6.5243,-6.5166,-6.5077,-6.4785,-6.3878,-6.3125,-6.2935,-6.172,-6.0572,-5.9782,-5.9096,-5.8698,-5.8698,-5.9107,-5.9367,-5.9367,-5.9812,-6.011,-6.011,-6.1018,-6.1698,-6.2076,-6.2986,-6.3663,-6.4,-6.4818,-6.5185,-6.5135,-6.633,-6.6963,-6.7037,-6.77,-6.8121,-6.8259,-6.807,-6.8121,-6.8259,-6.781,-6.7542,-6.7268,-6.6223,-6.5472,-6.5089,-6.5561,-6.582,-6.5969]}]]